[[{"header":{"parameterUnit":"m.s-1","parameterCategory":1,"la1":30.6,"la2":29.2853,"lo1":-89.7004,"lo2":-87.6739,"dy":0.0162,"dx":0.0183,"nx":112,"ny":82,"refTime":"2024-05-23T12:00:00:Z","depth":0,"parameterNumber":2,"parameterNumberName":"U-component_of_WINDS"},"data":[0.0,0.0,0.0,0.0,0.0,0.0,0.0,0.0,0.0,0.0,0.0,0.0,0.0,0.0,0.0,0.0,0.0,0.0,0.0,0.0,0.0,0.0,0.0,0.0,0.0,0.0,0.0,0.0,0.0,0.0,0.0,0.0,0.0,0.0,0.0,0.0,0.0,0.0,0.0,0.0,0.0,0.0,0.0,0.0,0.0,0.0,0.0,0.0,0.0,0.0,0.0,0.0,0.0,0.0,0.0,0.0,0.0,0.0,0.0,0.0,0.0,0.0,0.0,0.0,0.0,0.0,0.0,0.0,0.0,0.0,0.0,0.0,0.0,0.0,0.0,0.0,0.0,0.0,0.0,0.0,0.0,0.0,0.0,0.0,0.0,0.0,0.0,0.0,0.0,0.0,0.0,2.7889,3.0817,3.2517,3.226,3.1393,2.9795,2.7249,0.0,0.0,0.0,0.0,0.0,0.0,0.0,0.0,0.0,0.0,0.0,0.0,0.0,0.0,0.0,0.0,0.0,0.0,0.0,0.0,0.0,0.0,0.0,0.0,0.0,0.0,0.0,0.0,0.0,0.0,0.0,0.0,0.0,0.0,0.0,0.0,0.0,0.0,0.0,0.0,0.0,0.0,0.0,0.0,0.0,0.0,0.0,0.0,0.0,0.0,0.0,0.0,0.0,0.0,0.0,0.0,0.0,0.0,0.0,0.0,0.0,0.0,0.0,0.0,0.0,0.0,0.0,0.0,0.0,0.0,0.0,0.0,0.0,0.0,0.0,0.0,0.0,0.0,0.0,0.0,0.0,0.0,0.0,0.0,0.0,0.0,0.0,0.0,0.0,0.0,0.0,0.0,0.0,0.0,0.0,0.0,0.0,0.0,0.0,0.0,0.0,0.0,0.0,0.0,2.5646,2.9943,3.2068,3.2872,3.2098,3.1231,2.9659,2.7176,0.0,0.0,0.0,0.0,0.0,0.0,0.0,0.0,0.0,0.0,0.0,0.0,0.0,0.0,0.0,0.0,0.0,0.0,0.0,0.0,0.0,0.0,0.0,0.0,0.0,0.0,0.0,0.0,0.0,0.0,0.0,0.0,0.0,0.0,0.0,0.0,0.0,0.0,0.0,0.0,0.0,0.0,0.0,0.0,0.0,0.0,0.0,0.0,0.0,0.0,0.0,0.0,0.0,0.0,0.0,0.0,0.0,0.0,0.0,0.0,0.0,0.0,0.0,0.0,0.0,0.0,0.0,0.0,0.0,0.0,0.0,0.0,0.0,0.0,0.0,0.0,0.0,0.0,0.0,0.0,0.0,0.0,0.0,0.0,0.0,0.0,0.0,0.0,0.0,0.0,0.0,0.0,0.0,0.0,0.0,0.0,0.0,0.0,0.0,0.0,0.0,0.0,0.0,2.5197,2.7721,3.1185,3.2981,3.3425,3.211,3.1619,3.0124,2.7177,2.5497,0.0,0.0,0.0,0.0,0.0,0.0,0.0,0.0,0.0,0.0,0.0,0.0,0.0,0.0,0.0,0.0,0.0,0.0,0.0,0.0,0.0,0.0,0.0,0.0,0.0,0.0,0.0,0.0,0.0,0.0,0.0,0.0,0.0,0.0,0.0,0.0,0.0,0.0,0.0,0.0,0.0,0.0,0.0,0.0,0.0,0.0,0.0,0.0,0.0,0.0,0.0,0.0,0.0,0.0,0.0,0.0,0.0,0.0,0.0,0.0,0.0,0.0,0.0,0.0,0.0,0.0,0.0,0.0,0.0,0.0,0.0,0.0,0.0,0.0,0.0,0.0,0.0,0.0,0.0,0.0,0.0,0.0,0.0,0.0,0.0,0.0,0.0,0.0,0.0,0.0,0.0,0.0,0.0,0.0,0.0,0.0,0.0,0.0,0.0,0.0,0.0,0.0,2.7843,2.9905,3.1899,3.3545,3.3818,3.2128,3.1747,3.029,2.7195,2.5107,0.0,0.0,0.0,0.0,0.0,0.0,0.0,0.0,0.0,0.0,0.0,0.0,0.0,0.0,0.0,0.0,0.0,0.0,0.0,0.0,0.0,0.0,0.0,0.0,0.0,0.0,0.0,0.0,0.0,0.0,0.0,0.0,0.0,0.0,0.0,0.0,0.0,0.0,0.0,0.0,0.0,0.0,0.0,0.0,0.0,0.0,0.0,0.0,0.0,0.0,0.0,0.0,0.0,0.0,0.0,0.0,0.0,0.0,0.0,0.0,0.0,0.0,0.0,0.0,0.0,0.0,0.0,0.0,0.0,0.0,0.0,0.0,0.0,0.0,0.0,0.0,0.0,0.0,0.0,0.0,0.0,0.0,0.0,0.0,0.0,0.0,0.0,0.0,0.0,0.0,0.0,0.0,0.0,0.0,0.0,0.0,0.0,0.0,0.0,0.0,0.0,0.0,2.8391,3.1091,3.1992,3.3545,3.3818,3.2128,3.1264,2.9714,2.7158,2.4027,0.0,0.0,0.0,0.0,0.0,0.0,0.0,0.0,0.0,0.0,0.0,0.0,0.0,0.0,0.0,0.0,0.0,0.0,0.0,0.0,0.0,0.0,0.0,0.0,0.0,0.0,0.0,0.0,0.0,0.0,0.0,0.0,0.0,0.0,0.0,0.0,0.0,0.0,0.0,0.0,0.0,0.0,0.0,0.0,0.0,0.0,0.0,0.0,0.0,0.0,0.0,0.0,0.0,0.0,0.0,0.0,0.0,0.0,0.0,0.0,0.0,0.0,0.0,0.0,0.0,0.0,0.0,0.0,0.0,0.0,0.0,0.0,0.0,0.0,0.0,0.0,0.0,0.0,0.0,0.0,0.0,0.0,0.0,0.0,0.0,0.0,0.0,0.0,0.0,0.0,0.0,0.0,0.0,0.0,0.0,0.0,0.0,0.0,0.0,0.0,0.0,0.0,2.8395,3.0715,0.0,3.3567,3.3861,3.2147,3.1696,3.0221,2.7177,0.0,0.0,0.0,0.0,0.0,0.0,0.0,0.0,0.0,0.0,0.0,0.0,0.0,0.0,0.0,0.0,0.0,0.0,0.0,0.0,0.0,0.0,0.0,0.0,0.0,0.0,0.0,0.0,0.0,0.0,0.0,0.0,0.0,0.0,0.0,0.0,0.0,0.0,0.0,0.0,0.0,0.0,0.0,0.0,0.0,0.0,0.0,0.0,0.0,0.0,0.0,0.0,0.0,0.0,0.0,0.0,0.0,0.0,0.0,0.0,0.0,0.0,0.0,0.0,0.0,0.0,0.0,0.0,0.0,0.0,0.0,0.0,0.0,0.0,0.0,0.0,0.0,0.0,0.0,0.0,0.0,0.0,0.0,0.0,0.0,0.0,0.0,0.0,0.0,0.0,0.0,0.0,0.0,0.0,0.0,0.0,0.0,0.0,0.0,0.0,0.0,0.0,2.616,2.8909,3.1035,0.0,3.3757,3.3883,3.2168,3.1512,2.9904,2.6822,0.0,0.0,0.0,0.0,0.0,0.0,0.0,0.0,0.0,0.0,0.0,0.0,0.0,0.0,0.0,0.0,0.0,0.0,0.0,0.0,0.0,0.0,0.0,0.0,0.0,0.0,0.0,0.0,0.0,0.0,0.0,0.0,0.0,0.0,0.0,0.0,0.0,0.0,0.0,0.0,0.0,0.0,0.0,0.0,0.0,0.0,0.0,0.0,0.0,0.0,0.0,0.0,0.0,0.0,0.0,0.0,0.0,0.0,0.0,0.0,0.0,0.0,0.0,0.0,0.0,0.0,0.0,0.0,0.0,0.0,0.0,0.0,0.0,0.0,0.0,0.0,0.0,0.0,0.0,0.0,0.0,0.0,0.0,0.0,0.0,0.0,0.0,0.0,0.0,0.0,0.0,0.0,0.0,0.0,0.0,0.0,0.0,0.0,0.0,0.0,0.0,0.0,2.7002,3.0113,3.2424,3.3306,3.4113,3.3883,3.2168,3.0465,2.8446,0.0,0.0,0.0,0.0,0.0,0.0,0.0,0.0,0.0,0.0,0.0,0.0,0.0,0.0,0.0,0.0,0.0,0.0,0.0,0.0,0.0,0.0,0.0,0.0,0.0,0.0,0.0,0.0,0.0,0.0,0.0,0.0,0.0,0.0,0.0,0.0,0.0,0.0,0.0,0.0,0.0,0.0,0.0,0.0,0.0,0.0,0.0,0.0,0.0,0.0,0.0,0.0,0.0,0.0,0.0,0.0,0.0,0.0,0.0,0.0,0.0,0.0,0.0,0.0,0.0,0.0,0.0,0.0,0.0,0.0,0.0,0.0,0.0,0.0,0.0,0.0,0.0,0.0,0.0,0.0,0.0,0.0,0.0,0.0,0.0,0.0,0.0,0.0,0.0,0.0,0.0,0.0,0.0,0.0,0.0,0.0,0.0,0.0,0.0,0.0,0.0,0.0,0.0,2.7755,3.0489,3.2424,3.3306,3.407,3.384,3.2128,3.0966,2.9042,2.6002,0.0,0.0,0.0,0.0,0.0,0.0,0.0,0.0,0.0,0.0,0.0,0.0,0.0,0.0,0.0,0.0,0.0,0.0,0.0,0.0,0.0,0.0,0.0,0.0,0.0,0.0,0.0,0.0,0.0,0.0,0.0,0.0,0.0,0.0,0.0,0.0,0.0,0.0,0.0,0.0,0.0,0.0,0.0,0.0,0.0,0.0,0.0,0.0,0.0,0.0,0.0,0.0,0.0,0.0,0.0,0.0,0.0,0.0,0.0,0.0,0.0,0.0,0.0,0.0,0.0,0.0,0.0,0.0,0.0,0.0,0.0,0.0,0.0,0.0,0.0,0.0,0.0,0.0,0.0,0.0,0.0,0.0,0.0,0.0,0.0,0.0,0.0,0.0,0.0,0.0,0.0,0.0,0.0,0.0,0.0,0.0,0.0,0.0,0.0,0.0,0.0,0.0,2.8468,3.0829,3.2555,3.3695,3.4236,3.3818,3.2107,3.1187,2.9302,2.5966,0.0,0.0,0.0,0.0,0.0,0.0,0.0,0.0,0.0,0.0,0.0,0.0,0.0,0.0,0.0,0.0,0.0,0.0,0.0,0.0,0.0,0.0,0.0,0.0,0.0,0.0,0.0,0.0,0.0,0.0,0.0,0.0,0.0,0.0,0.0,0.0,0.0,0.0,0.0,0.0,0.0,0.0,0.0,0.0,0.0,0.0,0.0,0.0,0.0,0.0,0.0,0.0,0.0,0.0,0.0,0.0,0.0,0.0,0.0,0.0,0.0,0.0,0.0,0.0,0.0,0.0,0.0,0.0,0.0,0.0,0.0,0.0,0.0,0.0,0.0,0.0,0.0,0.0,0.0,0.0,0.0,0.0,0.0,0.0,0.0,0.0,0.0,0.0,0.0,0.0,0.0,0.0,0.0,0.0,0.0,0.0,0.0,0.0,0.0,0.0,0.0,0.0,2.9063,3.1091,3.2722,3.4326,3.4495,3.3814,3.2154,3.1203,2.9301,2.6024,0.0,0.0,0.0,0.0,0.0,0.0,0.0,0.0,0.0,0.0,0.0,0.0,0.0,0.0,0.0,0.0,0.0,0.0,0.0,0.0,0.0,0.0,0.0,0.0,0.0,0.0,0.0,0.0,0.0,0.0,0.0,0.0,0.0,0.0,0.0,0.0,0.0,0.0,0.0,0.0,0.0,0.0,0.0,0.0,0.0,0.0,0.0,0.0,0.0,0.0,0.0,0.0,0.0,0.0,0.0,0.0,0.0,0.0,0.0,0.0,2.4296,0.0,0.0,0.0,0.0,0.0,0.0,0.0,0.0,0.0,0.0,0.0,0.0,0.0,0.0,0.0,0.0,0.0,0.0,0.0,0.0,0.0,0.0,0.0,0.0,0.0,0.0,0.0,0.0,0.0,0.0,0.0,0.0,0.0,0.0,0.0,0.0,0.0,0.0,0.0,0.0,0.0,2.9138,3.1091,3.2722,3.4326,3.445,3.3994,3.2937,3.1477,2.952,2.6879,0.0,0.0,0.0,0.0,0.0,0.0,0.0,0.0,0.0,0.0,0.0,0.0,0.0,0.0,0.0,0.0,0.0,0.0,0.0,0.0,0.0,0.0,0.0,0.0,0.0,0.0,0.0,0.0,0.0,0.0,0.0,0.0,0.0,0.0,0.0,0.0,0.0,0.0,0.0,0.0,0.0,0.0,0.0,0.0,0.0,0.0,0.0,0.0,0.0,0.0,0.0,0.0,0.0,0.0,0.0,0.0,0.0,0.0,0.0,0.0,0.0,2.5981,0.0,0.0,0.0,0.0,0.0,0.0,0.0,0.0,0.0,0.0,0.0,0.0,0.0,0.0,0.0,0.0,0.0,0.0,0.0,0.0,0.0,0.0,0.0,0.0,0.0,0.0,0.0,0.0,0.0,0.0,0.0,0.0,0.0,0.0,0.0,0.0,0.0,0.0,0.0,0.0,2.9157,3.1091,3.2683,3.4285,3.4427,3.4045,3.3134,3.1898,3.0318,2.8293,2.5429,0.0,0.0,0.0,0.0,0.0,0.0,0.0,0.0,0.0,0.0,0.0,0.0,0.0,0.0,0.0,0.0,0.0,0.0,0.0,0.0,0.0,0.0,0.0,0.0,0.0,0.0,0.0,0.0,0.0,0.0,0.0,0.0,0.0,0.0,0.0,0.0,0.0,0.0,0.0,0.0,0.0,0.0,0.0,0.0,0.0,0.0,0.0,0.0,0.0,0.0,0.0,0.0,0.0,3.3078,3.3209,3.3323,3.3323,3.3677,3.4158,3.1376,2.981,2.9101,0.0,0.0,0.0,0.0,0.0,0.0,0.0,0.0,0.0,0.0,0.0,0.0,0.0,0.0,0.0,0.0,0.0,0.0,0.0,0.0,0.0,0.0,0.0,0.0,0.0,3.1239,3.0485,0.0,0.0,0.0,0.0,0.0,0.0,0.0,0.0,0.0,0.0,0.0,0.0,2.9401,3.1316,3.2852,3.4259,3.4404,3.4078,3.3273,3.2493,3.1318,2.9723,2.6935,2.4852,0.0,0.0,0.0,0.0,0.0,0.0,0.0,0.0,0.0,0.0,0.0,0.0,0.0,0.0,0.0,0.0,0.0,0.0,0.0,0.0,0.0,0.0,0.0,0.0,0.0,0.0,0.0,0.0,0.0,0.0,0.0,0.0,2.4625,2.6338,0.0,0.0,0.0,0.0,0.0,0.0,0.0,0.0,0.0,0.0,0.0,0.0,0.0,3.2598,3.2913,3.4974,3.6087,3.6199,3.7519,3.8162,3.817,3.817,3.8245,3.8319,3.7865,0.0,3.2415,3.1613,0.0,0.0,0.0,0.0,0.0,0.0,0.0,0.0,0.0,0.0,0.0,0.0,0.0,0.0,0.0,0.0,0.0,0.0,0.0,0.0,0.0,0.0,3.3663,3.393,3.4062,3.3573,0.0,2.9032,2.6854,2.5551,2.3676,0.0,0.0,0.0,0.0,0.0,0.0,0.0,3.0396,3.2198,3.3548,3.4401,3.4431,3.4325,3.4144,3.3352,3.2154,3.0541,2.9388,2.7734,2.5465,2.3733,0.0,0.0,0.0,0.0,0.0,0.0,0.0,0.0,0.0,0.0,0.0,0.0,0.0,0.0,0.0,0.0,0.0,0.0,0.0,0.0,0.0,0.0,0.0,0.0,0.0,0.0,0.0,0.0,0.0,2.4276,2.6153,2.6916,2.7139,2.7081,0.0,0.0,0.0,0.0,0.0,0.0,0.0,0.0,0.0,3.4069,3.4833,3.5876,3.7247,3.83,3.9036,3.95,4.016,4.0513,4.0494,4.0551,4.0561,4.0561,4.0589,3.9637,3.7797,3.5114,3.3184,3.175,0.0,0.0,0.0,0.0,3.0112,3.0114,3.1445,3.1611,0.0,3.0561,0.0,0.0,0.0,0.0,0.0,0.0,0.0,0.0,0.0,0.0,3.4827,3.5766,3.601,3.5784,3.5071,3.3481,3.1224,0.0,2.7238,2.6266,2.3543,0.0,0.0,0.0,0.0,0.0,3.126,3.2649,3.3679,3.4401,3.445,3.4363,3.4293,3.3501,3.2507,3.1336,3.0113,2.87,2.7102,2.5075,2.3417,0.0,0.0,0.0,0.0,0.0,0.0,0.0,0.0,0.0,0.0,0.0,0.0,0.0,0.0,0.0,0.0,0.0,0.0,0.0,0.0,0.0,0.0,0.0,0.0,0.0,0.0,0.0,0.0,2.6098,2.7622,2.7884,2.8873,2.9118,0.0,0.0,0.0,0.0,0.0,0.0,3.3403,3.426,3.5653,3.7649,3.8114,3.9184,4.0996,4.1219,4.1609,4.2203,4.2203,4.2203,4.2222,4.2262,4.2321,4.235,4.2389,4.2417,4.2165,3.8369,3.6403,3.5627,3.4158,3.3489,3.3458,3.4274,3.4113,3.3807,3.5789,3.6,3.5208,3.4157,0.0,3.2529,2.987,0.0,0.0,0.0,0.0,3.2808,3.4865,3.548,3.5916,3.738,3.7737,3.7662,3.7455,3.693,3.5296,0.0,3.0809,3.0227,2.7129,0.0,0.0,0.0,0.0,3.0096,3.218,3.3175,3.3923,3.4461,3.4473,3.4386,3.4316,3.3729,3.2976,3.2154,3.0801,2.963,2.8793,2.66,2.4945,2.3938,0.0,0.0,0.0,0.0,0.0,0.0,0.0,0.0,0.0,0.0,0.0,0.0,0.0,0.0,0.0,0.0,0.0,0.0,0.0,0.0,0.0,0.0,0.0,0.0,0.0,0.0,0.0,0.0,0.0,3.0336,3.1846,0.0,0.0,0.0,0.0,3.3967,3.4172,3.523,3.7564,3.8457,3.9305,4.0178,4.1683,4.2556,4.2686,4.3448,4.3838,4.3875,4.3875,4.3875,4.3875,4.3875,4.3955,4.4053,4.4072,4.4114,4.3968,4.1399,3.9911,3.9183,3.8455,3.7627,3.6953,3.7898,3.807,3.8016,3.8901,3.867,3.8134,3.8801,3.7442,3.5356,3.4401,3.3677,0.0,0.0,3.4395,3.5863,3.6746,3.7549,3.8338,3.9263,3.947,3.9239,3.8413,3.8206,3.7662,0.0,3.3644,3.1973,3.1767,0.0,2.9777,3.0546,3.1372,3.2255,3.3212,3.4038,3.4545,3.4583,3.4539,3.4473,3.4386,3.4302,3.386,3.2971,3.2135,3.1318,3.0522,2.8831,2.7176,2.5596,2.3957,0.0,0.0,0.0,0.0,0.0,0.0,0.0,0.0,0.0,0.0,0.0,0.0,0.0,0.0,0.0,0.0,0.0,0.0,0.0,0.0,0.0,0.0,0.0,0.0,0.0,0.0,0.0,0.0,3.3584,3.5231,0.0,3.4697,3.533,3.6081,3.6677,3.7694,3.8877,4.0244,4.108,4.1898,4.2686,4.3262,4.3578,4.3578,4.3856,4.4005,4.4005,4.4005,4.4005,4.4005,4.4085,4.4135,4.4184,4.4244,4.4314,4.4298,4.34,4.2539,4.1688,4.0926,4.042,4.0188,4.0502,4.0562,4.0566,4.0838,4.0772,4.0562,4.0364,3.9339,3.8164,3.7863,3.7606,3.7493,3.8019,3.8582,3.9239,4.0046,4.0084,3.999,4.029,3.9971,3.9526,3.9183,3.9126,3.8957,3.8375,3.6667,3.4977,3.3888,3.37,3.3607,3.3325,3.3531,3.402,3.4902,3.4771,3.4602,3.4602,3.4539,3.4495,3.4473,3.3896,3.3175,3.2333,3.1511,3.0671,2.9872,2.8738,2.7604,2.6488,2.4889,2.2712,0.0,0.0,0.0,0.0,0.0,0.0,0.0,0.0,0.0,0.0,0.0,0.0,0.0,0.0,0.0,0.0,0.0,0.0,0.0,0.0,0.0,0.0,0.0,0.0,0.0,0.0,3.4754,3.6147,3.8032,3.8784,3.7687,3.8579,3.9342,3.9602,4.0616,4.1553,4.237,4.2927,4.3448,4.3986,4.4005,4.4005,4.4005,4.4005,4.4005,4.4005,4.4005,4.4005,4.4005,4.4085,4.4153,4.4184,4.4244,4.4314,4.4373,4.4383,4.4017,4.3427,4.2913,4.2707,4.2707,4.2707,4.2707,4.2707,4.2707,4.2548,4.2302,4.1785,4.1079,4.0403,4.0403,4.0403,4.0516,4.106,4.121,4.1342,4.1867,4.1605,4.121,4.121,4.0797,4.0328,4.0046,3.999,3.9915,3.9658,3.845,3.7155,3.6028,3.6104,3.6104,3.5522,3.5428,3.5653,3.6235,3.5559,3.5033,3.5033,3.4749,3.4517,3.4495,3.368,3.2944,3.2381,3.1272,3.0265,2.9427,2.859,2.7642,2.6544,2.4666,2.3026,2.163,0.0,0.0,0.0,0.0,0.0,0.0,0.0,0.0,0.0,0.0,0.0,0.0,0.0,0.0,0.0,0.0,0.0,0.0,0.0,0.0,0.0,0.0,0.0,3.3008,3.5237,3.7113,3.7949,4.0197,4.1033,3.9417,4.0717,4.1999,4.2779,4.2835,4.3188,4.3968,4.4005,4.4005,4.4005,4.4005,4.4005,4.4005,4.4005,4.4005,4.4005,4.4005,4.4005,4.4005,4.4005,4.4055,4.4184,4.4184,4.4244,4.4314,4.4373,4.4383,4.4411,4.4468,4.4515,4.4515,4.4515,4.4515,4.4515,4.4515,4.3989,4.3332,4.3332,4.2769,4.2066,4.2066,4.2066,4.2066,4.2066,4.2066,4.2066,4.2066,4.2047,4.2029,4.2029,4.201,4.1811,4.1004,4.0835,4.0591,3.9808,3.8957,3.8375,3.8338,3.7681,3.7174,3.7174,3.7136,0.0,3.7136,3.6441,3.5935,3.5935,3.5165,3.4599,3.4555,3.3765,3.3216,3.3172,3.1576,3.0288,2.945,2.8649,2.7494,2.591,2.3468,2.2592,2.3342,0.0,0.0,0.0,0.0,0.0,0.0,0.0,0.0,0.0,0.0,0.0,0.0,0.0,0.0,0.0,0.0,0.0,0.0,0.0,0.0,0.0,0.0,3.5398,3.5646,3.7819,3.99,4.1293,4.2575,4.315,4.2705,4.3076,4.3429,4.3652,4.367,4.3763,4.3986,4.4005,4.4005,4.4005,4.4005,4.4005,4.4005,4.4005,4.4005,4.4005,4.4005,4.4005,4.4005,4.4005,4.4005,4.4036,4.4036,4.4135,4.4244,4.4244,4.4285,4.4344,4.444,4.4515,4.4515,4.4515,4.4515,4.4515,4.4515,4.4364,4.4177,4.4177,4.4026,4.382,4.382,4.382,4.382,4.382,4.382,4.382,4.382,4.3388,4.2938,4.2938,4.2468,4.1935,4.1736,4.168,4.1436,4.0628,4.0272,3.9934,3.9333,3.9051,3.8925,3.8925,3.8357,0.0,3.7962,3.7268,3.6761,3.6761,3.6028,3.554,3.5518,3.3618,3.2435,3.2395,3.0762,2.9715,2.9472,2.9267,2.8651,2.7643,2.5792,2.4687,0.0,0.0,0.0,0.0,0.0,0.0,0.0,0.0,0.0,0.0,0.0,0.0,0.0,0.0,0.0,0.0,0.0,0.0,0.0,0.0,0.0,0.0,3.601,3.8071,3.9101,4.0494,4.1869,4.315,4.3726,4.4005,4.4005,4.4005,4.4005,4.4005,4.4339,4.4544,4.4544,4.4859,4.5045,4.5045,4.5045,4.5045,4.5045,4.5045,4.5045,4.5045,4.5045,4.5045,4.5045,4.5045,4.4859,0.0,4.4544,4.4389,4.4135,4.4184,4.4214,0.0,0.0,0.0,0.0,0.0,4.4515,4.4515,4.4515,4.4515,4.4515,4.4515,4.4515,4.4515,4.4515,4.4515,4.4515,4.4515,4.4515,4.4515,4.4515,4.4158,4.3801,4.3801,4.3426,4.2956,4.2618,4.2543,4.2299,4.1473,4.1041,0.0,4.0178,3.9827,3.9602,3.9602,3.9164,3.8845,3.8845,3.8112,3.7606,3.7606,3.6873,3.6273,3.5935,3.4223,0.0,0.0,0.0,2.9737,2.9064,2.869,0.0,0.0,0.0,0.0,0.0,0.0,0.0,0.0,2.5869,2.5923,0.0,0.0,0.0,0.0,0.0,0.0,0.0,0.0,0.0,0.0,0.0,0.0,0.0,0.0,0.0,0.0,3.8452,4.0325,4.2581,4.2927,4.3206,4.3912,4.4005,4.4005,4.4005,4.4005,4.4042,4.4135,4.4859,4.5342,4.5417,0.0,0.0,0.0,0.0,4.6494,4.6494,4.6494,4.6494,4.6494,4.6494,4.6494,4.6494,4.6494,4.6104,4.5435,4.5435,4.4952,4.4153,4.4284,4.4277,4.4214,4.4344,4.4411,4.4411,4.4487,4.4515,4.4515,4.4515,0.0,0.0,4.4515,4.4515,4.4515,4.4515,4.4515,4.4515,4.4515,4.4515,4.4515,4.4515,4.4515,4.4515,4.4515,4.4515,4.4308,4.3595,4.3444,4.3182,4.2318,4.1567,4.1041,4.0947,4.0178,3.9602,3.9602,3.9602,3.9602,3.9602,3.892,3.845,3.845,0.0,0.0,3.6235,3.5202,3.4301,3.3588,3.1914,3.032,2.8877,2.8071,2.8033,2.8802,2.8821,2.9514,3.0934,3.0934,3.099,3.1027,2.8783,2.8839,0.0,0.0,0.0,0.0,0.0,0.0,0.0,0.0,0.0,0.0,0.0,0.0,0.0,0.0,0.0,3.9063,4.0915,4.2397,4.354,4.3751,4.3838,4.3986,4.4005,4.4005,4.4005,4.4005,4.4283,4.4989,4.5194,4.5565,4.6234,4.642,4.6494,4.6494,4.6494,4.6494,4.6494,4.6494,4.6494,4.6494,0.0,0.0,4.6494,4.6494,4.642,4.6271,4.6271,4.5788,4.5045,4.5095,4.4736,4.4214,4.4344,4.444,4.4487,4.4515,4.4515,4.4515,4.4515,4.4515,4.4515,4.4515,4.4515,4.4515,4.4515,4.4515,0.0,4.4515,4.4515,4.4515,4.4515,4.4515,4.4515,4.4515,4.4515,4.4477,4.4308,4.4271,4.4045,4.3219,4.2919,4.2581,4.1905,4.0553,3.9602,3.9602,3.9602,3.9602,3.9602,3.9445,3.9333,3.9333,3.8582,3.8,3.785,3.5841,3.4526,3.4376,3.278,3.1709,3.139,3.1203,3.1203,3.1371,3.1371,3.154,3.1859,3.1859,3.2216,3.2872,3.1648,3.0971,0.0,0.0,0.0,0.0,0.0,0.0,0.0,0.0,0.0,0.0,0.0,3.2603,0.0,0.0,3.8467,4.0954,4.2106,4.2989,4.3786,4.3961,4.4005,4.4005,4.4005,4.4172,4.4599,4.4655,4.4989,4.5844,4.6271,4.668,4.707,4.7478,4.7701,4.7701,4.7701,4.7701,4.7701,4.7701,4.7701,4.7701,4.7701,4.7701,4.7701,4.7701,4.7478,4.7107,4.7107,4.6643,4.5862,4.5472,4.5108,4.4792,4.4423,4.4373,4.444,4.4487,4.4515,4.4515,4.4515,4.4515,4.4515,4.4515,4.4515,4.4515,4.4515,4.4515,4.4515,4.4515,4.4515,4.4515,4.4515,4.4515,4.4515,4.4515,4.4515,4.4515,4.4515,4.4515,4.4383,4.3989,4.3576,4.3163,4.2731,4.1623,4.0666,4.0253,3.9858,3.9602,3.9602,3.9602,3.9602,3.9602,3.9201,3.877,3.8338,3.6798,3.5672,3.5277,3.4057,3.3175,3.278,3.233,3.2311,3.2743,3.2762,3.2949,3.3344,3.3794,3.4226,3.4658,3.4577,3.4124,0.0,0.0,0.0,0.0,0.0,0.0,0.0,0.0,3.0746,3.2518,3.4044,3.5726,3.7985,3.9036,4.0271,4.2387,4.282,4.3124,4.3823,4.3961,4.4005,4.4005,4.4005,4.4339,4.5212,4.5287,4.5695,4.6661,4.733,4.7776,4.7924,4.8556,4.8909,4.8909,4.8909,4.8909,4.8909,4.8909,4.8909,4.8909,4.8909,4.8909,4.8909,4.8909,4.8556,4.7924,4.7776,4.733,4.6661,4.5862,4.5542,4.5531,4.4743,4.4498,4.4607,4.4515,4.4487,4.4515,4.4515,4.4515,4.4515,4.4515,4.4515,4.4515,4.4515,4.4515,4.4515,4.4515,4.4515,4.4515,4.4515,4.4515,4.4515,4.4515,4.4515,4.4515,4.4515,4.4515,4.4515,4.4515,4.3989,4.3538,4.3538,4.2825,4.1924,4.0947,4.0253,3.9765,3.9639,3.9602,3.9602,3.9602,3.9602,3.9239,3.8375,3.7699,3.6986,3.6179,3.5465,3.4789,3.4151,3.3438,3.34,3.4113,3.4113,3.4433,3.509,3.5784,3.6122,3.6141,3.6948,3.6892,2.7516,2.8283,2.9159,2.9953,3.0111,3.1004,0.0,0.0,3.4648,3.6962,3.8162,3.9221,4.0551,4.1415,4.2298,4.3476,4.3675,4.3726,4.3897,4.3961,4.4005,4.4005,4.4005,4.4339,4.5212,4.5287,4.5918,4.746,4.7646,4.8017,4.8723,4.8853,4.8909,4.8909,4.8909,4.8909,4.8909,4.8909,4.8909,4.8909,4.8909,4.8909,4.8909,4.8909,4.8853,4.8723,4.8017,4.7646,4.7497,4.6698,4.6364,4.6304,4.5549,4.5307,4.5305,4.4664,4.444,4.4515,4.4515,4.4515,4.4515,4.4515,4.4515,4.4515,4.4515,4.4515,4.4515,4.4515,4.4515,4.4515,4.4515,4.4515,4.4515,4.4515,4.4515,4.4515,4.4515,4.4515,4.4515,4.4515,4.4439,4.4383,4.4383,4.3688,4.2618,4.1041,4.0722,4.0403,3.9695,3.9602,3.9602,3.9602,3.9602,3.9239,3.8375,3.8225,3.7812,3.7005,3.6855,3.6779,3.6686,3.6573,3.6573,3.6667,3.6686,3.6723,3.6817,3.6911,3.6967,3.6986,3.7793,3.7737,2.9853,3.0438,0.0,0.0,3.2521,3.3444,3.5757,3.6461,3.7189,3.9095,4.0338,4.1382,4.2356,4.2797,4.3146,0.0,4.3652,4.3701,4.3734,4.3865,4.3961,4.3961,4.3974,4.4339,4.5212,4.5714,4.6475,4.7608,4.8129,4.8556,4.889,4.8909,4.8909,4.8909,4.8909,4.8909,4.8909,4.8909,4.8909,4.8909,4.8909,4.8909,4.8909,4.8909,4.8909,4.889,4.8537,4.8407,4.8333,4.7534,4.72,4.7125,4.6322,4.5791,4.5345,4.4672,4.444,4.4515,4.4515,4.4515,4.4515,4.4515,4.4515,4.4515,4.4515,4.4515,4.4515,4.4515,4.4515,4.4515,4.4515,4.4515,4.4515,4.4515,4.4515,4.4515,4.4515,4.4515,4.4515,4.4515,4.4515,4.4515,4.4515,4.4233,4.3595,4.2431,4.183,4.121,4.0403,4.029,4.0103,3.9658,3.9602,3.9445,3.9089,3.9051,3.8901,3.8587,3.8075,3.7793,3.7793,3.7343,3.7099,3.7099,3.7099,3.7099,3.7099,3.7568,3.7793,3.7812,3.8657,3.8863,3.1106,0.0,0.0,3.3794,3.4883,3.6054,3.738,3.8402,3.9476,4.096,4.2006,4.28,4.3387,4.3497,0.0,4.3513,4.3548,4.3615,4.3667,4.3767,4.3883,4.3883,4.3929,4.4233,4.4846,4.5881,4.6828,4.7646,4.8444,4.8909,4.8909,4.8909,4.8909,4.8909,4.8909,4.8909,4.8909,4.8909,4.8909,4.8909,4.8909,4.8909,4.8909,4.8909,4.8909,4.8909,4.8909,4.8909,4.8853,4.8277,4.8036,4.7943,4.7144,4.6522,4.5985,4.5286,4.4805,4.4487,4.4487,4.4515,4.4515,4.4515,4.4515,4.4515,4.4515,4.4515,4.4515,4.4515,4.4515,4.4515,4.4515,4.4515,4.4515,4.4515,4.4515,4.4515,4.4515,4.4515,4.4515,4.4515,4.4515,4.4515,4.4515,4.4515,4.4308,4.3726,4.3106,4.2318,4.1267,4.0947,4.0478,3.9695,3.9602,3.9602,3.9602,3.9602,3.9602,3.9602,3.8995,3.8657,3.8657,3.8094,3.7798,3.7798,3.7798,3.7798,3.7798,3.8375,3.8657,3.8676,3.9295,3.9602,0.0,0.0,3.4378,3.5469,3.7117,3.9004,4.0979,4.1469,4.1851,4.3153,4.3442,4.3461,4.3497,4.3497,4.3513,4.3582,4.3582,4.3634,4.3771,4.3804,4.3804,4.3804,4.3851,4.3915,0.0,4.5496,4.6828,4.7646,4.8444,4.8909,4.8909,4.8909,4.8909,4.8909,4.8909,4.8909,4.8909,4.8909,4.8909,4.8909,4.8909,4.8909,4.8909,4.8909,4.8909,4.8909,4.8909,4.8909,4.8909,4.8872,4.8872,4.8779,4.798,4.7713,4.763,4.6906,4.569,4.4411,4.4487,4.4515,4.4515,4.4515,4.4515,4.4515,4.4515,4.4515,4.4515,4.4515,4.4515,4.4515,4.4515,4.4515,4.4515,4.4515,4.4515,4.4515,4.4515,4.4515,4.4515,4.4515,4.4515,4.4515,4.4515,4.4515,4.4496,4.4477,4.4458,4.3839,4.216,4.1285,4.0478,3.9695,3.9602,3.9602,3.9602,3.9602,3.9602,3.9602,3.9583,3.9564,3.9564,3.9545,3.9526,3.9526,3.9526,3.9526,3.9526,3.9564,3.9564,3.9564,3.9602,3.9602,0.0,0.0,3.6595,3.7809,3.9191,4.0578,4.1733,4.2258,4.2575,4.3014,4.2883,4.269,4.269,4.269,4.269,4.2724,4.3183,4.3566,4.36,4.3634,4.3719,4.3804,4.3851,0.0,0.0,0.0,0.0,4.6828,4.7646,4.8333,4.8872,4.8909,4.8909,4.8909,4.8909,4.8909,4.8909,4.8909,4.8909,4.8909,4.8909,4.8909,4.8909,4.8909,4.8909,4.8909,4.8909,4.8909,4.8909,4.8909,4.8909,4.8872,4.8612,4.8166,4.7731,4.7602,4.6863,4.5877,4.5434,4.4946,4.4515,4.4515,4.4515,4.4515,4.4515,4.4515,4.4515,4.4515,4.4515,4.4515,4.4515,4.4515,4.4515,4.4515,4.4515,4.4515,4.4515,4.4515,4.4515,4.4515,4.4515,4.4515,4.4515,4.4515,4.4515,4.4515,4.4064,4.3501,4.2938,4.213,4.1492,4.1229,4.1191,4.0985,4.044,4.0403,4.0159,3.9639,3.9602,3.9602,3.9602,3.9602,3.9602,3.9602,3.9637,3.9684,3.9665,3.9754,3.9796,3.9796,4.0386,4.065,0.0,3.6484,3.8061,3.937,4.0488,4.1345,4.1842,4.2157,4.2386,4.2273,4.1923,4.1624,4.1624,4.1287,4.1295,4.2158,4.2488,4.2928,4.3809,4.3697,4.371,4.4091,4.4177,0.0,0.0,0.0,0.0,4.6438,4.7516,4.8351,4.8872,4.8909,4.8909,4.8909,4.8909,4.8909,4.8909,4.8909,4.8909,4.8909,4.8909,4.8909,4.8909,4.8909,4.8909,4.8909,4.8909,4.8909,4.8909,4.8909,4.8909,4.8909,4.8909,4.8574,4.8129,4.8334,4.7826,4.6943,4.6034,4.5359,4.489,4.459,4.4515,4.4515,4.4515,4.4515,4.4515,4.4515,4.4515,4.4515,4.4515,4.4515,4.4515,4.4515,4.4515,4.4515,4.4515,4.4515,4.4515,4.4515,4.4515,4.4515,4.4515,4.4515,4.4515,4.4515,4.4064,4.3613,4.3332,4.2806,4.2355,4.201,4.1991,4.1811,4.1285,4.1229,4.1004,4.0478,4.0178,4.0027,4.0027,3.9776,3.9631,3.9631,3.9712,3.9781,3.9781,4.017,4.0366,4.0385,4.1241,4.1639,3.6078,3.7498,3.8841,4.0179,4.1033,4.1516,4.1561,4.1543,4.141,4.1163,4.067,4.0256,0.0,0.0,3.946,4.1735,4.1625,4.2047,4.4378,4.4048,4.3846,0.0,0.0,0.0,0.0,0.0,0.0,4.6461,0.0,4.8816,4.8909,4.8909,4.8909,4.8909,4.8909,4.8909,4.8909,4.8909,4.8909,4.8909,4.8909,4.8909,4.8909,4.8909,4.8909,4.8909,4.8909,4.8909,4.8909,4.8909,4.8909,4.8909,4.8909,4.8909,4.8909,4.9049,4.858,4.7681,4.6304,4.5791,4.5622,4.4834,4.4571,4.4552,4.4515,4.4515,4.4515,4.4515,4.4515,4.4515,4.4515,4.4515,4.4515,4.4515,4.4515,4.4515,4.4515,4.4515,4.4515,4.4515,4.4515,4.4515,4.4515,4.4515,4.4515,4.4515,4.4515,4.4233,4.3463,4.3351,4.305,4.2216,4.2123,4.2104,4.2066,4.2074,4.2055,4.2018,4.1311,4.0879,4.0879,4.0212,3.9849,3.9849,3.9958,4.0044,4.0044,4.0881,4.1282,4.1301,4.2117,4.2496,3.8213,3.9851,4.1291,4.1641,4.189,4.2115,4.2458,4.2031,4.1481,4.1159,3.9579,3.8071,0.0,0.0,0.0,3.9533,4.146,0.0,4.4544,4.4525,0.0,0.0,0.0,4.5805,4.5875,4.6445,0.0,0.0,4.7132,4.7646,4.8834,4.8909,4.8909,4.8909,4.8909,4.8909,4.8909,4.8909,4.8909,4.8909,4.8909,4.8909,4.8909,4.8909,4.8909,4.8909,4.8909,4.8909,4.8909,4.8909,4.8909,4.8909,4.8909,4.8909,4.8909,4.9049,4.8971,4.8669,4.7797,4.7072,4.6398,4.5631,4.5397,4.5284,4.4684,4.4515,4.4515,4.4515,4.4515,4.4515,4.4515,4.4515,4.4515,4.4515,4.4515,4.4515,4.4515,4.4515,4.4515,4.4515,4.4515,4.4515,4.4515,4.4515,4.4515,4.4515,4.4515,4.4439,4.4233,4.4195,4.412,4.3895,4.3876,4.3632,4.3013,4.3062,4.2831,4.2191,4.2044,4.2002,4.2002,4.1817,4.1726,4.1726,4.1838,4.1901,4.1901,4.2233,4.2389,4.2408,4.3228,4.359,3.9511,4.0961,4.2157,4.1948,4.1906,4.1682,4.0895,4.0346,3.9564,3.8194,3.6703,0.0,0.0,0.0,0.0,0.0,0.0,0.0,4.4911,4.4929,4.5149,0.0,4.6526,0.0,4.6688,4.7094,4.7517,0.0,4.7675,4.7893,4.8802,4.8874,4.8909,4.8909,4.8909,4.8909,4.8909,4.8909,4.8909,4.8909,4.8909,4.8909,4.8909,4.8909,4.8909,4.8909,0.0,4.8909,4.8909,4.8909,4.8909,4.8909,4.8909,4.8909,4.8909,4.8996,4.9015,4.8974,4.8674,4.8253,4.7685,4.6626,4.6279,4.611,4.5284,4.504,4.4946,4.4608,4.4515,4.4515,4.4515,4.4515,4.4515,4.4515,4.4515,4.4515,4.4515,4.4515,4.4515,4.4515,4.4515,4.4515,4.4515,4.4515,4.4515,4.4515,4.4515,4.4515,4.4515,4.4515,4.4515,4.4515,4.4515,4.4327,4.3876,4.3954,4.3825,4.3335,4.3104,4.2966,4.2966,4.2671,4.2484,4.2484,4.2612,4.2694,4.2694,4.3116,4.3329,4.3348,4.4188,4.4571,4.034,4.1326,4.199,4.1604,4.1402,4.0736,3.8485,3.779,3.6858,3.4193,0.0,0.0,3.2741,0.0,3.4816,3.7881,0.0,4.1423,4.5351,4.5296,4.548,4.7076,4.7278,4.7316,4.7445,4.7408,4.774,4.8495,4.8697,4.8751,4.8787,4.8857,4.8909,4.8909,4.8909,4.8909,4.8909,4.8909,4.8909,4.8909,4.8909,4.8909,4.8909,4.8909,4.8909,4.8909,4.8909,0.0,4.8909,4.8909,4.8909,4.8909,4.8909,4.8909,4.8909,4.8909,4.8909,4.8943,4.9131,4.9197,4.8968,4.759,4.7162,4.6974,4.5998,4.5697,4.5528,4.474,4.4515,4.4515,4.4515,4.4515,4.4515,4.4515,4.4515,4.4515,4.4515,4.4515,4.4515,4.4515,4.4515,4.4515,4.4515,4.4515,4.4515,4.4515,4.4515,4.4515,4.4524,4.4515,4.4515,4.4515,4.4515,4.4542,4.4542,4.4659,4.4745,4.4745,4.4232,4.3904,4.3904,4.3292,4.2955,4.2955,4.3078,4.3138,4.3138,4.3825,4.4169,4.4188,4.4953,4.5297,4.113,4.1473,4.1604,4.1516,4.0999,4.0172,3.8784,3.7184,0.0,0.0,0.0,3.0515,2.9875,3.1957,0.0,3.6395,0.0,0.0,0.0,0.0,4.6287,0.0,0.0,0.0,0.0,0.0,0.0,0.0,0.0,4.8606,4.8787,4.8822,4.8839,4.8909,4.8909,4.8909,4.8909,4.8909,4.8909,4.8909,4.8909,4.8909,4.8909,4.8909,4.8909,4.8909,4.8909,0.0,4.8909,4.8909,4.8909,4.8909,4.8909,4.8909,4.8909,4.8909,4.8909,4.8909,4.9083,4.915,4.9062,4.8246,4.7988,4.7706,4.6167,4.5697,4.5528,4.474,4.4515,4.4515,4.4515,4.4515,4.4515,4.4515,4.4515,4.4515,4.4515,4.4515,4.4515,4.4515,4.4515,4.4515,4.4515,4.4515,4.4515,4.4515,4.4515,4.4524,4.4659,4.4551,4.4515,4.4515,4.4605,4.4659,4.4659,4.4895,4.5014,4.5014,4.5036,4.5025,4.5025,4.4913,4.4836,4.4836,4.4857,4.4857,4.4857,4.501,4.5067,4.5067,4.522,4.5297,4.115,4.1311,4.1445,4.1237,4.0277,3.8928,3.6929,0.0,0.0,0.0,0.0,2.8209,2.7824,0.0,0.0,0.0,0.0,0.0,0.0,0.0,0.0,0.0,0.0,0.0,0.0,0.0,0.0,0.0,0.0,4.8476,4.8697,4.8804,4.8874,4.8909,4.8909,4.8909,4.8909,4.8909,4.8909,4.8909,4.8909,4.8909,4.8909,4.8909,4.8909,4.8909,4.8909,0.0,4.8909,4.8909,4.8909,4.8909,4.8909,4.8909,4.8909,4.8909,4.8909,4.8909,4.9049,4.915,4.9155,4.8871,4.8821,4.8551,4.688,4.6392,4.611,4.4853,4.4515,4.4515,4.4515,4.4515,4.4515,4.4515,4.4515,4.4515,4.4515,4.4515,4.4515,4.4515,4.4515,4.4515,4.4515,4.4515,4.4515,4.4515,4.4551,4.4632,4.4685,4.4693,4.4712,4.4712,4.4764,4.4796,4.4796,4.4986,4.5103,4.5103,4.5233,4.5297,4.5297,4.5297,4.5297,4.5297,4.5297,4.5297,4.5297,4.5297,4.5297,4.5297,4.5297,4.5297,4.096,4.1192,4.1445,4.1134,3.9805,3.7927,3.5342,3.2869,0.0,0.0,0.0,2.6337,2.6337,0.0,0.0,0.0,0.0,0.0,0.0,0.0,0.0,0.0,0.0,0.0,0.0,0.0,0.0,0.0,0.0,0.0,4.8569,4.875,4.8874,4.8874,4.8909,4.8909,4.8909,4.8909,4.8909,4.8909,4.8909,4.8909,4.8909,4.8909,4.8909,4.8909,4.8909,0.0,0.0,4.8909,4.8909,4.8909,4.8909,4.8909,4.8909,4.8909,4.8909,4.8909,4.9015,4.9116,4.923,4.9276,4.9377,4.9189,4.7519,4.7012,4.6655,4.4984,4.4515,4.4515,4.4515,4.4515,4.4515,4.4515,4.4515,4.4515,4.4515,4.4515,4.4515,4.4515,4.4515,4.4515,4.4515,4.4515,4.4515,4.4515,4.4605,4.4712,4.4738,4.4846,4.4943,4.4967,4.4943,4.4943,4.4943,4.508,4.5148,4.5148,4.5235,4.5297,4.5297,4.5297,4.5297,4.5297,4.5297,4.5297,4.5297,4.5297,4.5297,4.5297,4.5297,4.5297,4.0728,4.1192,4.1472,4.1445,4.0064,3.813,3.5993,0.0,0.0,0.0,2.6041,2.5513,2.5513,2.6888,0.0,0.0,0.0,0.0,0.0,0.0,0.0,0.0,0.0,0.0,0.0,0.0,0.0,0.0,0.0,0.0,4.8513,4.8715,4.8822,4.8822,4.8874,4.8909,4.8909,4.8909,4.8909,4.8909,4.8909,4.8909,4.8909,4.8909,4.8909,4.8909,4.8909,0.0,0.0,4.8909,4.8909,4.8909,4.8909,4.8909,4.8909,4.8909,4.8909,4.8909,4.8909,4.9046,4.9197,4.923,4.9345,4.9189,4.7519,4.7012,4.6655,4.4984,4.4515,4.4515,4.4515,4.4515,4.4515,4.4515,4.4515,4.4515,4.4515,4.4515,4.4515,4.4515,4.4515,4.4515,4.4515,4.4515,4.4515,4.4515,4.4605,4.4745,4.4889,4.501,4.5125,4.5254,4.5148,4.508,4.508,4.5192,4.5297,4.5297,4.5297,4.5297,4.5297,4.5297,4.5297,4.5297,4.5297,4.5297,4.5297,4.5297,4.5297,4.5297,4.5297,4.5297,3.9836,4.0631,4.0995,4.0527,3.8993,3.6849,3.418,0.0,2.8334,2.6041,2.4975,2.449,2.4647,2.5463,2.6899,0.0,3.1072,3.3476,0.0,0.0,0.0,0.0,0.0,0.0,0.0,0.0,0.0,0.0,0.0,0.0,4.8363,4.8587,4.8732,4.8787,4.8822,4.8839,4.8909,4.8909,4.8909,4.8909,4.8909,4.8909,4.8909,4.8909,4.8909,4.8909,4.8909,0.0,0.0,4.8909,4.8909,4.8909,4.8909,4.8909,4.8909,4.8909,4.8909,4.8909,4.8996,4.9098,4.9137,4.8683,4.8628,4.8495,4.735,4.6636,4.5979,4.4834,4.4515,4.4515,4.4515,4.4515,4.4515,4.4515,4.4515,4.4515,4.4515,4.4515,4.4515,4.4515,4.4515,4.4515,4.4515,4.4515,4.4542,4.4605,4.4719,4.487,4.4991,4.5148,4.5235,4.5297,4.5235,4.5213,4.5213,4.5275,4.5297,4.5297,4.5297,4.5297,4.5297,4.5297,4.5297,4.5297,4.5297,4.5297,4.5297,4.5297,4.5297,4.5297,4.5297,4.5297,3.8622,3.9749,4.029,3.9718,3.8122,3.5962,0.0,0.0,2.7838,2.5416,2.4317,2.3837,2.3937,2.4529,2.5601,2.7382,2.9282,3.1696,3.4945,0.0,0.0,0.0,0.0,0.0,0.0,0.0,0.0,0.0,0.0,0.0,0.0,4.8364,4.8569,4.8732,4.8787,4.8822,4.8909,4.8909,4.8909,4.8909,4.8909,4.8909,4.8909,4.8909,4.8909,4.8909,4.8909,0.0,0.0,4.8909,4.8909,4.8909,4.8909,4.8909,4.8909,4.8909,4.8909,4.8909,4.9049,4.9001,4.8781,4.8265,4.7815,4.735,4.6786,4.6186,4.5528,4.474,4.4515,4.4515,4.4515,4.4515,4.4515,4.4515,4.4515,4.4515,4.4515,4.4515,4.4515,4.4515,4.4515,4.4515,4.4515,4.4515,4.4542,4.4685,4.4796,4.4943,4.508,4.5213,4.5297,4.5297,4.5297,4.5297,4.5297,4.5297,4.5297,4.5297,4.5297,4.5297,4.5297,4.5297,4.5297,4.5297,4.5297,4.5297,4.5297,4.5297,4.5297,4.5297,4.5297,4.5297,3.6955,3.839,3.9287,3.9287,3.7828,3.586,0.0,3.0803,2.7838,2.5497,2.4357,2.3714,2.3477,2.4275,2.5538,2.7139,2.9649,3.2522,3.5826,0.0,0.0,0.0,0.0,0.0,0.0,0.0,0.0,0.0,0.0,0.0,0.0,4.8035,4.8364,4.8587,4.8732,4.8822,4.8909,4.8909,4.8909,4.8909,4.8909,4.8909,4.8909,4.8909,4.8909,0.0,0.0,0.0,0.0,4.8909,4.8909,4.8909,4.8909,4.8909,4.8909,4.8909,4.8909,4.8909,4.9049,4.8628,4.8021,4.8097,4.7027,4.5716,4.5716,4.5716,4.5528,4.474,4.4515,4.4515,4.4515,4.4515,4.4515,4.4515,4.4515,4.4515,4.4515,4.4515,4.4515,4.4515,4.4515,4.4515,4.4515,4.4515,4.4542,4.4685,4.4796,4.4943,4.508,4.5213,4.5297,4.5297,4.5297,4.5297,4.5297,4.5297,4.5297,4.5297,4.5297,4.5297,4.5297,4.5297,4.5297,4.5297,4.5297,4.5297,4.5297,4.5297,4.5297,4.5297,4.5297,4.5297,3.3828,3.5478,3.6496,3.5082,3.4286,3.3137,3.0373,2.8711,2.7013,2.4428,2.3583,2.3376,2.3628,2.3804,2.5095,2.873,3.0497,0.0,0.0,0.0,0.0,0.0,0.0,0.0,0.0,0.0,0.0,0.0,0.0,0.0,0.0,4.7248,4.7715,4.8587,4.8642,4.875,4.8909,4.8909,4.8909,4.8909,4.8909,4.8909,4.8909,4.8909,4.8909,0.0,0.0,0.0,0.0,4.8909,4.8909,4.8909,4.8909,4.8909,4.8909,4.8909,4.8909,4.8869,4.8483,4.8194,4.7815,4.6791,4.6119,4.5604,4.5059,4.489,4.4834,4.459,4.4515,4.4515,4.4515,4.4515,4.4515,4.4515,4.4515,4.4515,4.4515,4.4515,4.4515,4.4515,4.4515,4.4515,4.4515,4.4597,4.4685,4.484,4.4943,4.5103,4.5213,4.5256,4.5297,4.5297,4.5297,4.5297,4.5297,4.5297,4.5297,4.5297,4.5297,4.5297,4.5297,4.5297,4.5297,4.5297,4.5297,4.5297,4.5297,4.5297,4.5297,4.5297,4.5297,4.5297,0.0,3.2317,3.3247,3.2244,3.17,3.0843,2.8561,2.7482,2.6271,2.3889,2.3312,2.3283,2.3491,2.3791,2.5023,2.8177,2.9844,0.0,0.0,0.0,0.0,0.0,0.0,0.0,0.0,0.0,0.0,0.0,0.0,0.0,0.0,4.6863,4.7335,4.8059,4.8059,4.8194,4.8421,4.8421,4.8495,4.8678,4.8678,4.875,4.8909,4.8909,4.8909,0.0,0.0,0.0,0.0,4.8909,4.8909,4.8909,4.8909,4.8909,4.8909,4.8909,4.8909,4.8813,4.8217,4.7778,4.7324,4.609,4.5491,4.5153,4.4665,4.4515,4.4515,4.4515,4.4515,4.4515,4.4515,4.4515,4.4515,4.4515,4.4515,4.4515,4.4515,4.4515,4.4515,4.4515,4.4515,4.4515,4.4515,4.4551,4.4685,4.487,4.4967,4.5103,4.5275,4.5297,4.5297,4.5297,4.5297,4.5297,4.5297,4.5297,4.5297,4.5297,4.5297,4.5297,4.5297,4.5297,4.5297,4.5297,4.5297,4.5297,4.5297,4.5297,4.5297,4.5297,4.5297,4.5338,0.0,0.0,0.0,0.0,2.9801,2.8813,2.7946,2.6892,0.0,2.3736,2.3346,2.333,2.3267,2.4177,2.529,2.6421,2.8453,0.0,0.0,0.0,0.0,0.0,0.0,0.0,0.0,0.0,0.0,0.0,0.0,0.0,0.0,4.6695,4.7026,4.7106,4.7106,4.7255,4.7591,4.7591,4.7816,4.8267,4.8267,4.8439,4.8874,4.8874,4.8874,0.0,0.0,0.0,0.0,4.8909,4.8909,4.8909,4.8909,4.8909,4.8909,4.8909,4.8872,4.8739,4.8124,4.7348,4.6501,4.5827,4.5115,4.4515,4.4515,4.4515,4.4515,4.4515,4.4515,4.4515,4.4515,4.4515,4.4515,4.4515,4.4515,4.4515,4.4515,4.4515,4.4515,4.4515,4.4515,4.4515,4.4515,4.4515,4.4605,4.4846,4.4938,4.5033,4.5275,4.5297,4.5297,4.5297,4.5297,4.5297,4.5297,4.5297,4.5297,4.5297,4.5297,4.5297,4.5297,4.5297,4.5297,4.5297,4.5297,4.5297,4.5297,4.5297,4.5297,4.5297,4.5317,4.538,2.4951,0.0,2.7495,2.6616,2.6519,2.6373,0.0,2.5066,2.4563,0.0,0.0,0.0,0.0,2.4584,2.5701,0.0,0.0,0.0,0.0,0.0,0.0,0.0,0.0,0.0,0.0,0.0,0.0,0.0,0.0,0.0,4.5615,4.5701,4.5887,4.6119,4.6119,4.6613,4.7591,4.7591,4.7674,4.7756,4.7756,4.7977,4.8458,4.8458,4.8605,0.0,0.0,0.0,4.8909,4.8909,4.8909,4.8909,4.8909,4.8909,4.8909,4.8909,4.8519,4.7902,4.7229,4.647,4.5679,4.5002,4.4665,4.4515,4.4515,4.4515,4.4515,4.4515,4.4515,4.4515,4.4515,4.4515,4.4515,4.4515,4.4515,4.4515,4.4515,4.4515,4.4515,4.4515,4.4515,4.4515,4.4515,4.4685,4.4821,4.4895,4.5061,4.5213,4.5297,4.5297,4.5297,4.5297,4.5297,4.5297,4.5297,4.5297,4.5297,4.5297,4.5297,4.5297,4.5297,4.5297,4.5297,4.5297,4.5297,4.5297,4.5297,4.5297,4.5297,4.5297,4.5419,4.5476,2.3837,2.508,2.6308,2.5906,2.5704,2.5526,2.5341,0.0,0.0,0.0,0.0,0.0,0.0,0.0,0.0,0.0,0.0,0.0,0.0,0.0,0.0,0.0,0.0,0.0,0.0,0.0,0.0,0.0,0.0,0.0,4.5423,4.5528,4.5459,4.5316,4.5416,4.5932,4.6954,4.6597,4.6731,4.7291,4.6931,4.7205,4.7995,4.821,4.8199,0.0,0.0,0.0,4.7794,4.7794,4.7794,4.7794,4.7794,4.7794,4.7794,4.7794,4.7516,4.7066,4.6371,4.5641,4.4982,4.4637,4.4515,4.4515,4.4515,4.4515,4.4515,4.4515,4.4515,4.4515,4.4515,4.4515,4.4515,4.4515,4.4515,4.4515,4.4515,4.4515,4.4515,4.4515,4.4515,4.4515,4.4515,4.4685,4.4821,4.4895,4.508,4.5213,4.5297,4.5297,4.5297,4.5297,4.5297,4.5297,4.5297,4.5297,4.5297,4.5297,4.5297,4.5297,4.5297,4.5297,4.5297,4.5297,4.5297,4.5297,4.5297,4.536,4.536,4.5297,4.5458,4.5495,2.4103,2.5069,2.6081,2.6206,2.5782,2.5507,0.0,0.0,0.0,0.0,0.0,0.0,0.0,0.0,0.0,0.0,0.0,0.0,0.0,0.0,0.0,0.0,0.0,0.0,0.0,0.0,0.0,0.0,0.0,0.0,4.5079,4.5286,4.5144,4.4501,4.4729,4.5172,4.5804,4.5238,4.5441,4.6443,4.5802,4.6086,4.7145,4.7551,4.7403,4.6856,0.0,0.0,4.6494,4.6494,4.6494,4.6494,4.6494,4.6494,4.6494,4.6494,4.642,4.6229,4.5562,4.4982,4.4515,4.4515,4.4515,4.4515,4.4515,4.4515,4.4515,4.4515,4.4515,4.4515,4.4515,4.4515,4.4515,4.4515,4.4515,4.4515,4.4515,4.4515,4.4515,4.4515,4.4515,4.4515,4.4515,4.4632,4.477,4.487,4.5014,4.517,4.5297,4.5297,4.5297,4.5297,4.5297,4.5297,4.5297,4.5297,4.5297,4.5297,4.5297,4.5297,4.5297,4.5297,4.5297,4.5297,4.5297,4.5297,4.5297,4.54,4.5419,4.5297,4.5458,4.5513,2.5461,2.6662,2.7004,2.432,2.4711,2.5454,2.4448,0.0,0.0,0.0,0.0,0.0,0.0,0.0,0.0,0.0,0.0,0.0,0.0,0.0,0.0,0.0,0.0,0.0,0.0,0.0,0.0,0.0,0.0,0.0,4.3526,4.356,4.3608,4.3586,4.3698,4.3847,4.4065,4.4085,4.4179,4.4378,4.4272,4.4483,4.5058,4.5143,4.5486,4.6085,0.0,4.6297,4.6494,4.6494,4.6494,4.6494,4.6494,4.6494,4.6494,4.6494,4.6113,4.5469,4.4811,4.4524,4.4515,4.4515,4.4515,4.4515,4.4515,4.4515,4.4515,4.4515,4.4515,4.4515,4.4515,4.4515,4.4515,4.4515,4.4515,4.4515,4.4515,4.4515,4.4515,4.4515,4.4515,4.4515,4.4515,4.4712,4.487,4.4895,4.5125,4.5275,4.5297,4.5297,4.5297,4.5297,4.5297,4.5297,4.5297,4.5297,4.5297,4.5297,4.5297,4.5297,4.5297,4.5297,4.5297,4.5297,4.5297,4.5297,4.5297,4.5338,4.5317,4.5297,4.5458,4.5566,2.4487,2.5403,2.5843,2.4479,2.597,2.7535,2.6515,0.0,0.0,0.0,0.0,0.0,0.0,0.0,0.0,0.0,0.0,0.0,0.0,0.0,0.0,0.0,0.0,0.0,0.0,0.0,0.0,0.0,0.0,0.0,4.3214,4.3264,4.3123,4.2757,4.2914,4.2847,4.2474,4.2612,4.3079,4.3904,4.35,4.3638,4.4236,4.4484,4.4718,4.491,0.0,4.5229,4.5157,4.5157,4.5157,4.5157,4.5157,4.5157,4.5157,4.5239,4.5059,4.4759,4.4485,4.444,4.4515,4.4515,4.4515,4.4515,4.4515,4.4515,4.4515,4.4515,4.4515,4.4515,4.4515,4.4515,4.4515,4.4515,4.4515,4.4515,4.4515,4.4515,4.4515,4.4515,4.4515,4.4524,4.4605,4.477,4.4919,4.501,4.517,4.5297,4.5297,4.5297,4.5297,4.5297,4.5297,4.5297,4.5297,4.5297,4.5297,4.5297,4.5297,4.5297,4.5297,4.5297,4.5297,4.5297,4.5297,4.5297,4.5297,4.538,4.538,4.5317,4.5513,4.5596,2.3786,2.4295,2.4827,2.5155,0.0,2.857,2.8627,0.0,0.0,0.0,0.0,0.0,0.0,0.0,0.0,0.0,0.0,0.0,0.0,0.0,0.0,0.0,0.0,0.0,0.0,0.0,0.0,0.0,0.0,0.0,4.2679,4.2777,4.2566,4.1977,4.2178,4.1974,4.1426,4.1515,4.2184,4.3342,4.2798,4.2816,4.336,4.3731,4.3781,4.3595,4.4071,4.4115,4.386,4.3955,4.4005,4.4005,4.4005,4.4005,4.4055,4.4165,4.4274,4.4344,4.4383,4.4458,4.4515,4.4515,4.4515,4.4515,4.4515,4.4515,4.4515,4.4515,4.4515,4.4515,4.4515,4.4515,4.4515,4.4515,4.4515,4.4515,4.4515,4.4515,4.4515,4.4515,4.4515,4.4524,4.4685,4.4796,4.4962,4.508,4.5213,4.5297,4.5297,4.5297,4.5297,4.5297,4.5297,4.5297,4.5297,4.5297,4.5297,4.5297,4.5297,4.5297,4.5297,4.5297,4.5297,4.5297,4.5297,4.5297,4.5297,4.54,4.5419,4.5341,4.5547,4.5642,2.4909,2.5216,2.5362,2.5893,0.0,0.0,2.8848,2.8851,0.0,0.0,0.0,0.0,0.0,0.0,0.0,0.0,0.0,0.0,0.0,0.0,0.0,0.0,0.0,0.0,0.0,0.0,0.0,0.0,0.0,0.0,4.1043,4.1091,4.1121,4.118,4.1267,4.1324,4.138,4.1515,4.1657,4.1762,4.171,4.171,4.178,4.1807,4.1998,4.2369,4.2747,4.3124,4.3474,4.386,4.4005,4.4005,4.4005,4.4085,4.4184,4.4274,4.4344,4.4383,4.4487,4.4515,4.4515,4.4515,4.4515,4.4515,4.4515,4.4515,4.4515,4.4515,4.4515,4.4515,4.4515,4.4515,4.4515,4.4515,4.4515,4.4515,4.4515,4.4515,4.4515,4.4515,4.4515,4.4524,4.4685,4.4796,4.4962,4.508,4.5213,4.5297,4.5297,4.5297,4.5297,4.5297,4.5297,4.5297,4.5297,4.5297,4.5297,4.5297,4.5297,4.5297,4.5297,4.5297,4.5297,4.5297,4.5297,4.5297,4.5297,4.5317,4.5362,4.5503,4.551,4.5673,2.3862,2.4505,2.5259,2.5949,0.0,0.0,0.0,0.0,0.0,0.0,0.0,0.0,0.0,0.0,0.0,0.0,0.0,0.0,0.0,0.0,0.0,0.0,0.0,0.0,0.0,0.0,0.0,0.0,0.0,0.0,0.0,4.1029,4.1076,4.1152,4.1272,4.1363,4.138,4.1515,4.1604,4.1604,4.1604,4.1604,4.1604,4.1604,4.1831,4.2198,4.236,4.2657,4.3032,4.3177,4.3406,4.366,4.3974,4.4153,4.4214,4.4314,4.4383,4.4411,4.4487,4.4515,4.4515,4.4515,4.4515,4.4515,4.4515,4.4515,4.4515,4.4515,4.4515,4.4515,4.4515,4.4515,4.4515,4.4515,4.4515,4.4515,4.4515,4.4515,4.4515,4.4515,4.4551,4.4659,4.4796,4.4938,4.508,4.5192,4.5275,4.5297,4.5297,4.5297,4.5297,4.5297,4.5297,4.5297,4.5297,4.5297,4.5297,4.5297,4.5297,4.5297,4.5297,4.5297,4.5297,4.5297,4.5297,4.5297,4.5297,4.538,4.5456,4.55,4.5665,4.584,2.301,2.3605,2.4522,0.0,0.0,0.0,0.0,0.0,0.0,0.0,0.0,0.0,0.0,0.0,0.0,0.0,0.0,0.0,0.0,0.0,0.0,0.0,0.0,0.0,0.0,0.0,0.0,0.0,0.0,0.0,0.0,4.114,4.1152,4.1255,4.1363,4.1426,4.1471,4.156,4.1604,4.1604,4.1604,4.1604,4.1604,4.1604,4.1744,4.2026,4.2115,4.236,4.2619,4.2772,4.3032,4.344,4.3828,4.4085,4.4244,4.4373,4.4411,4.4458,4.4487,4.4515,4.4515,4.4515,4.4515,4.4515,4.4515,4.4515,4.4515,4.4515,4.4515,4.4515,4.4515,4.4515,4.4515,4.4515,4.4515,4.4515,4.4515,4.4515,4.4515,4.4515,4.4605,4.4745,4.487,4.4991,4.5148,4.5275,4.5297,4.5297,4.5297,4.5297,4.5297,4.5297,4.5297,4.5297,4.5297,4.5297,4.5297,4.5297,4.5297,4.5297,4.5297,4.5297,4.5297,4.5297,4.5297,4.5338,4.536,4.5457,4.5539,4.567,4.5852,4.6134,2.2764,2.2729,0.0,0.0,0.0,0.0,0.0,0.0,0.0,0.0,0.0,0.0,0.0,0.0,0.0,0.0,0.0,0.0,0.0,0.0,0.0,0.0,0.0,0.0,0.0,0.0,0.0,0.0,0.0,0.0,0.0,4.1198,4.1255,4.138,4.138,4.1471,4.1604,4.1604,4.1604,4.1604,4.1604,4.1604,4.1604,4.1604,4.1604,4.1648,4.2008,4.2198,4.2257,4.2619,4.3032,4.3387,4.3471,4.3823,4.4314,4.4373,4.444,4.4515,4.4515,4.4515,4.4515,4.4515,4.4515,4.4515,4.4515,4.4515,4.4515,4.4515,4.4515,4.4515,4.4515,4.4515,4.4515,4.4515,4.4515,4.4515,4.4515,4.4515,4.4515,4.4515,4.4605,4.4745,4.487,4.5014,4.5148,4.5275,4.5297,4.5297,4.5297,4.5297,4.5297,4.5297,4.5297,4.5297,4.5297,4.5297,4.5297,4.5297,4.5297,4.5297,4.5297,4.5297,4.5297,4.5297,4.5297,4.536,4.5495,4.5505,4.567,4.5998,4.5998,4.659,2.279,0.0,0.0,0.0,0.0,0.0,0.0,0.0,0.0,0.0,0.0,0.0,0.0,0.0,0.0,0.0,0.0,0.0,0.0,0.0,0.0,0.0,0.0,0.0,0.0,0.0,0.0,0.0,0.0,0.0,0.0,4.1335,4.1408,4.1515,4.156,4.156,4.1604,4.1604,4.1604,4.1604,4.1604,4.1604,4.1604,4.1604,4.1604,4.1604,4.1719,4.1805,4.1788,4.2198,4.2639,4.3105,4.349,4.3936,4.4383,4.4458,4.4487,4.4515,4.4515,4.4515,4.4515,4.4515,4.4515,4.4515,4.4515,4.4515,4.4515,4.4515,4.4515,4.4515,4.4515,4.4515,4.4515,4.4515,4.4515,4.4515,4.4515,4.4515,4.4542,4.4632,4.4764,4.487,4.5033,4.5148,4.5235,4.5297,4.5297,4.5297,4.5297,4.5297,4.5297,4.5297,4.5297,4.5297,4.5297,4.5297,4.5297,4.5297,4.5297,4.5297,4.5297,4.5297,4.5297,4.5297,4.54,4.5457,4.5495,4.5699,4.6162,4.6922,4.7019,4.7546,2.3041,0.0,0.0,0.0,0.0,0.0,0.0,0.0,0.0,0.0,0.0,0.0,0.0,0.0,0.0,0.0,0.0,0.0,0.0,0.0,0.0,0.0,0.0,0.0,0.0,0.0,0.0,0.0,0.0,0.0,0.0,4.1471,4.1515,4.1604,4.1604,4.1604,4.1604,4.1604,4.1604,4.1604,4.1604,4.1604,4.1604,4.1604,4.1604,4.1604,4.1604,4.1604,4.1631,4.2074,4.2505,4.2978,4.3505,4.403,4.4411,4.4487,4.4515,4.4515,4.4515,4.4515,4.4515,4.4515,4.4515,4.4515,4.4515,4.4515,4.4515,4.4515,4.4515,4.4515,4.4515,4.4515,4.4515,4.4515,4.4515,4.4496,4.4551,4.4578,4.4632,4.4745,4.487,4.501,4.5103,4.5213,4.5297,4.5297,4.5297,4.5297,4.5297,4.5297,4.5297,4.5297,4.5297,4.5297,4.5297,4.5297,4.5297,4.5297,4.5297,4.5297,4.5297,4.5297,4.5338,4.538,4.5457,4.5549,4.5668,4.6203,4.6766,4.7348,4.7813,4.8474,0.0,0.0,0.0,0.0,0.0,0.0,0.0,0.0,0.0,0.0,0.0,0.0,0.0,0.0,0.0,0.0,0.0,0.0,0.0,0.0,0.0,0.0,0.0,0.0,0.0,0.0,0.0,0.0,0.0,0.0,0.0,4.1515,4.1604,4.1604,4.1604,4.1604,4.1604,4.1604,4.1604,4.1604,4.1604,4.1604,4.1604,4.1604,4.1604,4.1604,4.1604,4.1648,4.1675,4.2139,4.2564,4.2978,4.3572,4.4042,4.4383,4.4487,4.4515,4.4515,4.4515,4.4515,4.4515,4.4515,4.4515,4.4515,4.4515,4.4515,4.4515,4.4515,4.4515,4.4515,4.4515,4.4515,4.4515,4.4515,4.4515,4.4542,4.4685,4.4712,4.4745,4.4895,4.5033,4.5084,4.5125,4.5213,4.5297,4.5297,4.5297,4.5297,4.5297,4.5297,4.5297,4.5297,4.5297,4.5297,4.5297,4.5297,4.5297,4.5297,4.5297,4.5297,4.5297,4.5297,4.536,4.5476,4.5513,4.5635,4.588,4.684,4.7386,4.754,4.8484,4.9384,0.0,0.0,0.0,0.0,0.0,0.0,0.0,0.0,0.0,0.0,0.0,0.0,0.0,0.0,0.0,0.0,0.0,0.0,0.0,0.0,0.0,0.0,0.0,0.0,0.0,0.0,0.0,0.0,0.0,0.0,4.156,4.1604,4.1604,4.1604,4.1604,4.1604,4.1604,4.1604,4.1604,0.0,4.1604,4.1604,4.1604,4.1604,4.1604,4.1604,4.1762,4.1849,4.1892,4.2418,4.2752,4.3032,4.3572,4.3931,4.4199,4.4411,4.4515,4.4515,4.4515,4.4515,4.4515,4.4515,4.4515,4.4515,4.4515,4.4515,4.4515,4.4515,4.4515,4.4515,4.4515,4.4515,4.4515,4.4515,4.4515,4.4542,4.4685,4.4712,4.477,4.4991,4.508,4.5125,4.5254,4.5297,4.5297,4.5297,4.5297,4.5297,4.5297,4.5297,4.5297,4.5297,4.5297,4.5297,4.5297,4.5297,4.5297,4.5297,4.5297,4.5297,4.5297,4.5297,4.5317,4.5339,4.5549,4.5651,4.5671,4.6812,4.7712,4.8377,4.9352,5.0282,0.0,0.0,0.0,0.0,0.0,0.0,0.0,0.0,0.0,0.0,0.0,0.0,0.0,0.0,0.0,0.0,0.0,0.0,0.0,0.0,0.0,0.0,0.0,0.0,0.0,0.0,0.0,0.0,0.0,4.1604,4.1604,4.1604,4.1604,4.1604,4.1604,4.1604,4.1604,4.1604,4.1604,4.1604,4.1604,4.1604,4.1604,4.1604,4.1604,4.1604,4.1805,4.1874,4.1959,4.2577,4.2921,4.3051,4.3542,4.3823,4.3936,4.4199,4.4306,4.4335,4.4458,4.4515,4.4515,4.4515,4.4515,4.4515,4.4515,4.4515,4.4515,4.4515,4.4515,4.4515,4.4515,4.457,4.4605,4.4605,4.4605,4.4632,4.4789,4.4865,4.4943,4.5148,4.5192,4.5213,4.5297,4.5297,4.5297,4.5297,4.5297,4.5297,4.5297,4.5297,4.5297,4.5297,4.5297,4.5449,4.5831,4.5507,4.5449,4.5851,4.5507,4.5297,4.5297,4.566,4.5721,4.54,4.5566,4.568,4.5752,4.7252,4.8226,4.8736,5.0084,5.0965,0.0,0.0,0.0,0.0,0.0,0.0,0.0,0.0,0.0,0.0,0.0,0.0,0.0,0.0,0.0,0.0,0.0,0.0,0.0,0.0,0.0,0.0,0.0,0.0,0.0,0.0,0.0,0.0,0.0,4.1604,4.1604,4.1604,4.1604,4.1604,4.1604,4.1604,4.1604,4.1604,4.1604,4.1604,4.1604,4.1604,4.1604,4.1604,4.1604,4.1604,4.1805,4.1934,4.2002,4.2714,4.2995,4.3032,4.3493,4.3679,4.3679,4.3968,4.4091,4.414,4.4411,4.4515,4.4515,4.4515,4.4515,4.4515,4.4515,4.4515,4.4515,4.4515,4.4515,4.4524,4.4524,4.4632,4.4719,4.4719,4.4745,4.4796,4.4895,4.5014,4.5148,4.5256,4.5297,4.5297,4.5297,4.5297,4.5297,4.5297,4.5297,4.5297,4.5297,4.5297,4.5354,4.5488,4.5507,4.5831,4.6672,4.6118,4.5946,4.6481,4.587,4.543,4.5297,4.6061,4.6183,4.5494,4.5719,4.5982,4.6298,4.7865,4.8768,4.9048,5.064,5.1394,0.0,0.0,0.0,0.0,0.0,0.0,0.0,0.0,0.0,0.0,0.0,0.0,0.0,0.0,0.0,0.0,0.0,0.0,0.0,0.0,0.0,0.0,0.0,0.0,0.0,0.0,0.0,0.0,4.1604,4.1604,4.1604,4.1604,4.1604,4.1604,4.1604,4.1604,4.1604,4.1604,4.1604,4.1604,4.1604,4.1604,4.1604,4.1604,4.1604,4.1604,4.1805,4.2019,4.2287,4.2808,4.2976,4.2957,4.3511,4.3545,4.3408,4.3905,4.4091,4.414,4.4411,4.4515,4.4515,4.4515,4.4515,4.4515,4.4515,4.4515,4.4515,4.4515,4.4578,4.4685,4.4685,4.477,4.487,4.487,4.4943,4.5038,4.508,4.5103,4.5148,4.5256,4.5297,4.5297,4.5297,4.5297,4.5297,4.5297,4.5297,4.5297,4.5297,4.5297,4.5564,4.6271,4.6347,4.6691,4.7551,4.7532,4.7188,4.6538,4.6405,4.6023,4.5316,4.6061,4.6185,4.5522,4.6368,4.7182,4.7893,4.8485,4.9133,4.9854,5.0908,5.1394,0.0,0.0,0.0,0.0,0.0,0.0,0.0,0.0,0.0,0.0,0.0,0.0,0.0,0.0,0.0,0.0,0.0,0.0,0.0,0.0,0.0,0.0,0.0,0.0,0.0,0.0,0.0,0.0,4.1604,4.1604,4.1604,4.1604,4.1604,4.1604,4.1604,4.1604,4.1604,4.1604,4.1604,4.1604,4.1604,4.1604,4.1604,4.1719,4.1719,4.1604,4.1977,4.2187,4.2328,4.2768,4.292,4.292,4.316,4.3267,4.3338,4.3744,4.3968,4.414,4.4411,4.4515,4.4515,4.4515,4.4515,4.4515,4.4515,4.4551,4.4605,4.4605,4.4712,4.4796,4.4796,4.4895,4.5014,4.5014,4.5125,4.5213,4.5213,4.5213,4.5213,4.5297,4.5297,4.5297,4.5297,4.5297,4.5297,4.5297,4.5297,4.5297,4.5297,4.5679,4.6118,4.6462,4.694,4.7589,4.8449,4.8086,4.7646,4.7308,4.683,4.62,4.5399,4.6643,4.7031,4.6356,4.7233,4.7685,4.7703,4.888,4.9666,5.0073,5.0976,5.1394,0.0,0.0,0.0,0.0,0.0,0.0,0.0,0.0,0.0,0.0,0.0,0.0,0.0,0.0,0.0,0.0,0.0,0.0,0.0,0.0,0.0,0.0,0.0,0.0,0.0,0.0,0.0,0.0,4.1604,4.1604,4.1604,4.1604,4.1604,4.1604,4.1604,4.1604,4.1604,4.1604,4.1604,4.1604,4.1604,4.1648,4.1675,4.1849,4.1849,4.1823,4.2163,4.2328,4.2409,4.2709,4.2844,4.2882,4.2882,4.305,4.3338,4.3612,4.3873,4.414,4.4411,4.4515,4.4515,4.4515,4.4515,4.4515,4.4524,4.4632,4.4712,4.4738,4.4846,4.4943,4.4943,4.5057,4.5148,4.5148,4.5233,4.5297,4.5297,4.5297,4.5297,4.5297,4.5297,4.5297,4.5297,4.5297,4.5297,4.5297,4.5297,4.5373,4.5583,4.6137,4.6672,4.7111,4.7742,4.8487,4.9328,4.8812,4.8376,4.8209,4.743,4.6628,4.5802,4.7049,4.7422,4.6751,4.7763,4.8192,4.7965,4.9133,4.9951,5.0457,5.1102,5.1394,0.0,0.0,0.0,0.0,0.0,0.0,0.0,0.0,0.0,0.0,0.0,0.0,0.0,0.0,0.0,0.0,0.0,0.0,0.0,0.0,0.0,0.0,0.0,0.0,0.0,0.0,0.0,0.0,4.1604,4.1604,4.1604,4.1604,4.1604,4.1604,4.1604,4.1604,4.1604,4.1604,4.1604,4.1604,4.1604,4.1675,4.1874,4.1892,4.2019,4.2246,4.2287,4.2409,4.2609,4.2609,4.2709,4.2882,4.2882,4.305,4.3338,4.3612,4.3873,4.414,4.4411,4.4515,4.4515,4.4515,4.4515,4.4524,4.4659,4.4693,4.4738,4.4846,4.4986,4.5103,4.5103,4.5192,4.5297,4.5297,4.5297,4.5297,4.5297,4.5297,4.5297,4.5297,4.5297,4.5297,4.5297,4.5297,4.5297,4.5297,4.5297,4.5583,4.6347,4.6481,4.7131,4.8793,4.9003,4.9347,5.0168,5.0206,4.9847,4.9092,4.8414,4.7659,4.6844,4.698,4.6748,4.6072,4.7726,4.897,4.9761,4.9162,4.9712,5.1336,5.1375,5.1394,0.0,0.0,0.0,0.0,0.0,0.0,0.0,0.0,0.0,0.0,0.0,0.0,0.0,0.0,0.0,0.0,0.0,0.0,0.0,0.0,0.0,0.0,0.0,0.0,0.0,0.0,0.0,0.0,0.0,4.0884,4.0884,4.0411,4.013,4.013,4.013,4.013,4.013,4.0639,4.0954,4.1082,4.1576,4.1934,4.2145,4.231,4.2391,4.249,4.2631,4.2631,4.2609,4.2747,4.2806,4.2882,4.2882,4.316,4.3579,4.3646,4.3986,4.4383,4.4487,4.4515,4.4515,4.4515,4.4515,4.4542,4.4659,4.4745,4.4846,4.4991,4.5125,4.5213,4.5213,4.5256,4.5297,4.5297,4.5297,4.5297,4.5297,4.5297,4.5297,4.5297,4.5297,4.5297,4.5297,4.5297,4.5297,4.5297,4.5297,4.5392,4.5679,4.6175,4.6959,4.8143,4.8774,4.9213,4.95,4.9597,4.9086,4.7778,4.7542,4.7099,4.628,4.6822,4.6795,4.6091,4.7233,4.8275,4.9181,4.9493,5.0243,5.1394,5.1394,5.1394,2.0385,0.0,0.0,0.0,0.0,0.0,0.0,0.0,0.0,0.0,0.0,0.0,0.0,0.0,0.0,0.0,0.0,0.0,0.0,0.0,0.0,0.0,0.0,0.0,0.0,0.0,0.0,0.0,0.0,0.0,4.0095,3.9585,3.9305,3.9305,3.9305,3.9346,3.9388,3.994,4.0288,4.0494,4.1257,4.1754,4.2016,4.2404,4.2649,4.2709,4.2844,4.2806,4.2709,4.2844,4.2882,4.2882,4.2882,4.3232,4.3679,4.3612,4.3936,4.4487,4.4411,4.4411,4.4515,4.4515,4.4515,4.4524,4.4712,4.4821,4.4919,4.5125,4.5213,4.5297,4.5297,4.5297,4.5297,4.5297,4.5297,4.5297,4.5297,4.5297,4.5297,4.5297,4.5297,4.5297,4.5297,4.5297,4.5297,4.5297,4.5297,4.5392,4.566,4.6175,4.6844,4.7723,4.8315,4.8659,4.8659,4.8755,4.8375,4.7334,4.7163,4.6865,4.6366,4.6698,4.666,4.617,4.6735,4.7479,4.8408,4.9247,5.0106,5.0965,5.1258,5.1394,0.0,0.0,0.0,0.0,0.0,0.0,0.0,0.0,0.0,0.0,0.0,0.0,0.0,0.0,0.0,0.0,0.0,0.0,0.0,0.0,0.0,0.0,0.0,0.0,0.0,0.0,0.0,0.0,3.9287,3.9269,3.9269,3.9252,3.9234,3.9252,3.9252,3.9359,3.9545,3.9562,3.966,3.9893,4.0699,4.1193,4.1441,4.2214,4.2691,4.2882,4.2882,4.2882,4.2882,4.2882,4.2882,4.2882,4.2882,4.3232,4.3646,4.3408,4.3809,4.444,4.4199,4.4277,4.4515,4.4515,4.4515,4.4551,4.484,4.4895,4.4962,4.5213,4.5297,4.5297,4.5297,4.5297,4.5297,4.5297,4.5297,4.5297,4.5297,4.5297,4.5297,4.5297,4.5297,4.5297,4.5297,4.5297,4.5297,4.5297,4.5297,4.5583,4.6366,4.6462,4.6806,4.7685,4.7761,4.7761,4.7761,4.7824,4.7888,4.7932,4.7395,4.7098,4.7151,4.6612,4.63,4.63,4.63,4.6729,4.7569,4.8408,4.9247,5.0126,5.0984,5.1394,1.9837,0.0,0.0,0.0,0.0,0.0,0.0,0.0,0.0,0.0,0.0,0.0,0.0,0.0,0.0,0.0,0.0,0.0,0.0,0.0,0.0,0.0,0.0,0.0,0.0,0.0,0.0,0.0,3.8778,3.8444,3.8444,3.7918,3.7699,3.7835,3.7874,3.7934,3.8162,3.8658,3.9075,3.9317,4.007,4.0847,4.1612,4.1829,4.2282,4.2882,4.2882,4.2882,4.2882,4.2882,4.2882,4.2882,4.2882,4.3087,4.3408,4.3338,4.3712,4.4199,4.414,4.4277,4.4515,4.4515,4.4515,4.4551,4.484,4.4895,4.4962,4.5213,4.5297,4.5297,4.5297,4.5297,4.5297,4.5297,4.5297,4.5297,4.5297,4.5297,4.5297,4.5297,4.5297,4.5297,4.5297,4.5297,4.5297,4.5297,4.5297,4.5373,4.5602,4.5621,4.5946,4.6768,4.6863,4.6885,4.6925,4.7089,4.6947,4.6362,4.6268,4.627,4.6391,4.6242,4.6206,4.63,4.63,4.6417,4.6651,4.8096,4.9247,5.0126,5.0984,5.1394,2.0385,0.0,0.0,0.0,0.0,0.0,0.0,0.0,0.0,0.0,0.0,0.0,0.0,0.0,0.0,0.0,0.0,0.0,0.0,0.0,0.0,0.0,0.0,0.0,0.0,3.8339,3.8339,3.8339,3.79,3.7637,3.7637,3.7294,3.7182,3.7314,3.7372,3.7521,3.7739,3.8151,3.8492,3.8706,3.95,4.0185,4.0763,4.1071,4.1651,4.2393,4.2393,4.2592,4.2882,4.2882,4.2882,4.2882,4.2882,4.305,4.3267,4.316,4.3526,4.4091,4.3968,4.417,4.4515,4.4515,4.4515,4.4551,4.484,4.4895,4.4962,4.5213,4.5297,4.5297,4.5297,4.5297,4.5297,4.5297,4.5297,4.5297,4.5297,4.5297,4.5297,4.5297,4.5297,4.5297,4.5297,4.5297,4.5297,4.5297,4.5297,4.5297,4.5297,4.5297,4.5489,4.6007,4.6046,4.6066,4.6088,4.6242,4.6133,4.5723,4.584,4.5969,4.6098,4.615,4.6216,4.63,4.63,4.6475,4.6846,4.8154,4.9423,5.0653,5.116,5.1394,2.1281,2.1703,0.0,0.0,0.0,0.0,2.5542,2.5735,0.0,0.0,0.0,0.0,0.0,0.0,0.0,0.0,0.0,0.0,0.0,0.0,0.0,0.0,0.0,0.0,0.0,3.6987,3.6987,3.6987,3.7027,3.7009,3.7009,3.722,3.7334,3.739,3.7558,3.7739,3.7934,3.7934,3.8003,3.8192,3.8916,3.9297,3.9405,4.0093,4.0818,4.156,4.1669,4.2122,4.2755,4.2846,4.2882,4.2882,4.2882,4.305,4.3267,4.3032,4.3424,4.4079,4.3809,4.4079,4.4515,4.4515,4.4524,4.4578,4.4821,4.4919,4.4986,4.5213,4.5297,4.5297,4.5297,4.5297,4.5297,4.5297,4.5297,4.5297,4.5297,4.5297,4.5297,4.5297,4.5297,4.5297,4.5297,4.5297,4.5297,4.5297,4.5297,4.5297,4.5297,4.5297,4.5317,4.5398,4.5398,4.5419,4.5419,4.5494,4.558,4.5713,4.5832,4.5969,4.6098,4.6211,4.6277,4.63,4.63,4.6729,4.7608,4.8408,4.9657,5.1258,5.1355,5.1394,2.2874,0.0,0.0,0.0,0.0,0.0,0.0,2.4317,0.0,0.0,0.0,0.0,0.0,0.0,0.0,0.0,0.0,0.0,0.0,0.0,0.0,0.0,0.0,0.0,0.0,3.6987,3.6987,3.6987,3.7143,3.722,3.722,3.7447,3.7631,3.7793,3.7828,3.7934,3.8158,3.8158,3.8158,3.8192,3.8355,3.8753,3.9387,3.955,4.0021,4.0782,4.1433,4.1814,4.1995,4.2629,4.2882,4.2882,4.2882,4.305,4.3303,4.3232,4.3594,4.4091,4.403,4.4229,4.4515,4.4632,4.4659,4.4712,4.4967,4.5057,4.5084,4.5235,4.5297,4.5297,4.5297,4.5297,4.5297,4.5297,4.5297,4.5297,4.5297,4.5297,4.5297,4.5297,4.5297,4.5297,4.5297,4.5297,4.5297,4.5297,4.5297,4.5297,4.5297,4.5297,4.5317,4.5398,4.5398,4.5477,4.5626,4.5658,4.5728,4.5856,4.5889,4.5969,4.6098,4.6131,4.6181,4.63,4.63,4.6729,4.7608,4.8408,4.9345,5.0379,5.1063,5.1394,0.0,0.0,0.0,2.4953,0.0,0.0,0.0,0.0,0.0,0.0,0.0,0.0,0.0,0.0,0.0,0.0,0.0,0.0,0.0,0.0,0.0,0.0,0.0,0.0,0.0,3.5925,3.6158,3.6659,3.6769,3.702,3.7429,3.7631,3.7793,3.7917,3.8003,3.809,3.8192,3.8192,3.8192,3.8192,3.8192,3.8391,3.879,3.879,3.9206,3.9967,4.0383,4.0999,4.1741,4.214,4.2538,4.2882,4.2882,4.305,4.3303,4.3303,4.3627,4.4091,4.4091,4.4277,4.4524,4.4659,4.4712,4.4764,4.5033,4.5148,4.5213,4.5297,4.5297,4.5297,4.5297,4.5297,4.5297,4.5297,4.5297,4.5297,4.5297,4.5297,4.5297,4.5297,4.5297,4.5297,4.5297,4.5297,4.5317,4.5338,4.5338,4.5359,4.5341,4.5341,4.538,4.5438,4.5513,4.5596,4.5752,4.5783,4.5863,4.5987,4.5996,4.6057,4.6187,4.6206,4.624,4.63,4.63,4.6515,4.6944,4.8232,4.9286,5.0126,5.0984,5.1398,0.0,0.0,0.0,0.0,0.0,2.5607,0.0,0.0,0.0,2.5183,0.0,0.0,0.0,0.0,0.0,0.0,0.0,0.0,0.0,0.0,0.0,0.0,0.0,0.0,0.0,3.45,3.4959,3.6061,3.5934,3.6238,3.7381,3.763,3.779,3.7969,3.8124,3.8192,3.8192,3.8192,3.8192,3.8192,3.8192,3.8192,3.8192,3.8192,3.8536,3.917,3.9315,4.0111,4.1289,4.1596,4.2085,4.2683,4.2828,4.305,4.3303,4.3303,4.3627,4.4091,4.4091,4.4277,4.4542,4.4685,4.477,4.4865,4.5061,4.5213,4.5297,4.5297,4.5297,4.5297,4.5297,4.5297,4.5297,4.5297,4.5297,4.5297,4.5297,4.5297,4.5297,4.5297,4.5297,4.5297,4.5317,4.5317,4.5338,4.5399,4.5399,4.54,4.54,4.54,4.5438,4.553,4.5645,4.5747,4.5841,4.5897,4.5996,4.6138,4.6138,4.6181,4.63,4.63,4.63,4.63,4.63,4.63,4.63,4.8057,4.9228,4.9891,5.0926,5.1402,0.0,0.0,0.0,0.0,2.8013,0.0,0.0,0.0,2.5458,2.4199,0.0,0.0,0.0,0.0,0.0,0.0,0.0,0.0,0.0,0.0,0.0,0.0,0.0,0.0,0.0,3.3463,3.3692,3.5223,3.416,3.4469,3.6678,3.6973,3.7449,3.8122,3.8192,3.8192,3.8192,3.8192,3.8192,3.8192,3.8192,3.8192,3.8192,3.8192,3.8246,3.8373,3.9079,3.9496,3.9767,4.1144,4.1759,4.1922,4.2611,4.305,4.3303,4.3303,4.3627,4.4091,4.4091,4.4277,4.4524,4.4815,4.5057,4.5254,4.5275,4.5297,4.5297,4.5297,4.5297,4.5297,4.5297,4.5297,4.5297,4.5297,4.5297,4.5297,4.5297,4.5297,4.5297,4.5297,4.5297,4.5317,4.5378,4.5398,4.5399,4.54,4.54,4.54,4.54,4.54,4.5475,4.5658,4.5703,4.579,4.606,4.6064,4.6138,4.6273,4.6273,4.6277,4.63,4.63,4.63,4.63,4.63,4.63,4.63,4.806,4.8958,4.9072,5.0653,5.1394,0.0,0.0,0.0,0.0,0.0,0.0,2.5553,0.0,2.4707,0.0,0.0,0.0,0.0,0.0,0.0,0.0,0.0,0.0,0.0,0.0,0.0,0.0,0.0,0.0,0.0,0.0,0.0,0.0,3.2919,3.3418,3.5367,3.6005,3.6671,3.7468,3.7486,3.7721,3.8192,3.8192,3.8192,3.8192,3.8192,3.8192,3.8192,3.8192,3.8192,3.821,3.8554,3.8952,3.9441,4.0093,4.0908,4.1741,4.2085,4.265,4.3303,4.3303,4.3627,4.4091,4.4091,4.4317,4.4659,4.4919,4.5148,4.5297,4.5297,4.5297,4.5297,4.5297,4.5297,4.5297,4.5297,4.5297,4.5297,4.5297,4.5297,4.5297,4.5297,4.5297,4.5297,4.5297,4.5338,4.5359,4.54,4.5399,4.5419,4.5457,4.5476,4.5494,4.5613,4.5629,4.5688,4.5796,4.5886,4.5969,4.6091,4.6176,4.624,4.63,4.63,4.63,4.63,4.63,4.6306,4.6295,4.6295,4.6295,4.6295,4.7536,4.8411,4.8939,5.0614,5.1405,2.9608,0.0,0.0,0.0,0.0,0.0,0.0,0.0,0.0,0.0,0.0,0.0,0.0,0.0,0.0,0.0,0.0,0.0,0.0,0.0,0.0,0.0,0.0,0.0,0.0,0.0,0.0,0.0,0.0,3.1872,3.4154,3.4824,3.562,3.6635,3.687,3.7268,3.7848,3.8083,3.8192,3.8192,3.8192,3.8192,3.8192,3.8192,3.8192,3.8192,3.8192,3.8518,3.9079,3.9297,4.0184,4.1415,4.1633,4.2305,4.3196,4.3267,4.3627,4.4109,4.4151,4.4439,4.4846,4.5057,4.5192,4.5297,4.5297,4.5297,4.5297,4.5297,4.5297,4.5297,4.5297,4.5297,4.5297,4.5297,4.5297,4.5297,4.5297,4.5317,4.5317,4.5317,4.5379,4.54,4.5419,4.5438,4.5458,4.5584,4.5582,4.5629,4.5802,4.5829,4.5859,4.5949,4.6049,4.6105,4.6144,4.6245,4.63,4.63,4.63,4.63,4.63,4.63,4.6306,4.6297,4.6303,4.6305,4.6305,4.7171,4.806,4.8939,5.039,5.1185,0.0,0.0,0.0,2.9375,0.0,0.0,0.0,0.0,2.5914,0.0,0.0,0.0,0.0,0.0,2.5878,2.5117,2.5009,0.0,0.0,0.0,0.0,0.0,0.0,0.0,0.0,0.0,0.0,0.0,0.0,0.0,3.323,3.3465,3.4208,3.5802,3.658,3.6997,3.7033,3.7794,3.8192,3.8192,3.8192,3.8192,3.8192,3.8192,3.8192,3.8192,3.8192,3.8192,3.8282,3.9079,3.9858,4.0637,4.1415,4.2194,4.2957,4.3196,4.3627,4.4121,4.425,4.4636,4.5103,4.5103,4.5192,4.5297,4.5297,4.5297,4.5297,4.5297,4.5297,4.5297,4.5297,4.5297,4.5297,4.5297,4.5297,4.5297,4.5297,4.5338,4.5398,4.5398,4.54,4.5419,4.5495,4.5495,4.5565,4.5771,4.58,4.5835,4.5878,4.5899,4.5959,4.6091,4.6098,4.6144,4.6277,4.63,4.63,4.63,4.63,4.63,4.63,4.63,4.63,4.63,4.6306,4.6308,4.6308,4.7174,4.806,4.8919,4.9821,5.0664,0.0,0.0,3.3137,3.1254,0.0,0.0,0.0,0.0,0.0,0.0,0.0,0.0,0.0,0.0,2.595,2.5135,2.5009,2.4719,0.0,0.0,0.0,0.0,0.0,0.0,0.0,0.0,0.0,0.0,2.7725,0.0,0.0,3.2035,3.3103,3.419,3.4987,3.591,3.6979,3.7283,3.7649,3.8192,3.8192,3.8192,3.8192,3.8192,3.8192,3.8192,3.8192,3.8192,3.821,3.8482,3.9061,3.9858,4.0619,4.1506,4.243,4.2869,4.3406,4.4053,4.4636,4.4948,4.5125,4.5192,4.5256,4.5297,4.5297,4.5297,4.5297,4.5297,4.5297,4.5297,4.5297,4.5297,4.5297,4.5297,4.5297,4.5317,4.5378,4.5379,4.5399,4.54,4.5438,4.5457,4.5495,4.5616,4.5727,4.58,4.5841,4.5908,4.6024,4.6041,4.6072,4.6216,4.624,4.6245,4.63,4.63,4.63,4.63,4.63,4.63,4.63,4.63,4.629,4.6306,4.6308,4.6308,4.6308,4.66,4.7478,4.8903,4.9199,5.0078,3.3379,3.386,0.0,3.2634,3.1488,0.0,2.7597,0.0,0.0,0.0,0.0,0.0,0.0,0.0,2.6475,2.595,2.5371,2.4719,0.0,0.0,0.0,0.0,0.0,0.0,0.0,0.0,2.4846,2.6439,0.0,0.0,0.0,0.0,3.2144,3.294,3.4027,3.5095,3.6127,3.6689,3.725,3.7757,3.8047,3.8192,3.8192,3.8192,3.8192,3.8192,3.8192,3.8192,3.8192,3.8192,3.8697,3.9494,4.0255,4.1263,4.2304,4.3027,4.3703,4.4411,4.4924,4.5125,4.5192,4.5275,4.5297,4.5297,4.5297,4.5297,4.5297,4.5297,4.5297,4.5317,4.5317,4.5338,4.5338,4.5339,4.5339,4.536,4.538,4.5438,4.5438,4.5438,4.5495,4.5549,4.5599,4.5733,4.5841,4.5841,4.5908,4.6013,4.615,4.6176,4.6211,4.6296,4.63,4.63,4.63,4.63,4.63,4.63,4.63,4.6306,4.6297,4.6297,4.6303,4.6308,4.6308,4.6308,4.6308,4.6308,4.7031,4.8437,4.8437,4.918]},{"header":{"parameterUnit":"m.s-1","parameterCategory":1,"la1":30.6,"la2":29.2853,"lo1":-89.7004,"lo2":-87.6739,"dy":0.0162,"dx":0.0183,"nx":112,"ny":82,"refTime":"2024-05-23T12:00:00:Z","depth":0,"parameterNumber":3,"parameterNumberName":"V-component_of_WINDS"},"data":[0.0,0.0,0.0,0.0,0.0,0.0,0.0,0.0,0.0,0.0,0.0,0.0,0.0,0.0,0.0,0.0,0.0,0.0,0.0,0.0,0.0,0.0,0.0,0.0,0.0,0.0,0.0,0.0,0.0,0.0,0.0,0.0,0.0,0.0,0.0,0.0,0.0,0.0,0.0,0.0,0.0,0.0,0.0,0.0,0.0,0.0,0.0,0.0,0.0,0.0,0.0,0.0,0.0,0.0,0.0,0.0,0.0,0.0,0.0,0.0,0.0,0.0,0.0,0.0,0.0,0.0,0.0,0.0,0.0,0.0,0.0,0.0,0.0,0.0,0.0,0.0,0.0,0.0,0.0,0.0,0.0,0.0,0.0,0.0,0.0,0.0,0.0,0.0,0.0,0.0,0.0,0.6311,0.7257,0.7957,0.8418,0.8632,0.8544,0.8136,0.0,0.0,0.0,0.0,0.0,0.0,0.0,0.0,0.0,0.0,0.0,0.0,0.0,0.0,0.0,0.0,0.0,0.0,0.0,0.0,0.0,0.0,0.0,0.0,0.0,0.0,0.0,0.0,0.0,0.0,0.0,0.0,0.0,0.0,0.0,0.0,0.0,0.0,0.0,0.0,0.0,0.0,0.0,0.0,0.0,0.0,0.0,0.0,0.0,0.0,0.0,0.0,0.0,0.0,0.0,0.0,0.0,0.0,0.0,0.0,0.0,0.0,0.0,0.0,0.0,0.0,0.0,0.0,0.0,0.0,0.0,0.0,0.0,0.0,0.0,0.0,0.0,0.0,0.0,0.0,0.0,0.0,0.0,0.0,0.0,0.0,0.0,0.0,0.0,0.0,0.0,0.0,0.0,0.0,0.0,0.0,0.0,0.0,0.0,0.0,0.0,0.0,0.0,0.0,0.6039,0.8234,0.912,0.9504,0.9508,0.9474,0.9139,0.8309,0.0,0.0,0.0,0.0,0.0,0.0,0.0,0.0,0.0,0.0,0.0,0.0,0.0,0.0,0.0,0.0,0.0,0.0,0.0,0.0,0.0,0.0,0.0,0.0,0.0,0.0,0.0,0.0,0.0,0.0,0.0,0.0,0.0,0.0,0.0,0.0,0.0,0.0,0.0,0.0,0.0,0.0,0.0,0.0,0.0,0.0,0.0,0.0,0.0,0.0,0.0,0.0,0.0,0.0,0.0,0.0,0.0,0.0,0.0,0.0,0.0,0.0,0.0,0.0,0.0,0.0,0.0,0.0,0.0,0.0,0.0,0.0,0.0,0.0,0.0,0.0,0.0,0.0,0.0,0.0,0.0,0.0,0.0,0.0,0.0,0.0,0.0,0.0,0.0,0.0,0.0,0.0,0.0,0.0,0.0,0.0,0.0,0.0,0.0,0.0,0.0,0.0,0.0,0.5817,0.7169,0.8869,0.9691,0.998,0.974,0.9742,0.9354,0.8374,0.7856,0.0,0.0,0.0,0.0,0.0,0.0,0.0,0.0,0.0,0.0,0.0,0.0,0.0,0.0,0.0,0.0,0.0,0.0,0.0,0.0,0.0,0.0,0.0,0.0,0.0,0.0,0.0,0.0,0.0,0.0,0.0,0.0,0.0,0.0,0.0,0.0,0.0,0.0,0.0,0.0,0.0,0.0,0.0,0.0,0.0,0.0,0.0,0.0,0.0,0.0,0.0,0.0,0.0,0.0,0.0,0.0,0.0,0.0,0.0,0.0,0.0,0.0,0.0,0.0,0.0,0.0,0.0,0.0,0.0,0.0,0.0,0.0,0.0,0.0,0.0,0.0,0.0,0.0,0.0,0.0,0.0,0.0,0.0,0.0,0.0,0.0,0.0,0.0,0.0,0.0,0.0,0.0,0.0,0.0,0.0,0.0,0.0,0.0,0.0,0.0,0.0,0.0,0.7007,0.8153,0.9072,0.9778,1.0098,0.9746,0.9858,0.9478,0.8379,0.7796,0.0,0.0,0.0,0.0,0.0,0.0,0.0,0.0,0.0,0.0,0.0,0.0,0.0,0.0,0.0,0.0,0.0,0.0,0.0,0.0,0.0,0.0,0.0,0.0,0.0,0.0,0.0,0.0,0.0,0.0,0.0,0.0,0.0,0.0,0.0,0.0,0.0,0.0,0.0,0.0,0.0,0.0,0.0,0.0,0.0,0.0,0.0,0.0,0.0,0.0,0.0,0.0,0.0,0.0,0.0,0.0,0.0,0.0,0.0,0.0,0.0,0.0,0.0,0.0,0.0,0.0,0.0,0.0,0.0,0.0,0.0,0.0,0.0,0.0,0.0,0.0,0.0,0.0,0.0,0.0,0.0,0.0,0.0,0.0,0.0,0.0,0.0,0.0,0.0,0.0,0.0,0.0,0.0,0.0,0.0,0.0,0.0,0.0,0.0,0.0,0.0,0.0,0.7541,0.8915,0.9174,0.9778,1.0098,0.9746,0.9633,0.9226,0.8368,0.7518,0.0,0.0,0.0,0.0,0.0,0.0,0.0,0.0,0.0,0.0,0.0,0.0,0.0,0.0,0.0,0.0,0.0,0.0,0.0,0.0,0.0,0.0,0.0,0.0,0.0,0.0,0.0,0.0,0.0,0.0,0.0,0.0,0.0,0.0,0.0,0.0,0.0,0.0,0.0,0.0,0.0,0.0,0.0,0.0,0.0,0.0,0.0,0.0,0.0,0.0,0.0,0.0,0.0,0.0,0.0,0.0,0.0,0.0,0.0,0.0,0.0,0.0,0.0,0.0,0.0,0.0,0.0,0.0,0.0,0.0,0.0,0.0,0.0,0.0,0.0,0.0,0.0,0.0,0.0,0.0,0.0,0.0,0.0,0.0,0.0,0.0,0.0,0.0,0.0,0.0,0.0,0.0,0.0,0.0,0.0,0.0,0.0,0.0,0.0,0.0,0.0,0.0,0.7212,0.8446,0.0,0.9704,0.995,0.9752,0.9691,0.9239,0.8374,0.0,0.0,0.0,0.0,0.0,0.0,0.0,0.0,0.0,0.0,0.0,0.0,0.0,0.0,0.0,0.0,0.0,0.0,0.0,0.0,0.0,0.0,0.0,0.0,0.0,0.0,0.0,0.0,0.0,0.0,0.0,0.0,0.0,0.0,0.0,0.0,0.0,0.0,0.0,0.0,0.0,0.0,0.0,0.0,0.0,0.0,0.0,0.0,0.0,0.0,0.0,0.0,0.0,0.0,0.0,0.0,0.0,0.0,0.0,0.0,0.0,0.0,0.0,0.0,0.0,0.0,0.0,0.0,0.0,0.0,0.0,0.0,0.0,0.0,0.0,0.0,0.0,0.0,0.0,0.0,0.0,0.0,0.0,0.0,0.0,0.0,0.0,0.0,0.0,0.0,0.0,0.0,0.0,0.0,0.0,0.0,0.0,0.0,0.0,0.0,0.0,0.0,0.616,0.7409,0.8534,0.0,0.968,0.9876,0.9682,0.9559,0.9071,0.8264,0.0,0.0,0.0,0.0,0.0,0.0,0.0,0.0,0.0,0.0,0.0,0.0,0.0,0.0,0.0,0.0,0.0,0.0,0.0,0.0,0.0,0.0,0.0,0.0,0.0,0.0,0.0,0.0,0.0,0.0,0.0,0.0,0.0,0.0,0.0,0.0,0.0,0.0,0.0,0.0,0.0,0.0,0.0,0.0,0.0,0.0,0.0,0.0,0.0,0.0,0.0,0.0,0.0,0.0,0.0,0.0,0.0,0.0,0.0,0.0,0.0,0.0,0.0,0.0,0.0,0.0,0.0,0.0,0.0,0.0,0.0,0.0,0.0,0.0,0.0,0.0,0.0,0.0,0.0,0.0,0.0,0.0,0.0,0.0,0.0,0.0,0.0,0.0,0.0,0.0,0.0,0.0,0.0,0.0,0.0,0.0,0.0,0.0,0.0,0.0,0.0,0.0,0.6983,0.8351,0.9297,0.955,0.9782,0.9876,0.9682,0.9241,0.8697,0.0,0.0,0.0,0.0,0.0,0.0,0.0,0.0,0.0,0.0,0.0,0.0,0.0,0.0,0.0,0.0,0.0,0.0,0.0,0.0,0.0,0.0,0.0,0.0,0.0,0.0,0.0,0.0,0.0,0.0,0.0,0.0,0.0,0.0,0.0,0.0,0.0,0.0,0.0,0.0,0.0,0.0,0.0,0.0,0.0,0.0,0.0,0.0,0.0,0.0,0.0,0.0,0.0,0.0,0.0,0.0,0.0,0.0,0.0,0.0,0.0,0.0,0.0,0.0,0.0,0.0,0.0,0.0,0.0,0.0,0.0,0.0,0.0,0.0,0.0,0.0,0.0,0.0,0.0,0.0,0.0,0.0,0.0,0.0,0.0,0.0,0.0,0.0,0.0,0.0,0.0,0.0,0.0,0.0,0.0,0.0,0.0,0.0,0.0,0.0,0.0,0.0,0.0,0.7113,0.8384,0.9297,0.955,0.9931,1.0024,0.9746,0.9541,0.9018,0.8074,0.0,0.0,0.0,0.0,0.0,0.0,0.0,0.0,0.0,0.0,0.0,0.0,0.0,0.0,0.0,0.0,0.0,0.0,0.0,0.0,0.0,0.0,0.0,0.0,0.0,0.0,0.0,0.0,0.0,0.0,0.0,0.0,0.0,0.0,0.0,0.0,0.0,0.0,0.0,0.0,0.0,0.0,0.0,0.0,0.0,0.0,0.0,0.0,0.0,0.0,0.0,0.0,0.0,0.0,0.0,0.0,0.0,0.0,0.0,0.0,0.0,0.0,0.0,0.0,0.0,0.0,0.0,0.0,0.0,0.0,0.0,0.0,0.0,0.0,0.0,0.0,0.0,0.0,0.0,0.0,0.0,0.0,0.0,0.0,0.0,0.0,0.0,0.0,0.0,0.0,0.0,0.0,0.0,0.0,0.0,0.0,0.0,0.0,0.0,0.0,0.0,0.0,0.7628,0.8622,0.9335,0.9821,1.006,1.0098,0.9816,0.9684,0.9169,0.8187,0.0,0.0,0.0,0.0,0.0,0.0,0.0,0.0,0.0,0.0,0.0,0.0,0.0,0.0,0.0,0.0,0.0,0.0,0.0,0.0,0.0,0.0,0.0,0.0,0.0,0.0,0.0,0.0,0.0,0.0,0.0,0.0,0.0,0.0,0.0,0.0,0.0,0.0,0.0,0.0,0.0,0.0,0.0,0.0,0.0,0.0,0.0,0.0,0.0,0.0,0.0,0.0,0.0,0.0,0.0,0.0,0.0,0.0,0.0,0.0,0.0,0.0,0.0,0.0,0.0,0.0,0.0,0.0,0.0,0.0,0.0,0.0,0.0,0.0,0.0,0.0,0.0,0.0,0.0,0.0,0.0,0.0,0.0,0.0,0.0,0.0,0.0,0.0,0.0,0.0,0.0,0.0,0.0,0.0,0.0,0.0,0.0,0.0,0.0,0.0,0.0,0.0,0.8334,0.8915,0.946,1.0168,1.0218,1.0177,1.0061,0.9764,0.9238,0.8393,0.0,0.0,0.0,0.0,0.0,0.0,0.0,0.0,0.0,0.0,0.0,0.0,0.0,0.0,0.0,0.0,0.0,0.0,0.0,0.0,0.0,0.0,0.0,0.0,0.0,0.0,0.0,0.0,0.0,0.0,0.0,0.0,0.0,0.0,0.0,0.0,0.0,0.0,0.0,0.0,0.0,0.0,0.0,0.0,0.0,0.0,0.0,0.0,0.0,0.0,0.0,0.0,0.0,0.0,0.0,0.0,0.0,0.0,0.0,0.0,0.5721,0.0,0.0,0.0,0.0,0.0,0.0,0.0,0.0,0.0,0.0,0.0,0.0,0.0,0.0,0.0,0.0,0.0,0.0,0.0,0.0,0.0,0.0,0.0,0.0,0.0,0.0,0.0,0.0,0.0,0.0,0.0,0.0,0.0,0.0,0.0,0.0,0.0,0.0,0.0,0.0,0.0,0.8355,0.8915,0.946,1.0168,1.0368,1.0393,1.0306,1.0,0.945,0.8604,0.0,0.0,0.0,0.0,0.0,0.0,0.0,0.0,0.0,0.0,0.0,0.0,0.0,0.0,0.0,0.0,0.0,0.0,0.0,0.0,0.0,0.0,0.0,0.0,0.0,0.0,0.0,0.0,0.0,0.0,0.0,0.0,0.0,0.0,0.0,0.0,0.0,0.0,0.0,0.0,0.0,0.0,0.0,0.0,0.0,0.0,0.0,0.0,0.0,0.0,0.0,0.0,0.0,0.0,0.0,0.0,0.0,0.0,0.0,0.0,0.0,0.6719,0.0,0.0,0.0,0.0,0.0,0.0,0.0,0.0,0.0,0.0,0.0,0.0,0.0,0.0,0.0,0.0,0.0,0.0,0.0,0.0,0.0,0.0,0.0,0.0,0.0,0.0,0.0,0.0,0.0,0.0,0.0,0.0,0.0,0.0,0.0,0.0,0.0,0.0,0.0,0.0,0.8361,0.8915,0.9526,1.0237,1.0443,1.049,1.0527,1.0287,0.9778,0.9057,0.8201,0.0,0.0,0.0,0.0,0.0,0.0,0.0,0.0,0.0,0.0,0.0,0.0,0.0,0.0,0.0,0.0,0.0,0.0,0.0,0.0,0.0,0.0,0.0,0.0,0.0,0.0,0.0,0.0,0.0,0.0,0.0,0.0,0.0,0.0,0.0,0.0,0.0,0.0,0.0,0.0,0.0,0.0,0.0,0.0,0.0,0.0,0.0,0.0,0.0,0.0,0.0,0.0,0.0,1.0113,1.0153,0.9634,0.9634,0.9816,1.0118,0.9668,0.9114,0.8413,0.0,0.0,0.0,0.0,0.0,0.0,0.0,0.0,0.0,0.0,0.0,0.0,0.0,0.0,0.0,0.0,0.0,0.0,0.0,0.0,0.0,0.0,0.0,0.0,0.0,0.8152,0.8026,0.0,0.0,0.0,0.0,0.0,0.0,0.0,0.0,0.0,0.0,0.0,0.0,0.8431,0.898,0.9575,1.0392,1.0519,1.0582,1.0731,1.0479,1.0176,0.9586,0.8622,0.7955,0.0,0.0,0.0,0.0,0.0,0.0,0.0,0.0,0.0,0.0,0.0,0.0,0.0,0.0,0.0,0.0,0.0,0.0,0.0,0.0,0.0,0.0,0.0,0.0,0.0,0.0,0.0,0.0,0.0,0.0,0.0,0.0,0.7764,0.8241,0.0,0.0,0.0,0.0,0.0,0.0,0.0,0.0,0.0,0.0,0.0,0.0,0.0,0.9811,0.9984,1.086,1.1292,1.1327,1.201,1.2308,1.2218,1.2218,1.2242,1.2266,1.2212,0.0,1.0143,0.9289,0.0,0.0,0.0,0.0,0.0,0.0,0.0,0.0,0.0,0.0,0.0,0.0,0.0,0.0,0.0,0.0,0.0,0.0,0.0,0.0,0.0,0.0,0.9653,0.9569,0.9606,0.9469,0.0,0.7711,0.6695,0.643,0.6344,0.0,0.0,0.0,0.0,0.0,0.0,0.0,0.8716,0.9233,0.9699,1.019,1.0363,1.0576,1.0765,1.0676,1.0447,0.985,0.9478,0.8944,0.8152,0.754,0.0,0.0,0.0,0.0,0.0,0.0,0.0,0.0,0.0,0.0,0.0,0.0,0.0,0.0,0.0,0.0,0.0,0.0,0.0,0.0,0.0,0.0,0.0,0.0,0.0,0.0,0.0,0.0,0.0,0.7829,0.8309,0.8487,0.8362,0.8151,0.0,0.0,0.0,0.0,0.0,0.0,0.0,0.0,0.0,1.0742,1.0983,1.1312,1.1833,1.226,1.2589,1.2739,1.3049,1.3163,1.3157,1.2981,1.2886,1.2886,1.2798,1.2308,1.1646,1.0735,0.983,0.8954,0.0,0.0,0.0,0.0,0.8209,0.8493,0.9165,0.9364,0.0,0.9125,0.0,0.0,0.0,0.0,0.0,0.0,0.0,0.0,0.0,0.0,0.9986,1.0256,1.0326,1.0261,1.0056,0.9364,0.8586,0.0,0.7682,0.7532,0.6751,0.0,0.0,0.0,0.0,0.0,0.8964,0.9362,0.9737,1.019,1.0368,1.0588,1.0812,1.0724,1.0562,1.0182,0.9712,0.9256,0.8741,0.8026,0.744,0.0,0.0,0.0,0.0,0.0,0.0,0.0,0.0,0.0,0.0,0.0,0.0,0.0,0.0,0.0,0.0,0.0,0.0,0.0,0.0,0.0,0.0,0.0,0.0,0.0,0.0,0.0,0.0,0.848,0.8908,0.8859,0.9035,0.8972,0.0,0.0,0.0,0.0,0.0,0.0,1.0452,1.072,1.1241,1.2052,1.22,1.2637,1.332,1.3393,1.3519,1.3713,1.3713,1.3713,1.3719,1.3528,1.3344,1.3251,1.3061,1.2968,1.2791,1.1914,1.113,1.0384,1.0118,0.9761,0.9515,1.0071,1.0267,1.0336,1.1198,1.1178,1.0764,1.0525,0.0,0.9635,0.8706,0.0,0.0,0.0,0.0,0.8714,0.9261,0.9756,1.0299,1.0719,1.0821,1.0799,1.074,1.0589,1.0121,0.0,0.8834,0.8667,0.7779,0.0,0.0,0.0,0.0,0.863,0.9227,0.9513,0.9807,1.0126,1.0293,1.0513,1.0738,1.0716,1.0635,1.0447,0.9934,0.9556,0.9286,0.8579,0.7985,0.7605,0.0,0.0,0.0,0.0,0.0,0.0,0.0,0.0,0.0,0.0,0.0,0.0,0.0,0.0,0.0,0.0,0.0,0.0,0.0,0.0,0.0,0.0,0.0,0.0,0.0,0.0,0.0,0.0,0.0,0.9784,1.0194,0.0,0.0,0.0,0.0,1.0547,1.0611,1.1023,1.1934,1.2218,1.2582,1.3055,1.3544,1.3827,1.387,1.4117,1.4244,1.4256,1.4256,1.4256,1.4256,1.4256,1.407,1.389,1.3896,1.3698,1.3442,1.2558,1.2012,1.1514,1.0574,1.0346,1.0509,1.0243,1.0647,1.1261,1.1708,1.173,1.1477,1.177,1.1269,1.0473,1.019,0.9816,0.0,0.0,0.9863,1.0199,1.045,1.0767,1.0993,1.1166,1.1225,1.1252,1.1015,1.0955,1.0799,0.0,0.9647,0.9168,0.9109,0.0,0.8538,0.8759,0.8996,0.9249,0.9523,0.976,0.9906,0.9916,1.0067,1.0293,1.0513,1.0651,1.0757,1.0713,1.0441,1.0176,0.9844,0.9298,0.8765,0.8193,0.7611,0.0,0.0,0.0,0.0,0.0,0.0,0.0,0.0,0.0,0.0,0.0,0.0,0.0,0.0,0.0,0.0,0.0,0.0,0.0,0.0,0.0,0.0,0.0,0.0,0.0,0.0,0.0,0.0,1.0912,1.1278,0.0,1.1023,1.1224,1.1376,1.1564,1.1975,1.2445,1.2979,1.3249,1.3513,1.387,1.4057,1.4159,1.4159,1.425,1.4298,1.4298,1.4298,1.4298,1.4298,1.4112,1.4022,1.3931,1.3738,1.3443,1.3227,1.2959,1.2702,1.2547,1.2026,1.1877,1.1904,1.1805,1.2015,1.2209,1.2388,1.2271,1.2015,1.1861,1.1466,1.1033,1.0947,1.0783,1.0751,1.0902,1.1063,1.1252,1.1483,1.1494,1.1467,1.1553,1.1462,1.1241,1.1235,1.1219,1.1171,1.1004,1.0514,1.003,0.9717,0.9663,0.9637,0.9556,0.9615,0.9755,1.0008,0.997,0.9922,0.9922,1.0067,1.0218,1.0293,1.0444,1.046,1.0272,1.0087,0.9892,0.9634,0.9268,0.8902,0.8543,0.7967,0.727,0.0,0.0,0.0,0.0,0.0,0.0,0.0,0.0,0.0,0.0,0.0,0.0,0.0,0.0,0.0,0.0,0.0,0.0,0.0,0.0,0.0,0.0,0.0,0.0,0.0,0.0,1.1292,1.1745,1.2266,1.2415,1.2064,1.2349,1.2593,1.2677,1.3099,1.3501,1.3767,1.3948,1.4117,1.4292,1.4298,1.4298,1.4298,1.4298,1.4298,1.4298,1.4298,1.4298,1.4298,1.4112,1.4027,1.3931,1.3738,1.3443,1.3249,1.3147,1.3143,1.307,1.2813,1.2752,1.2752,1.2752,1.2752,1.2752,1.2752,1.2603,1.233,1.208,1.1779,1.1585,1.1585,1.1585,1.1618,1.1774,1.1817,1.1855,1.2005,1.193,1.1817,1.1817,1.1698,1.1564,1.1483,1.1467,1.1445,1.1278,1.1025,1.0654,1.0331,1.0353,1.0353,1.0186,1.0159,1.0223,1.039,1.0196,1.0046,1.0046,1.0046,1.0143,1.0218,1.0217,1.0151,1.0055,0.9935,0.9688,0.942,0.9152,0.8848,0.8497,0.7895,0.7315,0.6872,0.0,0.0,0.0,0.0,0.0,0.0,0.0,0.0,0.0,0.0,0.0,0.0,0.0,0.0,0.0,0.0,0.0,0.0,0.0,0.0,0.0,0.0,0.0,1.0725,1.1449,1.2059,1.233,1.3061,1.3332,1.2807,1.323,1.3646,1.39,1.3918,1.4032,1.4286,1.4298,1.4298,1.4298,1.4298,1.4298,1.4298,1.4298,1.4298,1.4298,1.4298,1.4298,1.4298,1.4298,1.4208,1.3931,1.3931,1.3738,1.3443,1.3249,1.3147,1.305,1.2856,1.2764,1.2764,1.2764,1.2764,1.2764,1.2764,1.2614,1.2425,1.2425,1.2264,1.2162,1.2162,1.2162,1.2162,1.2162,1.2162,1.2162,1.2162,1.2156,1.2151,1.2151,1.2145,1.1989,1.1758,1.1709,1.1639,1.1321,1.1171,1.1004,1.0993,1.0805,1.0659,1.0659,1.0649,0.0,1.0649,1.0449,1.0304,1.0304,1.0083,1.0003,1.0154,1.0002,0.9997,1.0142,0.988,0.955,0.9285,0.9033,0.8669,0.8107,0.7343,0.7069,0.7416,0.0,0.0,0.0,0.0,0.0,0.0,0.0,0.0,0.0,0.0,0.0,0.0,0.0,0.0,0.0,0.0,0.0,0.0,0.0,0.0,0.0,0.0,1.1587,1.1582,1.2288,1.2964,1.3417,1.3833,1.402,1.3876,1.3996,1.4111,1.4183,1.4189,1.422,1.4292,1.4298,1.4298,1.4298,1.4298,1.4298,1.4298,1.4298,1.4298,1.4298,1.4298,1.4298,1.4298,1.4298,1.4298,1.4202,1.4202,1.4022,1.3738,1.3738,1.3539,1.3346,1.2953,1.2764,1.2764,1.2764,1.2764,1.2764,1.2764,1.2721,1.2667,1.2667,1.2624,1.2565,1.2565,1.2565,1.2565,1.2565,1.2565,1.2565,1.2565,1.2441,1.2312,1.2312,1.2178,1.2124,1.1968,1.1951,1.1881,1.165,1.1548,1.1451,1.1278,1.1198,1.107,1.107,1.0999,0.0,1.0885,1.0686,1.0541,1.0541,1.0331,1.0191,1.0269,0.9878,0.9608,0.9673,0.9405,0.9156,0.9081,0.9018,0.8828,0.8451,0.7824,0.743,0.0,0.0,0.0,0.0,0.0,0.0,0.0,0.0,0.0,0.0,0.0,0.0,0.0,0.0,0.0,0.0,0.0,0.0,0.0,0.0,0.0,0.0,1.1787,1.2462,1.2705,1.3157,1.3604,1.402,1.4208,1.4298,1.4298,1.4298,1.4298,1.4298,1.4407,1.4473,1.4473,1.4576,1.4636,1.4636,1.4636,1.4636,1.4636,1.4636,1.4636,1.4636,1.4636,1.4636,1.4636,1.4636,1.4576,0.0,1.4473,1.4316,1.4022,1.3931,1.3835,0.0,0.0,0.0,0.0,0.0,1.2764,1.2764,1.2764,1.2764,1.2764,1.2764,1.2764,1.2764,1.2764,1.2764,1.2764,1.2764,1.2764,1.2764,1.2764,1.2662,1.256,1.256,1.2452,1.2318,1.2221,1.2199,1.2129,1.1892,1.1768,0.0,1.1521,1.1326,1.1262,1.1262,1.123,1.1139,1.1139,1.0929,1.0783,1.0783,1.0573,1.0401,1.0304,0.9894,0.0,0.0,0.0,0.895,0.8747,0.8635,0.0,0.0,0.0,0.0,0.0,0.0,0.0,0.0,0.7909,0.7864,0.0,0.0,0.0,0.0,0.0,0.0,0.0,0.0,0.0,0.0,0.0,0.0,0.0,0.0,0.0,0.0,1.2679,1.3297,1.3938,1.3948,1.4039,1.4268,1.4298,1.4298,1.4298,1.4298,1.431,1.434,1.4576,1.4733,1.4757,0.0,0.0,0.0,0.0,1.5107,1.5107,1.5107,1.5107,1.5107,1.5107,1.5107,1.5107,1.5107,1.498,1.4763,1.4763,1.4606,1.4346,1.4069,1.396,1.3835,1.3346,1.305,1.305,1.2861,1.2764,1.2764,1.2764,0.0,0.0,1.2764,1.2764,1.2764,1.2764,1.2764,1.2764,1.2764,1.2764,1.2764,1.2764,1.2764,1.2764,1.2764,1.2764,1.2705,1.2501,1.2457,1.2382,1.2134,1.1919,1.1768,1.1741,1.1521,1.1262,1.1262,1.1262,1.1262,1.1262,1.116,1.1025,1.1025,0.0,0.0,1.039,1.0094,0.9836,0.9631,0.9302,0.8909,0.8485,0.8248,0.8237,0.8463,0.8469,0.8742,0.931,0.931,0.9327,0.9338,0.8458,0.8406,0.0,0.0,0.0,0.0,0.0,0.0,0.0,0.0,0.0,0.0,0.0,0.0,0.0,0.0,0.0,1.307,1.369,1.4186,1.4463,1.4321,1.4244,1.4292,1.4298,1.4298,1.4298,1.4298,1.4389,1.4618,1.4684,1.4805,1.5022,1.5083,1.5107,1.5107,1.5107,1.5107,1.5107,1.5107,1.5107,1.5107,0.0,0.0,1.5107,1.5107,1.5083,1.5034,1.5034,1.4877,1.4636,1.4544,1.432,1.3835,1.3346,1.2953,1.2861,1.2764,1.2764,1.2764,1.2764,1.2764,1.2764,1.2764,1.2764,1.2764,1.2764,1.2764,0.0,1.2764,1.2764,1.2764,1.2764,1.2764,1.2764,1.2764,1.2764,1.2754,1.2705,1.2694,1.263,1.2393,1.2307,1.221,1.2016,1.1628,1.1262,1.1262,1.1262,1.1262,1.1262,1.1311,1.1278,1.1278,1.1063,1.0896,1.0853,1.0277,0.99,0.9857,0.94,0.9167,0.9075,0.9021,0.9021,0.907,0.907,0.9119,0.9211,0.9211,0.9314,0.9504,0.9375,0.9321,0.0,0.0,0.0,0.0,0.0,0.0,0.0,0.0,0.0,0.0,0.0,1.1786,0.0,0.0,1.3245,1.4002,1.4191,1.4384,1.4651,1.4496,1.4298,1.4298,1.4298,1.4352,1.4491,1.4509,1.4618,1.4896,1.5034,1.5167,1.5294,1.5427,1.5499,1.5499,1.5499,1.5499,1.5499,1.5499,1.5499,1.5499,1.5499,1.5499,1.5499,1.5499,1.5427,1.5306,1.5306,1.5155,1.4902,1.4775,1.4439,1.4015,1.3688,1.3249,1.2953,1.2861,1.2764,1.2764,1.2764,1.2764,1.2764,1.2764,1.2764,1.2764,1.2764,1.2764,1.2764,1.2764,1.2764,1.2764,1.2764,1.2764,1.2764,1.2764,1.2764,1.2764,1.2764,1.2764,1.2727,1.2614,1.2495,1.2377,1.2253,1.1935,1.1661,1.1542,1.1429,1.1262,1.1262,1.1262,1.1262,1.1262,1.1241,1.1117,1.0993,1.0552,1.0229,1.0116,0.9766,0.9513,0.94,0.927,0.9265,0.9389,0.9394,0.9448,0.9561,0.969,0.9814,0.9938,1.0078,1.0027,0.0,0.0,0.0,0.0,0.0,0.0,0.0,0.0,1.0888,1.1675,1.2223,1.2739,1.3265,1.3632,1.4063,1.4699,1.464,1.4534,1.4663,1.4496,1.4298,1.4298,1.4298,1.4407,1.469,1.4714,1.4847,1.5161,1.5378,1.5523,1.5572,1.5777,1.5891,1.5891,1.5891,1.5891,1.5891,1.5891,1.5891,1.5891,1.5891,1.5891,1.5891,1.5891,1.5777,1.5572,1.5523,1.5378,1.5161,1.4902,1.4688,1.4465,1.4107,1.3711,1.3213,1.2975,1.2861,1.2764,1.2764,1.2764,1.2764,1.2764,1.2764,1.2764,1.2764,1.2764,1.2764,1.2764,1.2764,1.2764,1.2764,1.2764,1.2764,1.2764,1.2764,1.2764,1.2764,1.2764,1.2764,1.2764,1.2614,1.2484,1.2484,1.228,1.2021,1.1741,1.1542,1.1402,1.1273,1.1262,1.1262,1.1262,1.1262,1.1252,1.1004,1.081,1.0606,1.0374,1.0169,0.9976,0.9793,0.9588,0.9577,0.9782,0.9782,0.9873,1.0062,1.0261,1.0358,1.0363,1.0595,1.0579,0.9475,0.9463,1.0397,1.2561,1.1861,1.1438,0.0,0.0,1.3561,1.456,1.5032,1.5056,1.4559,1.487,1.5186,1.5076,1.5038,1.4949,1.4688,1.4496,1.4298,1.4298,1.4298,1.4407,1.469,1.4714,1.492,1.5421,1.5481,1.5602,1.5831,1.5873,1.5891,1.5891,1.5891,1.5891,1.5891,1.5891,1.5891,1.5891,1.5891,1.5891,1.5891,1.5891,1.5873,1.5831,1.5602,1.5481,1.5433,1.5173,1.5065,1.4933,1.4471,1.4068,1.3743,1.323,1.2953,1.2764,1.2764,1.2764,1.2764,1.2764,1.2764,1.2764,1.2764,1.2764,1.2764,1.2764,1.2764,1.2764,1.2764,1.2764,1.2764,1.2764,1.2764,1.2764,1.2764,1.2764,1.2764,1.2764,1.2743,1.2727,1.2727,1.2527,1.2221,1.1768,1.1677,1.1585,1.1289,1.1262,1.1262,1.1262,1.1262,1.1252,1.1004,1.0961,1.0842,1.0611,1.0568,1.0546,1.0519,1.0487,1.0487,1.0514,1.0519,1.053,1.0557,1.0584,1.06,1.0606,1.0837,1.0821,1.1609,1.199,0.0,0.0,1.4735,1.4629,1.6014,1.5477,1.4837,1.5696,1.5687,1.5472,1.5312,1.5471,1.5597,0.0,1.5458,1.5261,1.5166,1.4783,1.4496,1.4496,1.4394,1.4407,1.469,1.4853,1.5101,1.5469,1.5638,1.5777,1.5885,1.5891,1.5891,1.5891,1.5891,1.5891,1.5891,1.5891,1.5891,1.5891,1.5891,1.5891,1.5891,1.5891,1.5891,1.5885,1.5771,1.5728,1.5704,1.5445,1.5336,1.5312,1.4939,1.4548,1.408,1.3339,1.2953,1.2764,1.2764,1.2764,1.2764,1.2764,1.2764,1.2764,1.2764,1.2764,1.2764,1.2764,1.2764,1.2764,1.2764,1.2764,1.2764,1.2764,1.2764,1.2764,1.2764,1.2764,1.2764,1.2764,1.2764,1.2764,1.2764,1.2684,1.2501,1.2167,1.1995,1.1817,1.1585,1.1553,1.1499,1.1278,1.1262,1.1311,1.1209,1.1198,1.1155,1.0974,1.0918,1.0837,1.0837,1.0708,1.0638,1.0638,1.0638,1.0638,1.0638,1.0772,1.0837,1.0842,1.1085,1.1144,1.3044,0.0,0.0,1.63,1.6919,1.7004,1.674,1.6202,1.5849,1.6135,1.581,1.5578,1.5792,1.5832,0.0,1.573,1.5635,1.5445,1.5356,1.507,1.479,1.479,1.4592,1.4479,1.468,1.4908,1.5215,1.5481,1.5741,1.5891,1.5891,1.5891,1.5891,1.5891,1.5891,1.5891,1.5891,1.5891,1.5891,1.5891,1.5891,1.5891,1.5891,1.5891,1.5891,1.5891,1.5891,1.5891,1.5873,1.5686,1.5608,1.5578,1.5318,1.4892,1.4389,1.3737,1.3166,1.2861,1.2861,1.2764,1.2764,1.2764,1.2764,1.2764,1.2764,1.2764,1.2764,1.2764,1.2764,1.2764,1.2764,1.2764,1.2764,1.2764,1.2764,1.2764,1.2764,1.2764,1.2764,1.2764,1.2764,1.2764,1.2764,1.2764,1.2705,1.2538,1.2361,1.2134,1.1833,1.1741,1.1607,1.1289,1.1262,1.1262,1.1262,1.1262,1.1262,1.1262,1.1182,1.1085,1.1085,1.0923,1.0749,1.0749,1.0749,1.0749,1.0749,1.1004,1.1085,1.109,1.1268,1.1262,0.0,0.0,1.5127,1.6918,1.7407,1.7366,1.6974,1.686,1.6697,1.592,1.5812,1.5818,1.5832,1.5832,1.573,1.554,1.554,1.5452,1.5178,1.5083,1.5083,1.5083,1.4885,1.4694,0.0,1.4892,1.5215,1.5481,1.5741,1.5891,1.5891,1.5891,1.5891,1.5891,1.5891,1.5891,1.5891,1.5891,1.5891,1.5891,1.5891,1.5891,1.5891,1.5891,1.5891,1.5891,1.5891,1.5891,1.5891,1.5879,1.5879,1.5849,1.559,1.5273,1.5018,1.4453,1.3751,1.305,1.2861,1.2764,1.2764,1.2764,1.2764,1.2764,1.2764,1.2764,1.2764,1.2764,1.2764,1.2764,1.2764,1.2764,1.2764,1.2764,1.2764,1.2764,1.2764,1.2764,1.2764,1.2764,1.2764,1.2764,1.2764,1.2764,1.2759,1.2754,1.2748,1.2571,1.2189,1.1838,1.1607,1.1289,1.1262,1.1262,1.1262,1.1262,1.1262,1.1262,1.1257,1.1251,1.1251,1.1246,1.1241,1.1241,1.1241,1.1241,1.1241,1.1251,1.1251,1.1251,1.1262,1.1262,0.0,0.0,1.6581,1.8135,1.8275,1.796,1.8146,1.7612,1.7094,1.6835,1.614,1.5538,1.5538,1.5538,1.5538,1.5445,1.5611,1.5642,1.5547,1.5452,1.5267,1.5083,1.4885,0.0,0.0,0.0,0.0,1.5215,1.5481,1.5704,1.5879,1.5891,1.5891,1.5891,1.5891,1.5891,1.5891,1.5891,1.5891,1.5891,1.5891,1.5891,1.5891,1.5891,1.5891,1.5891,1.5891,1.5891,1.5891,1.5891,1.5891,1.5879,1.5795,1.565,1.5279,1.4781,1.4327,1.3807,1.3243,1.2888,1.2764,1.2764,1.2764,1.2764,1.2764,1.2764,1.2764,1.2764,1.2764,1.2764,1.2764,1.2764,1.2764,1.2764,1.2764,1.2764,1.2764,1.2764,1.2764,1.2764,1.2764,1.2764,1.2764,1.2764,1.2764,1.2764,1.2635,1.2474,1.2312,1.2081,1.1898,1.1822,1.1811,1.1752,1.1596,1.1585,1.1515,1.1273,1.1262,1.1262,1.1262,1.1262,1.1262,1.1262,1.0992,1.0819,1.0814,1.0559,1.0477,1.0477,1.0539,1.0608,0.0,1.6916,1.7647,1.899,1.9096,1.906,1.9289,1.888,1.8211,1.7727,1.662,1.577,1.577,1.5334,1.503,1.5344,1.5464,1.5625,1.5945,1.5797,1.5586,1.5505,1.5319,0.0,0.0,0.0,0.0,1.5089,1.5439,1.571,1.5879,1.5891,1.5891,1.5891,1.5891,1.5891,1.5891,1.5891,1.5891,1.5891,1.5891,1.5891,1.5891,1.5891,1.5891,1.5891,1.5891,1.5891,1.5891,1.5891,1.5891,1.5891,1.5891,1.5783,1.5638,1.5124,1.485,1.4464,1.3418,1.3007,1.2872,1.2786,1.2764,1.2764,1.2764,1.2764,1.2764,1.2764,1.2764,1.2764,1.2764,1.2764,1.2764,1.2764,1.2764,1.2764,1.2764,1.2764,1.2764,1.2764,1.2764,1.2764,1.2764,1.2764,1.2764,1.2764,1.2635,1.2506,1.2425,1.2274,1.2145,1.2145,1.214,1.1989,1.1838,1.1822,1.1758,1.1607,1.1521,1.1478,1.1478,1.1218,1.1084,1.1084,1.0641,1.0381,1.0381,1.0202,1.0064,1.0069,1.0187,1.0285,1.6063,1.7188,1.8422,1.938,1.9903,2.0249,2.0158,2.015,1.9751,1.8327,1.7055,1.6265,0.0,0.0,1.4362,1.519,1.515,1.5304,1.6152,1.6032,1.5959,0.0,0.0,0.0,0.0,0.0,0.0,1.5208,0.0,1.5861,1.5891,1.5891,1.5891,1.5891,1.5891,1.5891,1.5891,1.5891,1.5891,1.5891,1.5891,1.5891,1.5891,1.5891,1.5891,1.5891,1.5891,1.5891,1.5891,1.5891,1.5891,1.5891,1.5891,1.5891,1.5891,1.5583,1.5317,1.492,1.3606,1.313,1.3082,1.2856,1.278,1.2775,1.2764,1.2764,1.2764,1.2764,1.2764,1.2764,1.2764,1.2764,1.2764,1.2764,1.2764,1.2764,1.2764,1.2764,1.2764,1.2764,1.2764,1.2764,1.2764,1.2764,1.2764,1.2764,1.2764,1.2684,1.2463,1.2431,1.2344,1.2205,1.2178,1.2173,1.2162,1.2064,1.2059,1.2048,1.1748,1.1625,1.1625,1.0963,1.0584,1.0584,1.0241,0.9984,0.9984,1.0098,1.0102,1.0106,1.0306,1.0399,1.7921,1.8477,1.8709,1.8977,1.909,1.8972,1.8241,1.7949,1.7394,1.6109,1.4995,1.4234,0.0,0.0,0.0,1.4389,1.509,0.0,1.6213,1.6206,0.0,0.0,0.0,1.6108,1.5908,1.5992,0.0,0.0,1.5542,1.5481,1.5867,1.5891,1.5891,1.5891,1.5891,1.5891,1.5891,1.5891,1.5891,1.5891,1.5891,1.5891,1.5891,1.5891,1.5891,1.5891,1.5891,1.5891,1.5891,1.5891,1.5891,1.5891,1.5891,1.5891,1.5891,1.5583,1.5441,1.5229,1.4272,1.3832,1.3634,1.3192,1.3017,1.2985,1.2813,1.2764,1.2764,1.2764,1.2764,1.2764,1.2764,1.2764,1.2764,1.2764,1.2764,1.2764,1.2764,1.2764,1.2764,1.2764,1.2764,1.2764,1.2764,1.2764,1.2764,1.2764,1.2764,1.2743,1.2684,1.2673,1.2651,1.2587,1.2581,1.2511,1.2334,1.1942,1.1677,1.1502,1.1069,1.0765,1.0765,1.062,1.05,1.05,1.0045,0.9866,0.9866,0.9556,0.9397,0.9402,0.9583,0.9664,1.9058,1.91,1.888,1.9338,1.943,1.9216,1.8208,1.7858,1.7306,1.5529,1.4365,0.0,0.0,0.0,0.0,0.0,0.0,0.0,1.6346,1.6353,1.6433,0.0,1.6704,0.0,1.6304,1.6446,1.6477,0.0,1.5952,1.5793,1.6092,1.5998,1.5891,1.5891,1.5891,1.5891,1.5891,1.5891,1.5891,1.5891,1.5891,1.5891,1.5891,1.5891,1.5891,1.5891,0.0,1.5891,1.5891,1.5891,1.5891,1.5891,1.5891,1.5891,1.5891,1.5684,1.569,1.5559,1.4881,1.4522,1.4238,1.348,1.327,1.3222,1.2985,1.2915,1.2888,1.2791,1.2764,1.2764,1.2764,1.2764,1.2764,1.2764,1.2764,1.2764,1.2764,1.2764,1.2764,1.2764,1.2764,1.2764,1.2764,1.2764,1.2764,1.2764,1.2764,1.2764,1.2764,1.2764,1.2764,1.2764,1.2764,1.2711,1.2581,1.2086,1.1743,1.1611,1.0947,1.0613,1.0613,1.0343,1.02,1.02,0.974,0.9465,0.9465,0.9361,0.921,0.9214,0.9393,0.9474,1.9675,1.938,1.9247,2.0068,2.0305,1.9978,1.8979,1.8533,1.7679,1.5493,0.0,0.0,1.3228,0.0,1.2672,1.3788,0.0,1.5077,1.6506,1.6486,1.6553,1.7134,1.7208,1.7105,1.6801,1.6905,1.6905,1.6817,1.653,1.643,1.6324,1.6111,1.5891,1.5891,1.5891,1.5891,1.5891,1.5891,1.5891,1.5891,1.5891,1.5891,1.5891,1.5891,1.5891,1.5891,1.5891,0.0,1.5891,1.5891,1.5891,1.5891,1.5891,1.5891,1.5891,1.5891,1.5891,1.5785,1.5256,1.5041,1.4854,1.3871,1.3523,1.347,1.319,1.3104,1.3055,1.2829,1.2764,1.2764,1.2764,1.2764,1.2764,1.2764,1.2764,1.2764,1.2764,1.2764,1.2764,1.2764,1.2764,1.2764,1.2764,1.2764,1.2764,1.2764,1.2764,1.2764,1.2662,1.2764,1.2764,1.2764,1.2764,1.2667,1.2667,1.2175,1.178,1.178,1.1028,1.0642,1.0642,1.0094,0.9818,0.9818,0.9353,0.9169,0.9169,0.9315,0.9388,0.9393,0.9555,0.9628,2.0061,2.0116,2.0068,2.0249,2.0107,1.9485,1.8085,1.6555,0.0,0.0,0.0,1.1409,1.117,1.179,0.0,1.3247,0.0,0.0,0.0,0.0,1.6847,0.0,0.0,0.0,0.0,0.0,0.0,0.0,0.0,1.6855,1.6324,1.6217,1.6105,1.5891,1.5891,1.5891,1.5891,1.5891,1.5891,1.5891,1.5891,1.5891,1.5891,1.5891,1.5891,1.5891,1.5891,0.0,1.5891,1.5891,1.5891,1.5891,1.5891,1.5891,1.5891,1.5891,1.5891,1.5891,1.5476,1.5261,1.4883,1.4062,1.376,1.368,1.3238,1.3104,1.3055,1.2829,1.2764,1.2764,1.2764,1.2764,1.2764,1.2764,1.2764,1.2764,1.2764,1.2764,1.2764,1.2764,1.2764,1.2764,1.2764,1.2764,1.2764,1.2764,1.2764,1.2662,1.2175,1.2565,1.2764,1.2764,1.237,1.2175,1.2175,1.1194,1.0703,1.0703,1.0087,0.9776,0.9776,0.9649,0.9633,0.9633,0.9535,0.9535,0.9535,0.9567,0.9579,0.9579,0.9612,0.9628,2.0854,2.0709,2.0439,2.0898,2.0633,1.9621,1.7713,0.0,0.0,0.0,0.0,1.0267,1.0127,0.0,0.0,0.0,0.0,0.0,0.0,0.0,0.0,0.0,0.0,0.0,0.0,0.0,0.0,0.0,0.0,1.7166,1.653,1.6211,1.5998,1.5891,1.5891,1.5891,1.5891,1.5891,1.5891,1.5891,1.5891,1.5891,1.5891,1.5891,1.5891,1.5891,1.5891,0.0,1.5891,1.5891,1.5891,1.5891,1.5891,1.5891,1.5891,1.5891,1.5891,1.5891,1.5583,1.5261,1.4911,1.436,1.4114,1.3922,1.3443,1.3303,1.3222,1.2861,1.2764,1.2764,1.2764,1.2764,1.2764,1.2764,1.2764,1.2764,1.2764,1.2764,1.2764,1.2764,1.2764,1.2764,1.2764,1.2764,1.2764,1.2764,1.2565,1.2273,1.2078,1.1975,1.198,1.198,1.1785,1.1585,1.1585,1.0904,1.0413,1.0413,0.9924,0.9628,0.9628,0.9628,0.9628,0.9628,0.9628,0.9628,0.9628,0.9628,0.9628,0.9628,0.9628,0.9628,2.1436,2.0988,2.0439,2.1186,2.0611,1.9221,1.7047,1.524,0.0,0.0,0.0,0.9586,0.9586,0.0,0.0,0.0,0.0,0.0,0.0,0.0,0.0,0.0,0.0,0.0,0.0,0.0,0.0,0.0,0.0,0.0,1.6842,1.6311,1.5998,1.5998,1.5891,1.5891,1.5891,1.5891,1.5891,1.5891,1.5891,1.5891,1.5891,1.5891,1.5891,1.5891,1.5891,0.0,0.0,1.5891,1.5891,1.5891,1.5891,1.5891,1.5891,1.5891,1.5891,1.5891,1.569,1.5369,1.4934,1.4713,1.4509,1.4105,1.3626,1.348,1.3378,1.2899,1.2764,1.2764,1.2764,1.2764,1.2764,1.2764,1.2764,1.2764,1.2764,1.2764,1.2764,1.2764,1.2764,1.2764,1.2764,1.2764,1.2764,1.2764,1.237,1.198,1.1883,1.1389,1.0998,1.09,1.0998,1.0998,1.0998,1.0511,1.0216,1.0216,0.9821,0.9628,0.9628,0.9628,0.9628,0.9628,0.9628,0.9628,0.9628,0.9628,0.9628,0.9628,0.9628,0.9628,2.1542,2.0988,2.0339,2.0439,1.8896,1.6976,1.5278,0.0,0.0,0.0,0.9543,0.9223,0.9223,0.9786,0.0,0.0,0.0,0.0,0.0,0.0,0.0,0.0,0.0,0.0,0.0,0.0,0.0,0.0,0.0,0.0,1.7179,1.6537,1.6217,1.6217,1.5998,1.5891,1.5891,1.5891,1.5891,1.5891,1.5891,1.5891,1.5891,1.5891,1.5891,1.5891,1.5891,0.0,0.0,1.5891,1.5891,1.5891,1.5891,1.5891,1.5891,1.5891,1.5891,1.5891,1.5891,1.5464,1.5041,1.4934,1.4617,1.4105,1.3626,1.348,1.3378,1.2899,1.2764,1.2764,1.2764,1.2764,1.2764,1.2764,1.2764,1.2764,1.2764,1.2764,1.2764,1.2764,1.2764,1.2764,1.2764,1.2764,1.2764,1.2764,1.237,1.178,1.1296,1.0806,1.0314,0.9826,1.0216,1.0511,1.0511,1.0019,0.9628,0.9628,0.9628,0.9628,0.9628,0.9628,0.9628,0.9628,0.9628,0.9628,0.9628,0.9628,0.9628,0.9628,0.9628,0.9628,2.1181,2.1264,2.1114,2.0873,1.9229,1.7379,1.5848,0.0,1.152,1.0258,0.9712,0.934,0.9032,0.9584,1.0258,0.0,1.1309,1.2184,0.0,0.0,0.0,0.0,0.0,0.0,0.0,0.0,0.0,0.0,0.0,0.0,1.7483,1.6849,1.6424,1.6324,1.6217,1.6105,1.5891,1.5891,1.5891,1.5891,1.5891,1.5891,1.5891,1.5891,1.5891,1.5891,1.5891,0.0,0.0,1.5891,1.5891,1.5891,1.5891,1.5891,1.5891,1.5891,1.5891,1.5891,1.5684,1.5363,1.4905,1.4652,1.4289,1.3906,1.3577,1.3373,1.3184,1.2856,1.2764,1.2764,1.2764,1.2764,1.2764,1.2764,1.2764,1.2764,1.2764,1.2764,1.2764,1.2764,1.2764,1.2764,1.2764,1.2764,1.2667,1.237,1.1878,1.1292,1.0801,1.0216,0.9821,0.9628,0.9821,0.992,0.992,0.9727,0.9628,0.9628,0.9628,0.9628,0.9628,0.9628,0.9628,0.9628,0.9628,0.9628,0.9628,0.9628,0.9628,0.9628,0.9628,0.9628,2.0428,2.0802,2.0862,2.0566,1.9007,1.7153,0.0,0.0,1.1389,1.0398,0.9886,0.951,0.9309,0.9724,1.0149,1.0306,1.0803,1.1536,1.2719,0.0,0.0,0.0,0.0,0.0,0.0,0.0,0.0,0.0,0.0,0.0,0.0,1.7364,1.6842,1.6424,1.6324,1.6217,1.5891,1.5891,1.5891,1.5891,1.5891,1.5891,1.5891,1.5891,1.5891,1.5891,1.5891,0.0,0.0,1.5891,1.5891,1.5891,1.5891,1.5891,1.5891,1.5891,1.5891,1.5891,1.5583,1.5215,1.4798,1.4411,1.3937,1.3577,1.3416,1.3243,1.3055,1.2829,1.2764,1.2764,1.2764,1.2764,1.2764,1.2764,1.2764,1.2764,1.2764,1.2764,1.2764,1.2764,1.2764,1.2764,1.2764,1.2764,1.2667,1.2078,1.1585,1.0998,1.0511,0.992,0.9628,0.9628,0.9628,0.9628,0.9628,0.9628,0.9628,0.9628,0.9628,0.9628,0.9628,0.9628,0.9628,0.9628,0.9628,0.9628,0.9628,0.9628,0.9628,0.9628,0.9628,0.9628,1.9443,1.9561,1.9162,1.9162,1.7639,1.5686,0.0,1.2602,1.1389,1.0302,0.9841,0.9762,1.0269,1.0242,1.0253,1.0827,1.1159,1.1837,1.3039,0.0,0.0,0.0,0.0,0.0,0.0,0.0,0.0,0.0,0.0,0.0,0.0,1.8199,1.7364,1.673,1.6424,1.6217,1.5891,1.5891,1.5891,1.5891,1.5891,1.5891,1.5891,1.5891,1.5891,0.0,0.0,0.0,0.0,1.5891,1.5891,1.5891,1.5891,1.5891,1.5891,1.5891,1.5891,1.5891,1.5583,1.5099,1.4681,1.4361,1.3707,1.3109,1.3109,1.3109,1.3055,1.2829,1.2764,1.2764,1.2764,1.2764,1.2764,1.2764,1.2764,1.2764,1.2764,1.2764,1.2764,1.2764,1.2764,1.2764,1.2764,1.2764,1.2667,1.2078,1.1585,1.0998,1.0511,0.992,0.9628,0.9628,0.9628,0.9628,0.9628,0.9628,0.9628,0.9628,0.9628,0.9628,0.9628,0.9628,0.9628,0.9628,0.9628,0.9628,0.9628,0.9628,0.9628,0.9628,0.9628,0.9628,1.6408,1.7304,1.78,1.6639,1.5806,1.484,1.3365,1.2039,1.0983,1.0432,1.0561,1.0592,0.9969,1.0104,1.0459,1.0885,1.1176,0.0,0.0,0.0,0.0,0.0,0.0,0.0,0.0,0.0,0.0,0.0,0.0,0.0,0.0,2.0055,1.8916,1.673,1.663,1.6311,1.5891,1.5891,1.5891,1.5891,1.5891,1.5891,1.5891,1.5891,1.5891,0.0,0.0,0.0,0.0,1.5891,1.5891,1.5891,1.5891,1.5891,1.5891,1.5891,1.5891,1.5761,1.517,1.4849,1.4619,1.3749,1.3333,1.3077,1.292,1.2872,1.2856,1.2786,1.2764,1.2764,1.2764,1.2764,1.2764,1.2764,1.2764,1.2764,1.2764,1.2764,1.2764,1.2764,1.2764,1.2764,1.2764,1.2473,1.2078,1.1492,1.0998,1.0413,0.992,0.9723,0.9628,0.9628,0.9628,0.9628,0.9628,0.9628,0.9628,0.9628,0.9628,0.9628,0.9628,0.9628,0.9628,0.9628,0.9628,0.9628,0.9628,0.9628,0.9628,0.9628,0.9628,0.9628,0.0,1.5675,1.6396,1.5466,1.4698,1.3894,1.3016,1.1736,1.0681,1.0449,1.0685,1.0795,1.0336,1.0283,1.0429,1.0746,1.1307,0.0,0.0,0.0,0.0,0.0,0.0,0.0,0.0,0.0,0.0,0.0,0.0,0.0,0.0,2.0987,1.9849,1.7969,1.7969,1.766,1.7147,1.7147,1.6935,1.6524,1.6524,1.6311,1.5891,1.5891,1.5891,0.0,0.0,0.0,0.0,1.5891,1.5891,1.5891,1.5891,1.5891,1.5891,1.5891,1.5891,1.5743,1.4972,1.4607,1.4355,1.3434,1.3044,1.2947,1.2807,1.2764,1.2764,1.2764,1.2764,1.2764,1.2764,1.2764,1.2764,1.2764,1.2764,1.2764,1.2764,1.2764,1.2764,1.2764,1.2764,1.2764,1.2764,1.2565,1.2078,1.1292,1.09,1.0413,0.9727,0.9628,0.9628,0.9628,0.9628,0.9628,0.9628,0.9628,0.9628,0.9628,0.9628,0.9628,0.9628,0.9628,0.9628,0.9628,0.9628,0.9628,0.9628,0.9628,0.9628,0.9628,0.9628,0.943,0.0,0.0,0.0,0.0,1.4055,1.2979,1.281,1.1623,0.0,1.0506,1.0517,1.0694,1.1285,1.0764,1.0346,1.0675,1.164,0.0,0.0,0.0,0.0,0.0,0.0,0.0,0.0,0.0,0.0,0.0,0.0,0.0,0.0,2.1404,2.057,2.0238,2.0238,1.9937,1.9228,1.9228,1.8715,1.7687,1.7687,1.7153,1.5998,1.5998,1.5998,0.0,0.0,0.0,0.0,1.5891,1.5891,1.5891,1.5891,1.5891,1.5891,1.5891,1.5879,1.5719,1.4943,1.4476,1.4106,1.3357,1.2937,1.2764,1.2764,1.2764,1.2764,1.2764,1.2764,1.2764,1.2764,1.2764,1.2764,1.2764,1.2764,1.2764,1.2764,1.2764,1.2764,1.2764,1.2764,1.2764,1.2764,1.2764,1.237,1.1389,1.11,1.0708,0.9727,0.9628,0.9628,0.9628,0.9628,0.9628,0.9628,0.9628,0.9628,0.9628,0.9628,0.9628,0.9628,0.9628,0.9628,0.9628,0.9628,0.9628,0.9628,0.9628,0.9628,0.9628,0.9529,0.913,1.0399,0.0,1.2386,1.1573,1.16,1.188,0.0,1.1357,1.1001,0.0,0.0,0.0,0.0,1.1792,1.1848,0.0,0.0,0.0,0.0,0.0,0.0,0.0,0.0,0.0,0.0,0.0,0.0,0.0,0.0,0.0,2.3746,2.3538,2.3129,2.2619,2.2619,2.1489,1.9228,1.9228,1.902,1.8812,1.8812,1.8297,1.716,1.716,1.6736,0.0,0.0,0.0,1.5891,1.5891,1.5891,1.5891,1.5891,1.5891,1.5891,1.5891,1.5765,1.5449,1.4665,1.4207,1.3857,1.3117,1.2807,1.2764,1.2764,1.2764,1.2764,1.2764,1.2764,1.2764,1.2764,1.2764,1.2764,1.2764,1.2764,1.2764,1.2764,1.2764,1.2764,1.2764,1.2764,1.2764,1.2764,1.2078,1.1487,1.1194,1.0507,0.992,0.9628,0.9628,0.9628,0.9628,0.9628,0.9628,0.9628,0.9628,0.9628,0.9628,0.9628,0.9628,0.9628,0.9628,0.9628,0.9628,0.9628,0.9628,0.9628,0.9628,0.9628,0.9628,0.8931,0.8531,0.951,1.0646,1.1644,1.1197,1.1511,1.2039,1.2291,0.0,0.0,0.0,0.0,0.0,0.0,0.0,0.0,0.0,0.0,0.0,0.0,0.0,0.0,0.0,0.0,0.0,0.0,0.0,0.0,0.0,0.0,0.0,2.4152,2.3954,2.3665,2.309,2.2892,2.2155,2.0783,2.0624,2.0319,1.9952,1.98,1.9192,1.8304,1.7786,1.7187,0.0,0.0,0.0,1.5529,1.5529,1.5529,1.5529,1.5529,1.5529,1.5529,1.5529,1.5439,1.5179,1.4398,1.3845,1.3324,1.2905,1.2764,1.2764,1.2764,1.2764,1.2764,1.2764,1.2764,1.2764,1.2764,1.2764,1.2764,1.2764,1.2764,1.2764,1.2764,1.2764,1.2764,1.2764,1.2764,1.2764,1.2764,1.2078,1.1487,1.1194,1.0511,0.992,0.9628,0.9628,0.9628,0.9628,0.9628,0.9628,0.9628,0.9628,0.9628,0.9628,0.9628,0.9628,0.9628,0.9628,0.9628,0.9628,0.9628,0.9628,0.9628,0.9229,0.9229,0.9628,0.8733,0.8432,0.9738,1.0771,1.1817,1.2012,1.2228,1.244,0.0,0.0,0.0,0.0,0.0,0.0,0.0,0.0,0.0,0.0,0.0,0.0,0.0,0.0,0.0,0.0,0.0,0.0,0.0,0.0,0.0,0.0,0.0,0.0,2.3969,2.3574,2.3126,2.2797,2.2301,2.2154,2.2464,2.2064,2.1553,2.0921,2.0632,2.0039,1.9287,1.8372,1.7605,1.7054,0.0,0.0,1.5107,1.5107,1.5107,1.5107,1.5107,1.5107,1.5107,1.5107,1.5083,1.4909,1.4038,1.3324,1.2764,1.2764,1.2764,1.2764,1.2764,1.2764,1.2764,1.2764,1.2764,1.2764,1.2764,1.2764,1.2764,1.2764,1.2764,1.2764,1.2764,1.2764,1.2764,1.2764,1.2764,1.2764,1.2764,1.2273,1.1683,1.1292,1.0703,1.0117,0.9628,0.9628,0.9628,0.9628,0.9628,0.9628,0.9628,0.9628,0.9628,0.9628,0.9628,0.9628,0.9628,0.9628,0.9628,0.9628,0.9628,0.9628,0.9628,0.8928,0.8931,0.9628,0.8733,0.8333,1.0287,1.1662,1.2521,1.1665,1.1523,1.187,1.2592,0.0,0.0,0.0,0.0,0.0,0.0,0.0,0.0,0.0,0.0,0.0,0.0,0.0,0.0,0.0,0.0,0.0,0.0,0.0,0.0,0.0,0.0,0.0,2.3143,2.3039,2.2822,2.2568,2.2265,2.21,2.197,2.1621,2.1428,2.1286,2.1235,2.0743,1.9709,1.9512,1.8493,1.666,0.0,1.5941,1.5107,1.5107,1.5107,1.5107,1.5107,1.5107,1.5107,1.5107,1.4761,1.4336,1.3487,1.3083,1.2764,1.2764,1.2764,1.2764,1.2764,1.2764,1.2764,1.2764,1.2764,1.2764,1.2764,1.2764,1.2764,1.2764,1.2764,1.2764,1.2764,1.2764,1.2764,1.2764,1.2764,1.2764,1.2764,1.198,1.1292,1.1194,1.0314,0.9727,0.9628,0.9628,0.9628,0.9628,0.9628,0.9628,0.9628,0.9628,0.9628,0.9628,0.9628,0.9628,0.9628,0.9628,0.9628,0.9628,0.9628,0.9628,0.9628,0.943,0.9529,0.9628,0.8733,0.8035,1.0394,1.1178,1.1914,1.2272,1.309,1.3803,1.395,0.0,0.0,0.0,0.0,0.0,0.0,0.0,0.0,0.0,0.0,0.0,0.0,0.0,0.0,0.0,0.0,0.0,0.0,0.0,0.0,0.0,0.0,0.0,2.2857,2.2762,2.2568,2.2258,2.1866,2.148,2.1177,2.0898,2.1011,2.1413,2.1216,2.0931,2.0627,2.0039,1.8867,1.7239,0.0,1.5684,1.4672,1.4672,1.4672,1.4672,1.4672,1.4672,1.4672,1.4481,1.4207,1.3791,1.3283,1.2953,1.2764,1.2764,1.2764,1.2764,1.2764,1.2764,1.2764,1.2764,1.2764,1.2764,1.2764,1.2764,1.2764,1.2764,1.2764,1.2764,1.2764,1.2764,1.2764,1.2764,1.2764,1.2662,1.237,1.1683,1.1096,1.0806,1.0117,0.9628,0.9628,0.9628,0.9628,0.9628,0.9628,0.9628,0.9628,0.9628,0.9628,0.9628,0.9628,0.9628,0.9628,0.9628,0.9628,0.9628,0.9628,0.9628,0.9628,0.913,0.913,0.9529,0.8333,0.763,1.0777,1.1072,1.1643,1.3095,0.0,1.4952,1.5221,0.0,0.0,0.0,0.0,0.0,0.0,0.0,0.0,0.0,0.0,0.0,0.0,0.0,0.0,0.0,0.0,0.0,0.0,0.0,0.0,0.0,0.0,0.0,2.2574,2.2387,2.2158,2.1852,2.1375,2.1042,2.0654,2.0473,2.0574,2.1139,2.0874,2.0883,2.1148,2.0276,1.9264,1.8058,1.6917,1.573,1.4675,1.4388,1.4298,1.4298,1.4298,1.4298,1.4208,1.3925,1.3642,1.3346,1.3147,1.2958,1.2764,1.2764,1.2764,1.2764,1.2764,1.2764,1.2764,1.2764,1.2764,1.2764,1.2764,1.2764,1.2764,1.2764,1.2764,1.2764,1.2764,1.2764,1.2764,1.2764,1.2764,1.2662,1.2078,1.1585,1.1002,1.0511,0.992,0.9628,0.9628,0.9628,0.9628,0.9628,0.9628,0.9628,0.9628,0.9628,0.9628,0.9628,0.9628,0.9628,0.9628,0.9628,0.9628,0.9628,0.9628,0.9628,0.9628,0.9031,0.8829,0.9122,0.8031,0.7229,1.1881,1.2367,1.2645,1.3623,0.0,0.0,1.5178,1.534,0.0,0.0,0.0,0.0,0.0,0.0,0.0,0.0,0.0,0.0,0.0,0.0,0.0,0.0,0.0,0.0,0.0,0.0,0.0,0.0,0.0,0.0,2.1823,2.1733,2.1635,2.1437,2.114,2.0942,2.0744,2.0473,2.0317,2.0369,2.0343,2.0343,2.0377,2.0278,1.9696,1.8643,1.7707,1.6662,1.5609,1.4675,1.4298,1.4298,1.4298,1.4112,1.3931,1.3642,1.3346,1.3147,1.2861,1.2764,1.2764,1.2764,1.2764,1.2764,1.2764,1.2764,1.2764,1.2764,1.2764,1.2764,1.2764,1.2764,1.2764,1.2764,1.2764,1.2764,1.2764,1.2764,1.2764,1.2764,1.2764,1.2662,1.2078,1.1585,1.1002,1.0511,0.992,0.9628,0.9628,0.9628,0.9628,0.9628,0.9628,0.9628,0.9628,0.9628,0.9628,0.9628,0.9628,0.9628,0.9628,0.9628,0.9628,0.9628,0.9628,0.9628,0.9628,0.9529,0.892,0.7717,0.8127,0.703,1.1445,1.2351,1.3149,1.3725,0.0,0.0,0.0,0.0,0.0,0.0,0.0,0.0,0.0,0.0,0.0,0.0,0.0,0.0,0.0,0.0,0.0,0.0,0.0,0.0,0.0,0.0,0.0,0.0,0.0,0.0,0.0,2.1472,2.1383,2.1195,2.0916,2.0736,2.0744,2.0473,2.0292,2.0292,2.0292,2.0292,2.0292,2.0292,1.9729,1.8788,1.8419,1.7669,1.6734,1.6358,1.5798,1.514,1.4394,1.4027,1.3835,1.3443,1.3147,1.305,1.2861,1.2764,1.2764,1.2764,1.2764,1.2764,1.2764,1.2764,1.2764,1.2764,1.2764,1.2764,1.2764,1.2764,1.2764,1.2764,1.2764,1.2764,1.2764,1.2764,1.2764,1.2764,1.2565,1.2175,1.1585,1.11,1.0511,1.0019,0.9727,0.9628,0.9628,0.9628,0.9628,0.9628,0.9628,0.9628,0.9628,0.9628,0.9628,0.9628,0.9628,0.9628,0.9628,0.9628,0.9628,0.9628,0.9628,0.9628,0.9628,0.913,0.8425,0.7614,0.6825,0.5527,1.141,1.2223,1.3039,0.0,0.0,0.0,0.0,0.0,0.0,0.0,0.0,0.0,0.0,0.0,0.0,0.0,0.0,0.0,0.0,0.0,0.0,0.0,0.0,0.0,0.0,0.0,0.0,0.0,0.0,0.0,0.0,2.1302,2.1195,2.0907,2.0736,2.0654,2.0564,2.0382,2.0292,2.0292,2.0292,2.0292,2.0292,2.0292,1.9911,1.9263,1.8972,1.8419,1.7762,1.739,1.6734,1.5704,1.4771,1.4112,1.3738,1.3249,1.305,1.2958,1.2861,1.2764,1.2764,1.2764,1.2764,1.2764,1.2764,1.2764,1.2764,1.2764,1.2764,1.2764,1.2764,1.2764,1.2764,1.2764,1.2764,1.2764,1.2764,1.2764,1.2764,1.2764,1.237,1.178,1.1292,1.0801,1.0216,0.9727,0.9628,0.9628,0.9628,0.9628,0.9628,0.9628,0.9628,0.9628,0.9628,0.9628,0.9628,0.9628,0.9628,0.9628,0.9628,0.9628,0.9628,0.9628,0.9628,0.943,0.9229,0.8528,0.7621,0.652,0.5427,0.4239,1.1977,1.2085,0.0,0.0,0.0,0.0,0.0,0.0,0.0,0.0,0.0,0.0,0.0,0.0,0.0,0.0,0.0,0.0,0.0,0.0,0.0,0.0,0.0,0.0,0.0,0.0,0.0,0.0,0.0,0.0,0.0,2.1105,2.0907,2.0744,2.0744,2.0564,2.0292,2.0292,2.0292,2.0292,2.0292,2.0292,2.0292,2.0292,2.0292,2.0201,1.9255,1.8788,1.8703,1.7762,1.6734,1.5792,1.5501,1.4663,1.3443,1.3249,1.2953,1.2764,1.2764,1.2764,1.2764,1.2764,1.2764,1.2764,1.2764,1.2764,1.2764,1.2764,1.2764,1.2764,1.2764,1.2764,1.2764,1.2764,1.2764,1.2764,1.2764,1.2764,1.2764,1.2764,1.237,1.178,1.1292,1.0703,1.0216,0.9727,0.9628,0.9628,0.9628,0.9628,0.9628,0.9628,0.9628,0.9628,0.9628,0.9628,0.9628,0.9628,0.9628,0.9628,0.9628,0.9628,0.9628,0.9628,0.9628,0.9229,0.8432,0.7819,0.652,0.4429,0.4429,0.3462,1.1927,0.0,0.0,0.0,0.0,0.0,0.0,0.0,0.0,0.0,0.0,0.0,0.0,0.0,0.0,0.0,0.0,0.0,0.0,0.0,0.0,0.0,0.0,0.0,0.0,0.0,0.0,0.0,0.0,0.0,0.0,2.0835,2.0645,2.0473,2.0382,2.0382,2.0292,2.0292,2.0292,2.0292,2.0292,2.0292,2.0292,2.0292,2.0292,2.0292,2.0011,1.9828,1.982,1.8788,1.7662,1.6438,1.5507,1.4382,1.3147,1.2958,1.2861,1.2764,1.2764,1.2764,1.2764,1.2764,1.2764,1.2764,1.2764,1.2764,1.2764,1.2764,1.2764,1.2764,1.2764,1.2764,1.2764,1.2764,1.2764,1.2764,1.2764,1.2764,1.2667,1.2273,1.1785,1.1292,1.0708,1.0216,0.9821,0.9628,0.9628,0.9628,0.9628,0.9628,0.9628,0.9628,0.9628,0.9628,0.9628,0.9628,0.9628,0.9628,0.9628,0.9628,0.9628,0.9628,0.9628,0.9628,0.9031,0.863,0.8432,0.6728,0.5464,0.4415,0.3494,0.2596,1.2122,0.0,0.0,0.0,0.0,0.0,0.0,0.0,0.0,0.0,0.0,0.0,0.0,0.0,0.0,0.0,0.0,0.0,0.0,0.0,0.0,0.0,0.0,0.0,0.0,0.0,0.0,0.0,0.0,0.0,0.0,2.0564,2.0473,2.0292,2.0292,2.0292,2.0292,2.0292,2.0292,2.0292,2.0292,2.0292,2.0292,2.0292,2.0292,2.0292,2.0292,2.0292,2.0192,1.9063,1.7933,1.6713,1.5406,1.4094,1.305,1.2861,1.2764,1.2764,1.2764,1.2764,1.2764,1.2764,1.2764,1.2764,1.2764,1.2764,1.2764,1.2764,1.2764,1.2764,1.2764,1.2764,1.2764,1.2764,1.2764,1.2759,1.2565,1.2467,1.2273,1.178,1.1292,1.0806,1.0413,0.992,0.9628,0.9628,0.9628,0.9628,0.9628,0.9628,0.9628,0.9628,0.9628,0.9628,0.9628,0.9628,0.9628,0.9628,0.9628,0.9628,0.9628,0.9628,0.943,0.913,0.863,0.8134,0.7437,0.5775,0.4606,0.4038,0.2715,0.201,0.0,0.0,0.0,0.0,0.0,0.0,0.0,0.0,0.0,0.0,0.0,0.0,0.0,0.0,0.0,0.0,0.0,0.0,0.0,0.0,0.0,0.0,0.0,0.0,0.0,0.0,0.0,0.0,0.0,0.0,0.0,2.0473,2.0292,2.0292,2.0292,2.0292,2.0292,2.0292,2.0292,2.0292,2.0292,2.0292,2.0292,2.0292,2.0292,2.0292,2.0292,2.0201,2.0102,1.8872,1.774,1.6713,1.5216,1.3992,1.3147,1.2861,1.2764,1.2764,1.2764,1.2764,1.2764,1.2764,1.2764,1.2764,1.2764,1.2764,1.2764,1.2764,1.2764,1.2764,1.2764,1.2764,1.2764,1.2764,1.2764,1.2667,1.2078,1.198,1.178,1.1194,1.0708,1.0408,1.0314,0.992,0.9628,0.9628,0.9628,0.9628,0.9628,0.9628,0.9628,0.9628,0.9628,0.9628,0.9628,0.9628,0.9628,0.9628,0.9628,0.9628,0.9628,0.9628,0.9229,0.8531,0.8333,0.7637,0.6142,0.5026,0.4042,0.3324,0.2223,0.1725,0.0,0.0,0.0,0.0,0.0,0.0,0.0,0.0,0.0,0.0,0.0,0.0,0.0,0.0,0.0,0.0,0.0,0.0,0.0,0.0,0.0,0.0,0.0,0.0,0.0,0.0,0.0,0.0,0.0,0.0,2.0382,2.0292,2.0292,2.0292,2.0292,2.0292,2.0292,2.0292,2.0292,0.0,2.0292,2.0292,2.0292,2.0292,2.0292,2.0292,1.992,1.9737,1.9646,1.8334,1.749,1.6734,1.5216,1.4274,1.3619,1.305,1.2764,1.2764,1.2764,1.2764,1.2764,1.2764,1.2764,1.2764,1.2764,1.2764,1.2764,1.2764,1.2764,1.2764,1.2764,1.2764,1.2764,1.2764,1.2764,1.2667,1.2078,1.198,1.1683,1.0801,1.0511,1.0314,0.9826,0.9628,0.9628,0.9628,0.9628,0.9628,0.9628,0.9628,0.9628,0.9628,0.9628,0.9628,0.9628,0.9628,0.9628,0.9628,0.9628,0.9628,0.9628,0.9628,0.9529,0.9327,0.8134,0.7537,0.754,0.492,0.365,0.3914,0.2478,0.1756,0.0,0.0,0.0,0.0,0.0,0.0,0.0,0.0,0.0,0.0,0.0,0.0,0.0,0.0,0.0,0.0,0.0,0.0,0.0,0.0,0.0,0.0,0.0,0.0,0.0,0.0,0.0,0.0,0.0,2.0292,2.0292,2.0292,2.0292,2.0292,2.0292,2.0292,2.0292,2.0292,2.0292,2.0292,2.0292,2.0292,2.0292,2.0292,2.0292,2.0292,1.9828,1.9637,1.9455,1.7963,1.7124,1.6741,1.5419,1.4663,1.4382,1.3619,1.3335,1.3238,1.2958,1.2764,1.2764,1.2764,1.2764,1.2764,1.2764,1.2764,1.2764,1.2764,1.2764,1.2764,1.2764,1.257,1.237,1.237,1.237,1.2273,1.1688,1.1394,1.0998,1.0216,1.0019,0.992,0.9628,0.9628,0.9628,0.9628,0.9628,0.9628,0.9628,0.9628,0.9628,0.9628,0.9628,0.9661,0.9742,0.9673,0.9661,0.9746,0.9673,0.9628,0.9628,0.9705,0.951,0.9031,0.8035,0.7235,0.6634,0.4654,0.3584,0.3301,0.2296,0.178,0.0,0.0,0.0,0.0,0.0,0.0,0.0,0.0,0.0,0.0,0.0,0.0,0.0,0.0,0.0,0.0,0.0,0.0,0.0,0.0,0.0,0.0,0.0,0.0,0.0,0.0,0.0,0.0,0.0,2.0292,2.0292,2.0292,2.0292,2.0292,2.0292,2.0292,2.0292,2.0292,2.0292,2.0292,2.0292,2.0292,2.0292,2.0292,2.0292,2.0292,1.9828,1.9554,1.9363,1.7584,1.6936,1.6842,1.5615,1.5146,1.5146,1.4286,1.3902,1.3811,1.305,1.2764,1.2764,1.2764,1.2764,1.2764,1.2764,1.2764,1.2764,1.2764,1.2764,1.2662,1.2662,1.2273,1.1878,1.1878,1.178,1.1585,1.1194,1.0703,1.0216,0.9723,0.9628,0.9628,0.9628,0.9628,0.9628,0.9628,0.9628,0.9628,0.9628,0.9628,0.964,0.9669,0.9673,0.9742,0.992,0.9803,0.9766,0.988,0.975,0.9657,0.9628,0.9791,0.9396,0.8329,0.7959,0.7077,0.548,0.4398,0.341,0.2678,0.21,0.1795,0.0,0.0,0.0,0.0,0.0,0.0,0.0,0.0,0.0,0.0,0.0,0.0,0.0,0.0,0.0,0.0,0.0,0.0,0.0,0.0,0.0,0.0,0.0,0.0,0.0,0.0,0.0,0.0,2.0292,2.0292,2.0292,2.0292,2.0292,2.0292,2.0292,2.0292,2.0292,2.0292,2.0292,2.0292,2.0292,2.0292,2.0292,2.0292,2.0292,2.0292,1.9828,1.9371,1.8827,1.7404,1.7037,1.7138,1.5622,1.5527,1.5906,1.4478,1.3902,1.3811,1.305,1.2764,1.2764,1.2764,1.2764,1.2764,1.2764,1.2764,1.2764,1.2764,1.2467,1.2078,1.2078,1.1683,1.1292,1.1292,1.0998,1.0605,1.0511,1.0413,1.0216,0.9723,0.9628,0.9628,0.9628,0.9628,0.9628,0.9628,0.9628,0.9628,0.9628,0.9628,0.9685,0.9835,0.9851,0.9925,1.0107,1.0103,1.003,0.9892,0.9864,0.9782,0.9632,0.9791,0.9187,0.772,0.7137,0.6841,0.6838,0.4029,0.2898,0.3268,0.2223,0.1795,0.0,0.0,0.0,0.0,0.0,0.0,0.0,0.0,0.0,0.0,0.0,0.0,0.0,0.0,0.0,0.0,0.0,0.0,0.0,0.0,0.0,0.0,0.0,0.0,0.0,0.0,0.0,0.0,2.0292,2.0292,2.0292,2.0292,2.0292,2.0292,2.0292,2.0292,2.0292,2.0292,2.0292,2.0292,2.0292,2.0292,2.0292,2.0011,2.0011,2.0292,1.9463,1.9004,1.8735,1.7606,1.7232,1.7232,1.6567,1.6285,1.6096,1.4956,1.4286,1.3811,1.305,1.2764,1.2764,1.2764,1.2764,1.2764,1.2764,1.2565,1.237,1.237,1.198,1.1585,1.1585,1.1194,1.0703,1.0703,1.0314,0.992,0.992,0.992,0.992,0.9628,0.9628,0.9628,0.9628,0.9628,0.9628,0.9628,0.9628,0.9628,0.9628,0.9709,0.9803,0.9876,0.9977,1.0115,1.0298,1.0221,1.0128,0.984,0.9741,0.9505,0.9133,0.9384,0.8823,0.7342,0.7164,0.649,0.5224,0.374,0.282,0.2515,0.2003,0.1795,0.0,0.0,0.0,0.0,0.0,0.0,0.0,0.0,0.0,0.0,0.0,0.0,0.0,0.0,0.0,0.0,0.0,0.0,0.0,0.0,0.0,0.0,0.0,0.0,0.0,0.0,0.0,0.0,2.0292,2.0292,2.0292,2.0292,2.0292,2.0292,2.0292,2.0292,2.0292,2.0292,2.0292,2.0292,2.0292,2.0201,2.0102,1.9737,1.9737,1.9837,1.9104,1.8735,1.855,1.78,1.7419,1.7326,1.7326,1.685,1.6096,1.5337,1.4573,1.3811,1.305,1.2764,1.2764,1.2764,1.2764,1.2764,1.2662,1.2273,1.198,1.1883,1.1389,1.0998,1.0998,1.0609,1.0216,1.0216,0.9924,0.9628,0.9628,0.9628,0.9628,0.9628,0.9628,0.9628,0.9628,0.9628,0.9628,0.9628,0.9628,0.9644,0.9689,0.9807,0.992,1.0014,1.0148,1.0306,1.0485,1.0375,1.0172,0.9918,0.9434,0.8958,0.8489,0.8402,0.7723,0.6259,0.65,0.5597,0.367,0.322,0.2618,0.1762,0.1785,0.1795,0.0,0.0,0.0,0.0,0.0,0.0,0.0,0.0,0.0,0.0,0.0,0.0,0.0,0.0,0.0,0.0,0.0,0.0,0.0,0.0,0.0,0.0,0.0,0.0,0.0,0.0,0.0,0.0,2.0292,2.0292,2.0292,2.0292,2.0292,2.0292,2.0292,2.0292,2.0292,2.0292,2.0292,2.0292,2.0292,2.0102,1.9637,1.9646,1.9371,1.892,1.8827,1.855,1.8087,1.8087,1.78,1.7326,1.7326,1.685,1.6096,1.5337,1.4573,1.3811,1.305,1.2764,1.2764,1.2764,1.2764,1.2662,1.2175,1.1975,1.1883,1.1389,1.0904,1.0413,1.0413,1.0019,0.9628,0.9628,0.9628,0.9628,0.9628,0.9628,0.9628,0.9628,0.9628,0.9628,0.9628,0.9628,0.9628,0.9628,0.9628,0.9689,0.9851,0.988,1.0018,1.0371,1.0416,1.0489,1.0664,1.0672,1.0482,0.9988,0.8864,0.8082,0.7629,0.6603,0.5326,0.3828,0.3966,0.3854,0.348,0.2361,0.1845,0.1793,0.1794,0.1795,0.0,0.0,0.0,0.0,0.0,0.0,0.0,0.0,0.0,0.0,0.0,0.0,0.0,0.0,0.0,0.0,0.0,0.0,0.0,0.0,0.0,0.0,0.0,0.0,0.0,0.0,0.0,0.0,0.0,1.9941,1.9941,1.971,1.9573,1.9573,1.9573,1.9573,1.9573,1.9821,1.9754,1.9485,1.972,1.9554,1.9096,1.8727,1.8542,1.8365,1.7986,1.7986,1.8087,1.7707,1.7512,1.7326,1.7326,1.6567,1.5432,1.5242,1.4292,1.3147,1.2861,1.2764,1.2764,1.2764,1.2764,1.2667,1.2175,1.178,1.1389,1.0801,1.0314,0.992,0.992,0.9723,0.9628,0.9628,0.9628,0.9628,0.9628,0.9628,0.9628,0.9628,0.9628,0.9628,0.9628,0.9628,0.9628,0.9628,0.9628,0.9648,0.9709,0.9815,0.9981,1.0233,1.0367,1.0461,1.0521,0.9753,0.8987,0.8425,0.7211,0.6305,0.5785,0.5542,0.4712,0.3324,0.351,0.3164,0.2362,0.1945,0.1755,0.1795,0.1795,0.1795,1.0108,0.0,0.0,0.0,0.0,0.0,0.0,0.0,0.0,0.0,0.0,0.0,0.0,0.0,0.0,0.0,0.0,0.0,0.0,0.0,0.0,0.0,0.0,0.0,0.0,0.0,0.0,0.0,0.0,0.0,1.9555,1.9307,1.917,1.917,1.917,1.9084,1.8998,1.9157,1.9109,1.8668,1.902,1.8918,1.8378,1.8218,1.7994,1.78,1.7419,1.7512,1.78,1.7419,1.7326,1.7326,1.7326,1.6379,1.5146,1.5337,1.4382,1.2861,1.305,1.305,1.2764,1.2764,1.2764,1.2662,1.198,1.1487,1.1096,1.0314,0.992,0.9628,0.9628,0.9628,0.9628,0.9628,0.9628,0.9628,0.9628,0.9628,0.9628,0.9628,0.9628,0.9628,0.9628,0.9628,0.9628,0.9628,0.9628,0.9648,0.9705,0.9815,0.9957,1.0144,1.027,1.0343,1.0343,0.9477,0.8639,0.8133,0.6419,0.534,0.4873,0.4291,0.357,0.2723,0.2756,0.2384,0.169,0.172,0.175,0.178,0.179,0.1795,0.0,0.0,0.0,0.0,0.0,0.0,0.0,0.0,0.0,0.0,0.0,0.0,0.0,0.0,0.0,0.0,0.0,0.0,0.0,0.0,0.0,0.0,0.0,0.0,0.0,0.0,0.0,0.0,1.9162,1.9153,1.9153,1.9144,1.9136,1.9144,1.9144,1.8879,1.844,1.8448,1.8284,1.7866,1.812,1.8018,1.759,1.7919,1.7792,1.7326,1.7326,1.7326,1.7326,1.7326,1.7326,1.7326,1.7326,1.6379,1.5242,1.5906,1.4765,1.2953,1.3619,1.3431,1.2764,1.2764,1.2764,1.2565,1.1492,1.1194,1.1002,0.992,0.9628,0.9628,0.9628,0.9628,0.9628,0.9628,0.9628,0.9628,0.9628,0.9628,0.9628,0.9628,0.9628,0.9628,0.9628,0.9628,0.9628,0.9628,0.9628,0.9689,0.9855,0.9876,0.9949,1.0136,1.0152,1.0152,1.0152,0.9947,0.9634,0.9209,0.6872,0.5366,0.506,0.2851,0.1617,0.1617,0.1617,0.1632,0.1661,0.169,0.172,0.175,0.178,0.1795,0.9675,0.0,0.0,0.0,0.0,0.0,0.0,0.0,0.0,0.0,0.0,0.0,0.0,0.0,0.0,0.0,0.0,0.0,0.0,0.0,0.0,0.0,0.0,0.0,0.0,0.0,0.0,0.0,1.8913,1.8751,1.8751,1.8494,1.8184,1.7945,1.7863,1.7689,1.7191,1.7516,1.7397,1.6993,1.7319,1.7339,1.713,1.7219,1.7298,1.7326,1.7326,1.7326,1.7326,1.7326,1.7326,1.7326,1.7326,1.6756,1.5906,1.6096,1.5051,1.3619,1.3811,1.3431,1.2764,1.2764,1.2764,1.2565,1.1492,1.1194,1.1002,0.992,0.9628,0.9628,0.9628,0.9628,0.9628,0.9628,0.9628,0.9628,0.9628,0.9628,0.9628,0.9628,0.9628,0.9628,0.9628,0.9628,0.9628,0.9628,0.9628,0.9644,0.9693,0.9697,0.9766,0.9941,0.9961,0.9859,0.976,0.8727,0.7962,0.755,0.5886,0.4659,0.3753,0.3132,0.2422,0.1617,0.1617,0.1621,0.1629,0.168,0.172,0.175,0.178,0.1795,0.9887,0.0,0.0,0.0,0.0,0.0,0.0,0.0,0.0,0.0,0.0,0.0,0.0,0.0,0.0,0.0,0.0,0.0,0.0,0.0,0.0,0.0,0.0,0.0,0.0,1.8699,1.8699,1.8699,1.8485,1.8357,1.8357,1.7989,1.7635,1.74,1.7229,1.6902,1.6409,1.6687,1.6538,1.6132,1.6462,1.6543,1.6469,1.6594,1.6828,1.7128,1.7128,1.7208,1.7326,1.7326,1.7326,1.7326,1.7326,1.685,1.6285,1.6567,1.552,1.3902,1.4286,1.3715,1.2764,1.2764,1.2764,1.2565,1.1492,1.1194,1.1002,0.992,0.9628,0.9628,0.9628,0.9628,0.9628,0.9628,0.9628,0.9628,0.9628,0.9628,0.9628,0.9628,0.9628,0.9628,0.9628,0.9628,0.9628,0.9628,0.9628,0.9628,0.9628,0.9628,0.9565,0.957,0.9578,0.9477,0.9272,0.8362,0.7617,0.6833,0.5527,0.4325,0.3224,0.2722,0.222,0.1617,0.1617,0.1623,0.1636,0.1682,0.1726,0.1769,0.1787,0.1795,1.0322,1.0527,0.0,0.0,0.0,0.0,1.2458,1.2552,0.0,0.0,0.0,0.0,0.0,0.0,0.0,0.0,0.0,0.0,0.0,0.0,0.0,0.0,0.0,0.0,0.0,1.804,1.804,1.804,1.7959,1.7951,1.7951,1.7554,1.731,1.7237,1.682,1.6409,1.6004,1.6004,1.5839,1.5431,1.5723,1.5877,1.5921,1.6199,1.6491,1.6897,1.6835,1.7018,1.7274,1.7311,1.7326,1.7326,1.7326,1.685,1.6285,1.6951,1.5805,1.4004,1.4765,1.4004,1.2764,1.2764,1.2662,1.2467,1.1487,1.1096,1.0904,0.992,0.9628,0.9628,0.9628,0.9628,0.9628,0.9628,0.9628,0.9628,0.9628,0.9628,0.9628,0.9628,0.9628,0.9628,0.9628,0.9628,0.9628,0.9628,0.9628,0.9628,0.9628,0.9628,0.9529,0.9236,0.9236,0.9034,0.8623,0.8329,0.773,0.6628,0.5425,0.4325,0.3224,0.2321,0.1717,0.1617,0.1617,0.1632,0.1662,0.169,0.1734,0.179,0.1793,0.1795,1.1156,0.0,0.0,0.0,0.0,0.0,0.0,1.1534,0.0,0.0,0.0,0.0,0.0,0.0,0.0,0.0,0.0,0.0,0.0,0.0,0.0,0.0,0.0,0.0,0.0,1.804,1.804,1.804,1.7716,1.7554,1.7554,1.7066,1.6656,1.6335,1.6252,1.6004,1.5514,1.5514,1.5514,1.5431,1.5496,1.5657,1.5913,1.5979,1.617,1.6477,1.674,1.6894,1.6967,1.7223,1.7326,1.7326,1.7326,1.685,1.619,1.6379,1.533,1.3902,1.4094,1.3522,1.2764,1.2273,1.2175,1.198,1.09,1.0609,1.0408,0.9821,0.9628,0.9628,0.9628,0.9628,0.9628,0.9628,0.9628,0.9628,0.9628,0.9628,0.9628,0.9628,0.9628,0.9628,0.9628,0.9628,0.9628,0.9628,0.9628,0.9628,0.9628,0.9628,0.9529,0.9236,0.9236,0.8634,0.7329,0.7129,0.6528,0.5225,0.4924,0.4325,0.3224,0.3024,0.2521,0.1617,0.1617,0.1632,0.1662,0.169,0.1723,0.1759,0.1783,0.1795,0.0,0.0,0.0,1.1835,0.0,0.0,0.0,0.0,0.0,0.0,0.0,0.0,0.0,0.0,0.0,0.0,0.0,0.0,0.0,0.0,0.0,0.0,0.0,0.0,0.0,1.7232,1.715,1.7095,1.6951,1.6871,1.7057,1.6656,1.6335,1.6095,1.5839,1.568,1.5431,1.5431,1.5431,1.5431,1.5431,1.5511,1.5672,1.5672,1.584,1.6148,1.6316,1.6565,1.6865,1.7026,1.7186,1.7326,1.7326,1.685,1.619,1.619,1.5235,1.3902,1.3902,1.3431,1.2662,1.2175,1.198,1.1785,1.0708,1.0216,0.992,0.9628,0.9628,0.9628,0.9628,0.9628,0.9628,0.9628,0.9628,0.9628,0.9628,0.9628,0.9628,0.9628,0.9628,0.9628,0.9628,0.9628,0.9529,0.943,0.943,0.9331,0.9225,0.9225,0.913,0.8832,0.8333,0.763,0.6634,0.6129,0.5327,0.4124,0.4024,0.3524,0.2421,0.2422,0.212,0.1617,0.1617,0.1624,0.1639,0.1684,0.1721,0.175,0.178,0.1683,0.0,0.0,0.0,0.0,0.0,1.1201,0.0,0.0,0.0,1.1146,0.0,0.0,0.0,0.0,0.0,0.0,0.0,0.0,0.0,0.0,0.0,0.0,0.0,0.0,0.0,1.6271,1.6024,1.615,1.5905,1.6039,1.6448,1.607,1.5944,1.5922,1.5597,1.5431,1.5431,1.5431,1.5431,1.5431,1.5431,1.5431,1.5431,1.5431,1.557,1.5826,1.5884,1.6206,1.6682,1.6806,1.7004,1.7245,1.7304,1.685,1.619,1.619,1.5235,1.3902,1.3902,1.3431,1.2667,1.2078,1.1683,1.1394,1.0507,0.992,0.9628,0.9628,0.9628,0.9628,0.9628,0.9628,0.9628,0.9628,0.9628,0.9628,0.9628,0.9628,0.9628,0.9628,0.9628,0.9628,0.9529,0.9529,0.943,0.9133,0.9133,0.9031,0.8825,0.8825,0.8627,0.8131,0.7332,0.6531,0.5832,0.5027,0.4024,0.2923,0.2923,0.2521,0.1617,0.1617,0.1617,0.1617,0.1617,0.1617,0.1617,0.1678,0.1719,0.1742,0.1778,0.157,0.0,0.0,0.0,0.0,1.2181,0.0,0.0,0.0,1.0806,1.0272,0.0,0.0,0.0,0.0,0.0,0.0,0.0,0.0,0.0,0.0,0.0,0.0,0.0,0.0,0.0,1.5162,1.5177,1.5774,1.4942,1.472,1.5663,1.5315,1.5131,1.5499,1.5431,1.5431,1.5431,1.5431,1.5431,1.5431,1.5431,1.5431,1.5431,1.5431,1.5452,1.5504,1.5789,1.5957,1.6067,1.6623,1.6872,1.6938,1.7216,1.685,1.619,1.619,1.5235,1.3902,1.3902,1.3431,1.2662,1.159,1.0609,0.9826,0.9727,0.9628,0.9628,0.9628,0.9628,0.9628,0.9628,0.9628,0.9628,0.9628,0.9628,0.9628,0.9628,0.9628,0.9628,0.9628,0.9628,0.9529,0.9335,0.9236,0.9133,0.8928,0.8825,0.8825,0.8825,0.8825,0.8326,0.7129,0.683,0.5927,0.3726,0.3423,0.2923,0.1818,0.1818,0.1717,0.1617,0.1617,0.1617,0.1617,0.1617,0.1617,0.1617,0.1573,0.1603,0.1714,0.1769,0.1795,0.0,0.0,0.0,0.0,0.0,0.0,1.0781,0.0,1.0171,0.0,0.0,0.0,0.0,0.0,0.0,0.0,0.0,0.0,0.0,0.0,0.0,0.0,0.0,0.0,0.0,0.0,0.0,0.0,1.372,1.3842,1.465,1.4638,1.4816,1.5138,1.5145,1.524,1.5431,1.5431,1.5431,1.5431,1.5431,1.5431,1.5431,1.5431,1.5431,1.5438,1.5577,1.5738,1.5935,1.6199,1.6528,1.6865,1.7004,1.6693,1.619,1.619,1.5235,1.3902,1.3902,1.3232,1.2175,1.1096,1.0216,0.9628,0.9628,0.9628,0.9628,0.9628,0.9628,0.9628,0.9628,0.9628,0.9628,0.9628,0.9628,0.9628,0.9628,0.9628,0.9628,0.9628,0.943,0.9331,0.9031,0.9133,0.9034,0.863,0.8531,0.8329,0.7531,0.7431,0.693,0.5724,0.5127,0.4325,0.3324,0.2622,0.212,0.1617,0.1617,0.1617,0.1617,0.1617,0.1415,0.1111,0.1111,0.1111,0.1111,0.1452,0.1585,0.1602,0.1767,0.1458,1.326,0.0,0.0,0.0,0.0,0.0,0.0,0.0,0.0,0.0,0.0,0.0,0.0,0.0,0.0,0.0,0.0,0.0,0.0,0.0,0.0,0.0,0.0,0.0,0.0,0.0,0.0,0.0,0.0,1.2877,1.3799,1.407,1.4392,1.4801,1.4896,1.5057,1.5292,1.5387,1.5431,1.5431,1.5431,1.5431,1.5431,1.5431,1.5431,1.5431,1.5431,1.5562,1.5789,1.5877,1.6235,1.6733,1.6821,1.6771,1.6473,1.6285,1.5235,1.3908,1.3709,1.2743,1.1389,1.0609,1.0019,0.9628,0.9628,0.9628,0.9628,0.9628,0.9628,0.9628,0.9628,0.9628,0.9628,0.9628,0.9628,0.9628,0.9628,0.9529,0.9529,0.9529,0.9232,0.9031,0.8726,0.8832,0.8733,0.7935,0.7832,0.7431,0.6132,0.5932,0.5529,0.4526,0.3624,0.3123,0.2822,0.2019,0.1617,0.1617,0.1617,0.1617,0.1617,0.1617,0.1415,0.101,0.0707,0.0606,0.0606,0.1235,0.1573,0.1602,0.143,0.0782,0.0,0.0,0.0,1.2018,0.0,0.0,0.0,0.0,1.047,0.0,0.0,0.0,0.0,0.0,1.0455,1.0148,1.0104,0.0,0.0,0.0,0.0,0.0,0.0,0.0,0.0,0.0,0.0,0.0,0.0,0.0,1.3426,1.3521,1.3821,1.4465,1.4779,1.4948,1.4962,1.527,1.5431,1.5431,1.5431,1.5431,1.5431,1.5431,1.5431,1.5431,1.5431,1.5431,1.5467,1.5789,1.6104,1.6418,1.6733,1.7047,1.7138,1.6473,1.5235,1.3806,1.3318,1.196,1.0413,1.0413,1.0019,0.9628,0.9628,0.9628,0.9628,0.9628,0.9628,0.9628,0.9628,0.9628,0.9628,0.9628,0.9628,0.9628,0.9628,0.943,0.9236,0.9236,0.9031,0.8726,0.8432,0.8432,0.7932,0.6637,0.6437,0.6034,0.5024,0.4824,0.4425,0.3324,0.3224,0.2822,0.1717,0.1617,0.1617,0.1617,0.1617,0.1617,0.1617,0.1617,0.1617,0.1617,0.0505,0.0,0.0,0.1132,0.1573,0.1601,0.0543,0.0,0.0,0.0,1.484,1.3347,0.0,0.0,0.0,0.0,0.0,0.0,0.0,0.0,0.0,0.0,1.0485,1.0155,1.0104,0.9987,0.0,0.0,0.0,0.0,0.0,0.0,0.0,0.0,0.0,0.0,1.1202,0.0,0.0,1.2943,1.3375,1.3814,1.4136,1.4509,1.494,1.4969,1.5211,1.5431,1.5431,1.5431,1.5431,1.5431,1.5431,1.5431,1.5431,1.5431,1.5438,1.5548,1.5782,1.6104,1.6411,1.6454,1.6288,1.6778,1.5798,1.389,1.196,1.0895,1.0314,1.0019,0.9723,0.9628,0.9628,0.9628,0.9628,0.9628,0.9628,0.9628,0.9628,0.9628,0.9628,0.9628,0.9628,0.9529,0.9335,0.9232,0.9133,0.8928,0.873,0.8528,0.8432,0.7633,0.6936,0.6437,0.5832,0.4926,0.3925,0.3725,0.3323,0.222,0.212,0.2019,0.1617,0.1617,0.1617,0.1617,0.1617,0.1617,0.1617,0.1617,0.1313,0.0505,0.0202,0.0,0.0,0.0407,0.0518,0.0533,0.0215,0.0,1.53,1.561,0.0,1.419,1.3691,0.0,1.1361,0.0,0.0,0.0,0.0,0.0,0.0,0.0,1.0697,1.0485,1.025,0.9987,0.0,0.0,0.0,0.0,0.0,0.0,0.0,0.0,1.0038,1.0682,0.0,0.0,0.0,0.0,1.2987,1.3309,1.3748,1.4179,1.4596,1.4823,1.505,1.5255,1.5372,1.5431,1.5431,1.5431,1.5431,1.5431,1.5431,1.5431,1.5431,1.5431,1.5536,1.5857,1.6162,1.584,1.5398,1.598,1.4835,1.263,1.0993,1.0314,1.0019,0.9727,0.9628,0.9628,0.9628,0.9628,0.9628,0.9628,0.9628,0.9529,0.9529,0.943,0.943,0.9327,0.9327,0.9229,0.913,0.8935,0.8832,0.873,0.8432,0.8134,0.7733,0.6631,0.5832,0.5832,0.4926,0.3823,0.2722,0.2622,0.2321,0.1718,0.1617,0.1617,0.1617,0.1617,0.1617,0.1617,0.1617,0.1415,0.101,0.101,0.0707,0.0,0.0,0.0,0.0,0.0,0.0,0.0,0.0,0.0]}]]